<?xml version='1.0' encoding='UTF-8'?><gpx version="1.1" creator="JPX - https://github.com/jenetics/jpx" xmlns="http://www.topografix.com/GPX/1/1"><trk><trkseg><trkpt lat="47.251642769586276" lon="-0.12477332002235667"><ele>76.0</ele><time>2026-03-22T16:23:52Z</time></trkpt><trkpt lat="47.25154352254536" lon="-0.12484962572860793"><ele>76.0</ele><time>2026-03-22T16:23:54Z</time></trkpt><trkpt lat="47.251477956478816" lon="-0.12484006302135783"><ele>76.0</ele><time>2026-03-22T16:23:55Z</time></trkpt><trkpt lat="47.251359385956086" lon="-0.12479291420876315"><ele>76.0</ele><time>2026-03-22T16:23:57Z</time></trkpt><trkpt lat="47.251301244551826" lon="-0.12469350643771811"><ele>76.0</ele><time>2026-03-22T16:23:58Z</time></trkpt><trkpt lat="47.25124474154902" lon="-0.12459663487161975"><ele>76.0</ele><time>2026-03-22T16:23:59Z</time></trkpt><trkpt lat="47.25116198073286" lon="-0.12443665066748298"><ele>76.0</ele><time>2026-03-22T16:24:00Z</time></trkpt><trkpt lat="47.25104593688777" lon="-0.12425124813039348"><ele>76.0</ele><time>2026-03-22T16:24:01Z</time></trkpt><trkpt lat="47.25092447936916" lon="-0.12407306352419513"><ele>76.0</ele><time>2026-03-22T16:24:02Z</time></trkpt><trkpt lat="47.25080839670528" lon="-0.12390077489541054"><ele>76.0</ele><time>2026-03-22T16:24:03Z</time></trkpt><trkpt lat="47.250699809870774" lon="-0.12373760874633923"><ele>76.0</ele><time>2026-03-22T16:24:04Z</time></trkpt><trkpt lat="47.25060060810758" lon="-0.12358785229676597"><ele>75.5</ele><time>2026-03-22T16:24:05Z</time></trkpt><trkpt lat="47.25051309938404" lon="-0.12345381808588814"><ele>75.0</ele><time>2026-03-22T16:24:06Z</time></trkpt><trkpt lat="47.25044275706779" lon="-0.12330528402109145"><ele>74.5</ele><time>2026-03-22T16:24:07Z</time></trkpt><trkpt lat="47.25036826110912" lon="-0.12318751799503892"><ele>74.0</ele><time>2026-03-22T16:24:08Z</time></trkpt><trkpt lat="47.250306308535095" lon="-0.12308153680518416"><ele>74.0</ele><time>2026-03-22T16:24:09Z</time></trkpt><trkpt lat="47.25023590313591" lon="-0.12300797994433575"><ele>74.0</ele><time>2026-03-22T16:24:10Z</time></trkpt><trkpt lat="47.250145037118145" lon="-0.12297055350071155"><ele>74.0</ele><time>2026-03-22T16:24:12Z</time></trkpt><trkpt lat="47.2500546760916" lon="-0.12289216577058358"><ele>74.0</ele><time>2026-03-22T16:24:14Z</time></trkpt><trkpt lat="47.24996735264355" lon="-0.12279495395641787"><ele>74.0</ele><time>2026-03-22T16:24:16Z</time></trkpt><trkpt lat="47.24992648986444" lon="-0.12265055737508677"><ele>74.0</ele><time>2026-03-22T16:24:18Z</time></trkpt><trkpt lat="47.24995434894549" lon="-0.12247894387171754"><ele>74.0</ele><time>2026-03-22T16:24:20Z</time></trkpt><trkpt lat="47.2500062402023" lon="-0.12239035237922868"><ele>74.0</ele><time>2026-03-22T16:24:21Z</time></trkpt><trkpt lat="47.250086546458476" lon="-0.12229177698524307"><ele>74.0</ele><time>2026-03-22T16:24:22Z</time></trkpt><trkpt lat="47.25014739239681" lon="-0.12221880942706471"><ele>74.0</ele><time>2026-03-22T16:24:23Z</time></trkpt><trkpt lat="47.250200861070574" lon="-0.1221597223529708"><ele>74.0</ele><time>2026-03-22T16:24:24Z</time></trkpt><trkpt lat="47.250191707214476" lon="-0.12200723425783559"><ele>73.83333333333334</ele><time>2026-03-22T16:24:28Z</time></trkpt><trkpt lat="47.250142793204105" lon="-0.12192761044094298"><ele>73.66666666666667</ele><time>2026-03-22T16:24:29Z</time></trkpt><trkpt lat="47.25008221467033" lon="-0.1218342605641002"><ele>73.5</ele><time>2026-03-22T16:24:30Z</time></trkpt><trkpt lat="47.25000841318632" lon="-0.12172632368418422"><ele>73.33333333333333</ele><time>2026-03-22T16:24:31Z</time></trkpt><trkpt lat="47.24993432869847" lon="-0.12163949276810482"><ele>73.16666666666666</ele><time>2026-03-22T16:24:32Z</time></trkpt><trkpt lat="47.249863918727414" lon="-0.12160273095916108"><ele>73.0</ele><time>2026-03-22T16:24:33Z</time></trkpt><trkpt lat="47.24979140007753" lon="-0.12156801626067246"><ele>73.0</ele><time>2026-03-22T16:24:34Z</time></trkpt><trkpt lat="47.24972732605834" lon="-0.1215014299248421"><ele>73.0</ele><time>2026-03-22T16:24:35Z</time></trkpt><trkpt lat="47.24968495070169" lon="-0.12140239291721733"><ele>73.0</ele><time>2026-03-22T16:24:36Z</time></trkpt><trkpt lat="47.249660355398845" lon="-0.12131346985177988"><ele>73.0</ele><time>2026-03-22T16:24:37Z</time></trkpt><trkpt lat="47.24957168217293" lon="-0.12122470559129628"><ele>73.0</ele><time>2026-03-22T16:24:39Z</time></trkpt><trkpt lat="47.249506089689596" lon="-0.12119681722872125"><ele>73.0</ele><time>2026-03-22T16:24:40Z</time></trkpt><trkpt lat="47.2494329382208" lon="-0.12117892810169706"><ele>73.0</ele><time>2026-03-22T16:24:41Z</time></trkpt><trkpt lat="47.24934019211092" lon="-0.12116135602573201"><ele>73.0</ele><time>2026-03-22T16:24:42Z</time></trkpt><trkpt lat="47.24925070827511" lon="-0.12113706925072192"><ele>73.0</ele><time>2026-03-22T16:24:43Z</time></trkpt><trkpt lat="47.24916351616138" lon="-0.12111387581194791"><ele>73.0</ele><time>2026-03-22T16:24:44Z</time></trkpt><trkpt lat="47.249049946045396" lon="-0.12107823877133908"><ele>73.0</ele><time>2026-03-22T16:24:46Z</time></trkpt><trkpt lat="47.248948881276476" lon="-0.12109230774307594"><ele>72.83333333333333</ele><time>2026-03-22T16:24:48Z</time></trkpt><trkpt lat="47.248879124786306" lon="-0.12125488984325429"><ele>72.66666666666666</ele><time>2026-03-22T16:24:50Z</time></trkpt><trkpt lat="47.248850378168164" lon="-0.12134852470953965"><ele>72.5</ele><time>2026-03-22T16:24:51Z</time></trkpt><trkpt lat="47.24882201245912" lon="-0.12146238777209199"><ele>72.33333333333333</ele><time>2026-03-22T16:24:52Z</time></trkpt><trkpt lat="47.24878214397935" lon="-0.12157282927233794"><ele>72.16666666666667</ele><time>2026-03-22T16:24:53Z</time></trkpt><trkpt lat="47.248735325615044" lon="-0.12164930726839615"><ele>72.0</ele><time>2026-03-22T16:24:54Z</time></trkpt><trkpt lat="47.24864121827044" lon="-0.12180965980462066"><ele>72.0</ele><time>2026-03-22T16:24:56Z</time></trkpt><trkpt lat="47.248598421656595" lon="-0.12189174944998159"><ele>72.0</ele><time>2026-03-22T16:24:57Z</time></trkpt><trkpt lat="47.24856198103206" lon="-0.1219750116919367"><ele>72.0</ele><time>2026-03-22T16:24:58Z</time></trkpt><trkpt lat="47.24853509911923" lon="-0.12215522226531261"><ele>72.0</ele><time>2026-03-22T16:25:00Z</time></trkpt><trkpt lat="47.248525959433145" lon="-0.12238903950223344"><ele>72.0</ele><time>2026-03-22T16:25:02Z</time></trkpt><trkpt lat="47.24852928688916" lon="-0.12253696215180897"><ele>72.0</ele><time>2026-03-22T16:25:03Z</time></trkpt><trkpt lat="47.2485415988376" lon="-0.12267163720903197"><ele>72.0</ele><time>2026-03-22T16:25:04Z</time></trkpt><trkpt lat="47.24855358882505" lon="-0.12278079205222958"><ele>72.0</ele><time>2026-03-22T16:25:05Z</time></trkpt><trkpt lat="47.24856595026033" lon="-0.12288751108222226"><ele>72.0</ele><time>2026-03-22T16:25:06Z</time></trkpt><trkpt lat="47.248582470829625" lon="-0.12300064870602782"><ele>72.0</ele><time>2026-03-22T16:25:07Z</time></trkpt><trkpt lat="47.24859266286895" lon="-0.12310196850096405"><ele>72.0</ele><time>2026-03-22T16:25:08Z</time></trkpt><trkpt lat="47.24860321082952" lon="-0.12319953906011699"><ele>71.83333333333333</ele><time>2026-03-22T16:25:09Z</time></trkpt><trkpt lat="47.248628155327985" lon="-0.12337542981065697"><ele>71.66666666666667</ele><time>2026-03-22T16:25:11Z</time></trkpt><trkpt lat="47.24864547257368" lon="-0.1234933964785664"><ele>71.5</ele><time>2026-03-22T16:25:13Z</time></trkpt><trkpt lat="47.24865629515392" lon="-0.12359126991765375"><ele>71.33333333333334</ele><time>2026-03-22T16:25:18Z</time></trkpt><trkpt lat="47.24864711163697" lon="-0.1236979490265199"><ele>71.16666666666667</ele><time>2026-03-22T16:25:29Z</time></trkpt><trkpt lat="47.24864343419643" lon="-0.12380890067263069"><ele>71.0</ele><time>2026-03-22T16:25:31Z</time></trkpt><trkpt lat="47.24861782604958" lon="-0.12394481759723652"><ele>70.8</ele><time>2026-03-22T16:25:33Z</time></trkpt><trkpt lat="47.248563047619186" lon="-0.1240770903142669"><ele>70.6</ele><time>2026-03-22T16:25:35Z</time></trkpt><trkpt lat="47.248497046873865" lon="-0.12416496026268752"><ele>70.4</ele><time>2026-03-22T16:25:37Z</time></trkpt><trkpt lat="47.248418891322544" lon="-0.12419856501740545"><ele>70.2</ele><time>2026-03-22T16:25:39Z</time></trkpt><trkpt lat="47.248296815178406" lon="-0.124186764817044"><ele>70.0</ele><time>2026-03-22T16:25:41Z</time></trkpt><trkpt lat="47.24821915194441" lon="-0.12422705010129005"><ele>70.0</ele><time>2026-03-22T16:25:42Z</time></trkpt><trkpt lat="47.24814801153164" lon="-0.1242638163424594"><ele>70.0</ele><time>2026-03-22T16:25:43Z</time></trkpt><trkpt lat="47.2480708254174" lon="-0.12428396064715001"><ele>70.0</ele><time>2026-03-22T16:25:44Z</time></trkpt><trkpt lat="47.247993305135594" lon="-0.12431114696934988"><ele>70.0</ele><time>2026-03-22T16:25:45.001Z</time></trkpt><trkpt lat="47.24789881432782" lon="-0.12434602154005325"><ele>70.0</ele><time>2026-03-22T16:25:46.001Z</time></trkpt><trkpt lat="47.24778525440412" lon="-0.12437855151350616"><ele>70.0</ele><time>2026-03-22T16:25:47.001Z</time></trkpt><trkpt lat="47.24767981220192" lon="-0.12440800879676482"><ele>69.83333333333333</ele><time>2026-03-22T16:25:48.001Z</time></trkpt><trkpt lat="47.24759141310442" lon="-0.12445251692457675"><ele>69.66666666666666</ele><time>2026-03-22T16:25:49.001Z</time></trkpt><trkpt lat="47.247522795182746" lon="-0.1245126977149159"><ele>69.5</ele><time>2026-03-22T16:25:50.001Z</time></trkpt><trkpt lat="47.24743790810294" lon="-0.12460321908968576"><ele>69.33333333333333</ele><time>2026-03-22T16:25:52.001Z</time></trkpt><trkpt lat="47.24738634177849" lon="-0.12470426239366374"><ele>69.16666666666667</ele><time>2026-03-22T16:25:54.001Z</time></trkpt><trkpt lat="47.247369215304154" lon="-0.12479356966925745"><ele>69.0</ele><time>2026-03-22T16:25:55.001Z</time></trkpt><trkpt lat="47.24736545939606" lon="-0.1249261253197827"><ele>68.5</ele><time>2026-03-22T16:25:56.001Z</time></trkpt><trkpt lat="47.24735584923741" lon="-0.12505050844650553"><ele>68.0</ele><time>2026-03-22T16:25:57.001Z</time></trkpt><trkpt lat="47.24738332003195" lon="-0.12520246984829184"><ele>67.5</ele><time>2026-03-22T16:25:59.001Z</time></trkpt><trkpt lat="47.247432994659135" lon="-0.12531915507582467"><ele>67.0</ele><time>2026-03-22T16:26:01.001Z</time></trkpt><trkpt lat="47.2474935340326" lon="-0.1253569964557344"><ele>66.5</ele><time>2026-03-22T16:26:02.001Z</time></trkpt><trkpt lat="47.24756655718236" lon="-0.12540894835060856"><ele>66.0</ele><time>2026-03-22T16:26:03.001Z</time></trkpt><trkpt lat="47.247637811712025" lon="-0.1254930330754826"><ele>66.0</ele><time>2026-03-22T16:26:04.001Z</time></trkpt><trkpt lat="47.247711510060526" lon="-0.12562061329235638"><ele>66.0</ele><time>2026-03-22T16:26:05.001Z</time></trkpt><trkpt lat="47.24776358810899" lon="-0.12574701876270072"><ele>66.0</ele><time>2026-03-22T16:26:06.001Z</time></trkpt><trkpt lat="47.24782183835863" lon="-0.12586679024306316"><ele>66.0</ele><time>2026-03-22T16:26:07.001Z</time></trkpt><trkpt lat="47.24787117884882" lon="-0.12595338751338045"><ele>66.0</ele><time>2026-03-22T16:26:08.001Z</time></trkpt><trkpt lat="47.24792022579766" lon="-0.12601792477025978"><ele>66.0</ele><time>2026-03-22T16:26:09.001Z</time></trkpt><trkpt lat="47.24798771004906" lon="-0.12614576125428237"><ele>66.0</ele><time>2026-03-22T16:26:11.001Z</time></trkpt><trkpt lat="47.24799121745229" lon="-0.12631160744265063"><ele>66.0</ele><time>2026-03-22T16:26:13.001Z</time></trkpt><trkpt lat="47.248017829459776" lon="-0.126409017294004"><ele>66.0</ele><time>2026-03-22T16:26:14.001Z</time></trkpt><trkpt lat="47.24806073488847" lon="-0.1264926075328309"><ele>66.0</ele><time>2026-03-22T16:26:15.001Z</time></trkpt><trkpt lat="47.24811321496477" lon="-0.1265630318137779"><ele>66.0</ele><time>2026-03-22T16:26:16Z</time></trkpt><trkpt lat="47.24816201874107" lon="-0.12662426210335823"><ele>67.0</ele><time>2026-03-22T16:26:17Z</time></trkpt><trkpt lat="47.24820144635901" lon="-0.126728756297203"><ele>68.0</ele><time>2026-03-22T16:26:18Z</time></trkpt><trkpt lat="47.24823208343117" lon="-0.12682799808537001"><ele>69.0</ele><time>2026-03-22T16:26:19Z</time></trkpt><trkpt lat="47.2482962723145" lon="-0.1270213462447507"><ele>70.0</ele><time>2026-03-22T16:26:21Z</time></trkpt><trkpt lat="47.248324305365365" lon="-0.12711833956387236"><ele>71.0</ele><time>2026-03-22T16:26:22Z</time></trkpt><trkpt lat="47.24833095825736" lon="-0.1272173559426715"><ele>72.0</ele><time>2026-03-22T16:26:23Z</time></trkpt><trkpt lat="47.24832002353547" lon="-0.12731440624334192"><ele>72.00000000000001</ele><time>2026-03-22T16:26:24Z</time></trkpt><trkpt lat="47.24830892441485" lon="-0.12741227134952138"><ele>72.0</ele><time>2026-03-22T16:26:25Z</time></trkpt><trkpt lat="47.248304045849025" lon="-0.12752630244834795"><ele>72.0</ele><time>2026-03-22T16:26:26Z</time></trkpt><trkpt lat="47.24831894033913" lon="-0.1276312816042567"><ele>72.0</ele><time>2026-03-22T16:26:27Z</time></trkpt><trkpt lat="47.248336519746836" lon="-0.12772864838874315"><ele>72.0</ele><time>2026-03-22T16:26:28Z</time></trkpt><trkpt lat="47.24836561738224" lon="-0.12783330976166848"><ele>72.00000000000001</ele><time>2026-03-22T16:26:29Z</time></trkpt><trkpt lat="47.24839812035567" lon="-0.12794317271804095"><ele>72.0</ele><time>2026-03-22T16:26:30Z</time></trkpt><trkpt lat="47.24843083059613" lon="-0.12803943117259667"><ele>72.0</ele><time>2026-03-22T16:26:31Z</time></trkpt><trkpt lat="47.248452390249405" lon="-0.128152984512509"><ele>72.0</ele><time>2026-03-22T16:26:32Z</time></trkpt><trkpt lat="47.24846326541247" lon="-0.1282542503595928"><ele>72.0</ele><time>2026-03-22T16:26:33Z</time></trkpt><trkpt lat="47.24852136414911" lon="-0.12839478662803122"><ele>72.0</ele><time>2026-03-22T16:26:35Z</time></trkpt><trkpt lat="47.2486104890196" lon="-0.12850237244372115"><ele>72.0</ele><time>2026-03-22T16:26:37Z</time></trkpt><trkpt lat="47.24866621737552" lon="-0.12861639951139586"><ele>72.0</ele><time>2026-03-22T16:26:39Z</time></trkpt><trkpt lat="47.248751105462375" lon="-0.12863119916268237"><ele>72.0</ele><time>2026-03-22T16:26:41Z</time></trkpt><trkpt lat="47.2488378631199" lon="-0.12851383590798401"><ele>72.0</ele><time>2026-03-22T16:26:43Z</time></trkpt><trkpt lat="47.24885990302407" lon="-0.12840914362412353"><ele>72.0</ele><time>2026-03-22T16:26:44Z</time></trkpt><trkpt lat="47.24886869360765" lon="-0.12830603795914453"><ele>72.0</ele><time>2026-03-22T16:26:45Z</time></trkpt><trkpt lat="47.248882307722255" lon="-0.12817784364981935"><ele>72.0</ele><time>2026-03-22T16:26:46Z</time></trkpt><trkpt lat="47.24889137536096" lon="-0.1280402511655698"><ele>72.0</ele><time>2026-03-22T16:26:47Z</time></trkpt><trkpt lat="47.24890448483246" lon="-0.127894611044261"><ele>72.0</ele><time>2026-03-22T16:26:48Z</time></trkpt><trkpt lat="47.24893030093985" lon="-0.12772095829524044"><ele>72.0</ele><time>2026-03-22T16:26:49Z</time></trkpt><trkpt lat="47.24896103713259" lon="-0.1275328106193412"><ele>72.0</ele><time>2026-03-22T16:26:50Z</time></trkpt><trkpt lat="47.248995333082945" lon="-0.12735195214890066"><ele>72.83333333333333</ele><time>2026-03-22T16:26:51Z</time></trkpt><trkpt lat="47.24901836025983" lon="-0.12722527301335912"><ele>73.66666666666667</ele><time>2026-03-22T16:26:52Z</time></trkpt><trkpt lat="47.249043681496495" lon="-0.1271153470994374"><ele>74.5</ele><time>2026-03-22T16:26:53Z</time></trkpt><trkpt lat="47.249076854692376" lon="-0.12701946520988314"><ele>75.33333333333334</ele><time>2026-03-22T16:26:54Z</time></trkpt><trkpt lat="47.24910644337108" lon="-0.12693691916212904"><ele>76.16666666666667</ele><time>2026-03-22T16:26:55Z</time></trkpt><trkpt lat="47.24914505390286" lon="-0.12683205965628028"><ele>77.0</ele><time>2026-03-22T16:26:56Z</time></trkpt><trkpt lat="47.24916952704033" lon="-0.12669507215226486"><ele>77.0</ele><time>2026-03-22T16:26:57Z</time></trkpt><trkpt lat="47.2491773565526" lon="-0.1265944684111801"><ele>77.0</ele><time>2026-03-22T16:26:58Z</time></trkpt><trkpt lat="47.24914407314557" lon="-0.1264873910047279"><ele>77.0</ele><time>2026-03-22T16:27:00Z</time></trkpt><trkpt lat="47.24908128940197" lon="-0.1264021801694572"><ele>77.0</ele><time>2026-03-22T16:27:02Z</time></trkpt><trkpt lat="47.24902917122814" lon="-0.126305150975094"><ele>77.0</ele><time>2026-03-22T16:27:04Z</time></trkpt><trkpt lat="47.24900710462007" lon="-0.12618486730799044"><ele>77.0</ele><time>2026-03-22T16:27:06Z</time></trkpt><trkpt lat="47.24896671732261" lon="-0.1260415238533054"><ele>76.0</ele><time>2026-03-22T16:27:08Z</time></trkpt><trkpt lat="47.248913534142126" lon="-0.1258795455030309"><ele>75.0</ele><time>2026-03-22T16:27:10Z</time></trkpt><trkpt lat="47.24887826442366" lon="-0.1257813932066103"><ele>74.0</ele><time>2026-03-22T16:27:11Z</time></trkpt><trkpt lat="47.248842157255964" lon="-0.1256700078842064"><ele>73.0</ele><time>2026-03-22T16:27:12Z</time></trkpt><trkpt lat="47.248801376557275" lon="-0.12553174568805817"><ele>72.0</ele><time>2026-03-22T16:27:13Z</time></trkpt><trkpt lat="47.24876628119838" lon="-0.12538610812781906"><ele>71.66666666666667</ele><time>2026-03-22T16:27:14Z</time></trkpt><trkpt lat="47.24872401148588" lon="-0.12525189129389977"><ele>71.33333333333333</ele><time>2026-03-22T16:27:15Z</time></trkpt><trkpt lat="47.24868725045446" lon="-0.12515755075392812"><ele>71.0</ele><time>2026-03-22T16:27:16Z</time></trkpt><trkpt lat="47.248647154573746" lon="-0.12507814507614282"><ele>70.66666666666666</ele><time>2026-03-22T16:27:17Z</time></trkpt><trkpt lat="47.24861347680971" lon="-0.1249947744834151"><ele>70.33333333333333</ele><time>2026-03-22T16:27:18Z</time></trkpt><trkpt lat="47.248583229791684" lon="-0.12488741808013035"><ele>70.0</ele><time>2026-03-22T16:27:19Z</time></trkpt><trkpt lat="47.248574249130584" lon="-0.12476546591062194"><ele>70.0</ele><time>2026-03-22T16:27:20Z</time></trkpt><trkpt lat="47.24855878019308" lon="-0.12460893225061231"><ele>70.0</ele><time>2026-03-22T16:27:21Z</time></trkpt><trkpt lat="47.24853564990162" lon="-0.12449505700639985"><ele>70.0</ele><time>2026-03-22T16:27:22Z</time></trkpt><trkpt lat="47.248517483899136" lon="-0.1243887141527607"><ele>70.0</ele><time>2026-03-22T16:27:23Z</time></trkpt><trkpt lat="47.248498613558276" lon="-0.12426681485886584"><ele>70.0</ele><time>2026-03-22T16:27:25Z</time></trkpt><trkpt lat="47.24841613493382" lon="-0.1241896540951061"><ele>70.0</ele><time>2026-03-22T16:27:28Z</time></trkpt><trkpt lat="47.2482932948636" lon="-0.12423214452254923"><ele>70.0</ele><time>2026-03-22T16:27:30Z</time></trkpt><trkpt lat="47.24820023898623" lon="-0.12428915456564381"><ele>70.0</ele><time>2026-03-22T16:27:31Z</time></trkpt><trkpt lat="47.248108590097104" lon="-0.12432000822534353"><ele>70.0</ele><time>2026-03-22T16:27:32Z</time></trkpt><trkpt lat="47.248003527873664" lon="-0.12433648449084944"><ele>70.0</ele><time>2026-03-22T16:27:33Z</time></trkpt><trkpt lat="47.24789567782566" lon="-0.1243576427135824"><ele>70.0</ele><time>2026-03-22T16:27:34Z</time></trkpt><trkpt lat="47.24777589721599" lon="-0.12439245814989615"><ele>69.83333333333333</ele><time>2026-03-22T16:27:35Z</time></trkpt><trkpt lat="47.247682295487145" lon="-0.12442978355673398"><ele>69.66666666666666</ele><time>2026-03-22T16:27:36Z</time></trkpt><trkpt lat="47.24759692272687" lon="-0.12447062627851968"><ele>69.5</ele><time>2026-03-22T16:27:37Z</time></trkpt><trkpt lat="47.247537041896436" lon="-0.12451987090349736"><ele>69.33333333333333</ele><time>2026-03-22T16:27:38Z</time></trkpt><trkpt lat="47.24748612942848" lon="-0.12458779073242512"><ele>69.16666666666667</ele><time>2026-03-22T16:27:39Z</time></trkpt><trkpt lat="47.247390459925214" lon="-0.1246939570061607"><ele>69.0</ele><time>2026-03-22T16:27:41Z</time></trkpt><trkpt lat="47.24732379756046" lon="-0.12474315637501156"><ele>69.0</ele><time>2026-03-22T16:27:42Z</time></trkpt><trkpt lat="47.24722779786228" lon="-0.12477724597236885"><ele>69.0</ele><time>2026-03-22T16:27:43Z</time></trkpt><trkpt lat="47.24714992300683" lon="-0.12478873744812786"><ele>69.0</ele><time>2026-03-22T16:27:44Z</time></trkpt><trkpt lat="47.2470789012552" lon="-0.12477496682931112"><ele>69.0</ele><time>2026-03-22T16:27:45Z</time></trkpt><trkpt lat="47.24699459454395" lon="-0.12474574667177372"><ele>69.0</ele><time>2026-03-22T16:27:46Z</time></trkpt><trkpt lat="47.24691015616463" lon="-0.1247116961092868"><ele>69.0</ele><time>2026-03-22T16:27:47Z</time></trkpt><trkpt lat="47.24682002433207" lon="-0.12466979108471954"><ele>69.0</ele><time>2026-03-22T16:27:48Z</time></trkpt><trkpt lat="47.246734625864214" lon="-0.1246057012178786"><ele>69.0</ele><time>2026-03-22T16:27:49Z</time></trkpt><trkpt lat="47.24665933522117" lon="-0.12454926112946162"><ele>69.0</ele><time>2026-03-22T16:27:50Z</time></trkpt><trkpt lat="47.24656598157906" lon="-0.12447419857514028"><ele>69.0</ele><time>2026-03-22T16:27:51.001Z</time></trkpt><trkpt lat="47.24647196271435" lon="-0.12439539516542812"><ele>69.0</ele><time>2026-03-22T16:27:52.001Z</time></trkpt><trkpt lat="47.24637154370193" lon="-0.12432364399885801"><ele>69.16666666666667</ele><time>2026-03-22T16:27:53.001Z</time></trkpt><trkpt lat="47.246272700646315" lon="-0.12426621883635562"><ele>69.33333333333333</ele><time>2026-03-22T16:27:54.001Z</time></trkpt><trkpt lat="47.24618774143594" lon="-0.12423395572106274"><ele>69.5</ele><time>2026-03-22T16:27:55.001Z</time></trkpt><trkpt lat="47.24611124786253" lon="-0.12421207626118128"><ele>69.66666666666666</ele><time>2026-03-22T16:27:56.001Z</time></trkpt><trkpt lat="47.246039064241806" lon="-0.12420752011551524"><ele>69.83333333333333</ele><time>2026-03-22T16:27:57.001Z</time></trkpt><trkpt lat="47.24596260445195" lon="-0.12422806547544687"><ele>70.0</ele><time>2026-03-22T16:27:58.001Z</time></trkpt><trkpt lat="47.24589158493063" lon="-0.12428493822341573"><ele>70.0</ele><time>2026-03-22T16:27:59.001Z</time></trkpt><trkpt lat="47.24581121288082" lon="-0.12437171825389347"><ele>70.0</ele><time>2026-03-22T16:28:00.001Z</time></trkpt><trkpt lat="47.24573294436812" lon="-0.12443969946903573"><ele>70.0</ele><time>2026-03-22T16:28:01.001Z</time></trkpt><trkpt lat="47.24566288925903" lon="-0.12446731843699288"><ele>70.0</ele><time>2026-03-22T16:28:02.001Z</time></trkpt><trkpt lat="47.24557149315729" lon="-0.12447897017209211"><ele>70.0</ele><time>2026-03-22T16:28:03.001Z</time></trkpt><trkpt lat="47.2454713306868" lon="-0.12448907539814053"><ele>70.2</ele><time>2026-03-22T16:28:04.001Z</time></trkpt><trkpt lat="47.245371363212584" lon="-0.12448511543276354"><ele>70.4</ele><time>2026-03-22T16:28:05.001Z</time></trkpt><trkpt lat="47.24527917192265" lon="-0.12446679447272131"><ele>70.6</ele><time>2026-03-22T16:28:06.001Z</time></trkpt><trkpt lat="47.245211077476554" lon="-0.12444583585374726"><ele>70.8</ele><time>2026-03-22T16:28:07.001Z</time></trkpt><trkpt lat="47.24509413222069" lon="-0.12439566975411259"><ele>71.0</ele><time>2026-03-22T16:28:09.001Z</time></trkpt><trkpt lat="47.24500998460099" lon="-0.12424852287335293"><ele>71.0</ele><time>2026-03-22T16:28:11.001Z</time></trkpt><trkpt lat="47.24497763986865" lon="-0.12414647526282217"><ele>71.0</ele><time>2026-03-22T16:28:12.001Z</time></trkpt><trkpt lat="47.2449518977875" lon="-0.12404858668228903"><ele>71.0</ele><time>2026-03-22T16:28:13.001Z</time></trkpt><trkpt lat="47.244942950664694" lon="-0.12389454665096063"><ele>71.0</ele><time>2026-03-22T16:28:15Z</time></trkpt><trkpt lat="47.2449223287282" lon="-0.12379289107524889"><ele>71.0</ele><time>2026-03-22T16:28:18Z</time></trkpt><trkpt lat="47.24487095469959" lon="-0.12366826624583685"><ele>71.0</ele><time>2026-03-22T16:28:21Z</time></trkpt><trkpt lat="47.24482078140798" lon="-0.12353293292278499"><ele>69.6</ele><time>2026-03-22T16:28:23Z</time></trkpt><trkpt lat="47.24477414117874" lon="-0.12343472957964577"><ele>68.19999999999999</ele><time>2026-03-22T16:28:25Z</time></trkpt><trkpt lat="47.244749870459536" lon="-0.12332037618394916"><ele>66.80000000000001</ele><time>2026-03-22T16:28:27Z</time></trkpt><trkpt lat="47.244745143933514" lon="-0.12318733414850828"><ele>65.4</ele><time>2026-03-22T16:28:29Z</time></trkpt><trkpt lat="47.244764292715445" lon="-0.12301297785503697"><ele>64.0</ele><time>2026-03-22T16:28:31Z</time></trkpt><trkpt lat="47.24478305185104" lon="-0.12285936139218129"><ele>62.800000000000004</ele><time>2026-03-22T16:28:33Z</time></trkpt><trkpt lat="47.24474233031519" lon="-0.12272768180648234"><ele>61.60000000000001</ele><time>2026-03-22T16:28:35Z</time></trkpt><trkpt lat="47.244689723720995" lon="-0.12266045673868149"><ele>60.4</ele><time>2026-03-22T16:28:36Z</time></trkpt><trkpt lat="47.24460909912711" lon="-0.12254239290722055"><ele>59.2</ele><time>2026-03-22T16:28:38Z</time></trkpt><trkpt lat="47.24450456839088" lon="-0.12243787853578814"><ele>58.0</ele><time>2026-03-22T16:28:40Z</time></trkpt><trkpt lat="47.24444358593167" lon="-0.12239596443357395"><ele>57.83333333333333</ele><time>2026-03-22T16:28:41Z</time></trkpt><trkpt lat="47.24437287255023" lon="-0.12233895570972511"><ele>57.666666666666664</ele><time>2026-03-22T16:28:42Z</time></trkpt><trkpt lat="47.24430236689689" lon="-0.12224810874469821"><ele>57.5</ele><time>2026-03-22T16:28:43Z</time></trkpt><trkpt lat="47.24423606179298" lon="-0.12215447393331157"><ele>57.33333333333333</ele><time>2026-03-22T16:28:44Z</time></trkpt><trkpt lat="47.24418244569438" lon="-0.12206952661656892"><ele>57.166666666666664</ele><time>2026-03-22T16:28:45Z</time></trkpt><trkpt lat="47.24413679287841" lon="-0.12193205612569494"><ele>57.0</ele><time>2026-03-22T16:28:47Z</time></trkpt><trkpt lat="47.244159260001624" lon="-0.12171247217059142"><ele>57.0</ele><time>2026-03-22T16:28:49Z</time></trkpt><trkpt lat="47.244154144084774" lon="-0.12160942795088148"><ele>57.0</ele><time>2026-03-22T16:28:50Z</time></trkpt><trkpt lat="47.244120571255756" lon="-0.12151409290943123"><ele>57.0</ele><time>2026-03-22T16:28:51Z</time></trkpt><trkpt lat="47.244067811495896" lon="-0.12143248799795887"><ele>57.0</ele><time>2026-03-22T16:28:52Z</time></trkpt><trkpt lat="47.24398114878424" lon="-0.12133111341730515"><ele>57.0</ele><time>2026-03-22T16:28:53Z</time></trkpt><trkpt lat="47.24388651072385" lon="-0.12118887985903787"><ele>57.2</ele><time>2026-03-22T16:28:54Z</time></trkpt><trkpt lat="47.24379625796326" lon="-0.12105140519286912"><ele>57.400000000000006</ele><time>2026-03-22T16:28:55Z</time></trkpt><trkpt lat="47.24371990644009" lon="-0.12094409661465798"><ele>57.599999999999994</ele><time>2026-03-22T16:28:56Z</time></trkpt><trkpt lat="47.243645670916926" lon="-0.12084762422490093"><ele>57.8</ele><time>2026-03-22T16:28:57Z</time></trkpt><trkpt lat="47.24357726574601" lon="-0.12076293326570026"><ele>58.0</ele><time>2026-03-22T16:28:58Z</time></trkpt><trkpt lat="47.24351938167172" lon="-0.12069762083062296"><ele>57.99999999999999</ele><time>2026-03-22T16:28:59Z</time></trkpt><trkpt lat="47.2434657301144" lon="-0.12061210154421567"><ele>58.0</ele><time>2026-03-22T16:29:00Z</time></trkpt><trkpt lat="47.24342289553837" lon="-0.12053687832731123"><ele>58.0</ele><time>2026-03-22T16:29:01Z</time></trkpt><trkpt lat="47.243383007147905" lon="-0.12045548252044937"><ele>58.0</ele><time>2026-03-22T16:29:02Z</time></trkpt><trkpt lat="47.243334907518054" lon="-0.12035574632172656"><ele>57.99999999999999</ele><time>2026-03-22T16:29:03Z</time></trkpt><trkpt lat="47.24329722992415" lon="-0.1202608107356909"><ele>58.0</ele><time>2026-03-22T16:29:04Z</time></trkpt><trkpt lat="47.24324200914822" lon="-0.12010854072198437"><ele>57.99999999999999</ele><time>2026-03-22T16:29:06Z</time></trkpt><trkpt lat="47.24314931919693" lon="-0.12004205477128592"><ele>58.0</ele><time>2026-03-22T16:29:08Z</time></trkpt><trkpt lat="47.2430703244223" lon="-0.11999175220206086"><ele>58.0</ele><time>2026-03-22T16:29:10Z</time></trkpt><trkpt lat="47.2430233404151" lon="-0.11992380429540522"><ele>58.0</ele><time>2026-03-22T16:29:12Z</time></trkpt><trkpt lat="47.243035154261236" lon="-0.11977707602940407"><ele>57.99999999999999</ele><time>2026-03-22T16:29:14Z</time></trkpt><trkpt lat="47.243065344322424" lon="-0.11969196520295992"><ele>58.0</ele><time>2026-03-22T16:29:15Z</time></trkpt><trkpt lat="47.243102231829354" lon="-0.11958128265385694"><ele>58.166666666666664</ele><time>2026-03-22T16:29:16Z</time></trkpt><trkpt lat="47.24313038918691" lon="-0.11947075916400944"><ele>58.33333333333333</ele><time>2026-03-22T16:29:17Z</time></trkpt><trkpt lat="47.243156206347805" lon="-0.11937951228537136"><ele>58.5</ele><time>2026-03-22T16:29:18Z</time></trkpt><trkpt lat="47.24323289306188" lon="-0.11927676223997641"><ele>58.66666666666667</ele><time>2026-03-22T16:29:21Z</time></trkpt><trkpt lat="47.243315388952276" lon="-0.11925549211530549"><ele>58.833333333333336</ele><time>2026-03-22T16:29:22.999Z</time></trkpt><trkpt lat="47.24339092875857" lon="-0.11927032329095719"><ele>59.0</ele><time>2026-03-22T16:29:24.999Z</time></trkpt><trkpt lat="47.243480891516406" lon="-0.11928339530669582"><ele>59.00000000000001</ele><time>2026-03-22T16:29:26.999Z</time></trkpt><trkpt lat="47.24356228632774" lon="-0.11929479323087887"><ele>59.0</ele><time>2026-03-22T16:29:28.999Z</time></trkpt><trkpt lat="47.24363959327494" lon="-0.1193158587618965"><ele>59.0</ele><time>2026-03-22T16:29:30.999Z</time></trkpt><trkpt lat="47.24370939961857" lon="-0.11932998938493417"><ele>59.0</ele><time>2026-03-22T16:29:32.999Z</time></trkpt><trkpt lat="47.24378551726575" lon="-0.11934185996733859"><ele>59.00000000000001</ele><time>2026-03-22T16:29:34.999Z</time></trkpt><trkpt lat="47.243870271555224" lon="-0.11934665780157036"><ele>59.0</ele><time>2026-03-22T16:29:36.999Z</time></trkpt><trkpt lat="47.243958334460466" lon="-0.11936528744146957"><ele>59.400000000000006</ele><time>2026-03-22T16:29:38.999Z</time></trkpt><trkpt lat="47.24408055612908" lon="-0.11938325789269198"><ele>59.800000000000004</ele><time>2026-03-22T16:29:40.999Z</time></trkpt><trkpt lat="47.24415429980006" lon="-0.11940330675763583"><ele>60.199999999999996</ele><time>2026-03-22T16:29:41.999Z</time></trkpt><trkpt lat="47.244247016096686" lon="-0.1194272643275003"><ele>60.599999999999994</ele><time>2026-03-22T16:29:43.999Z</time></trkpt><trkpt lat="47.24432683843873" lon="-0.11943167232231398"><ele>61.0</ele><time>2026-03-22T16:29:45.999Z</time></trkpt><trkpt lat="47.24440490857773" lon="-0.11944149639925498"><ele>60.99999999999999</ele><time>2026-03-22T16:29:48.999Z</time></trkpt><trkpt lat="47.244469031974" lon="-0.11944516416804023"><ele>61.0</ele><time>2026-03-22T16:29:52.999Z</time></trkpt><trkpt lat="47.24453795772784" lon="-0.11943888566954766"><ele>61.0</ele><time>2026-03-22T16:30:01.001Z</time></trkpt><trkpt lat="47.24464699531911" lon="-0.11944024877793397"><ele>61.0</ele><time>2026-03-22T16:30:03.001Z</time></trkpt><trkpt lat="47.24471239163167" lon="-0.11943928605165677"><ele>60.99999999999999</ele><time>2026-03-22T16:30:04.001Z</time></trkpt><trkpt lat="47.2447774545935" lon="-0.11943520258845074"><ele>61.0</ele><time>2026-03-22T16:30:05.001Z</time></trkpt><trkpt lat="47.2448574346827" lon="-0.11945414245613033"><ele>60.599999999999994</ele><time>2026-03-22T16:30:06.001Z</time></trkpt><trkpt lat="47.24496883138213" lon="-0.11947774603706703"><ele>60.199999999999996</ele><time>2026-03-22T16:30:07.001Z</time></trkpt><trkpt lat="47.245091980957504" lon="-0.11948799344304688"><ele>59.800000000000004</ele><time>2026-03-22T16:30:08.001Z</time></trkpt><trkpt lat="47.2451984220241" lon="-0.1194688413321174"><ele>59.400000000000006</ele><time>2026-03-22T16:30:09.001Z</time></trkpt><trkpt lat="47.24528013592563" lon="-0.11947272429107283"><ele>59.0</ele><time>2026-03-22T16:30:10.001Z</time></trkpt><trkpt lat="47.24534581710247" lon="-0.11948925414473584"><ele>59.0</ele><time>2026-03-22T16:30:11Z</time></trkpt><trkpt lat="47.2454286138115" lon="-0.11952296171904374"><ele>59.00000000000001</ele><time>2026-03-22T16:30:12Z</time></trkpt><trkpt lat="47.2455265806308" lon="-0.119555682595968"><ele>59.00000000000001</ele><time>2026-03-22T16:30:13Z</time></trkpt><trkpt lat="47.24564790995518" lon="-0.11956359048074774"><ele>59.0</ele><time>2026-03-22T16:30:14Z</time></trkpt><trkpt lat="47.245782673692595" lon="-0.1195484906745508"><ele>59.0</ele><time>2026-03-22T16:30:15Z</time></trkpt><trkpt lat="47.24591140250828" lon="-0.119525942226822"><ele>59.50000000000001</ele><time>2026-03-22T16:30:16Z</time></trkpt><trkpt lat="47.24598335640803" lon="-0.11954315022757321"><ele>60.0</ele><time>2026-03-22T16:30:17Z</time></trkpt><trkpt lat="47.24606487808131" lon="-0.11955887679529338"><ele>60.5</ele><time>2026-03-22T16:30:18Z</time></trkpt><trkpt lat="47.24616133840214" lon="-0.11957401979050013"><ele>61.0</ele><time>2026-03-22T16:30:19Z</time></trkpt><trkpt lat="47.24624888676692" lon="-0.11957724303945644"><ele>61.50000000000001</ele><time>2026-03-22T16:30:20Z</time></trkpt><trkpt lat="47.24634313529514" lon="-0.1195744787544079"><ele>62.0</ele><time>2026-03-22T16:30:21Z</time></trkpt><trkpt lat="47.246424749694775" lon="-0.11955082465321169"><ele>62.833333333333336</ele><time>2026-03-22T16:30:22Z</time></trkpt><trkpt lat="47.24649767486084" lon="-0.11954266393184274"><ele>63.66666666666667</ele><time>2026-03-22T16:30:23Z</time></trkpt><trkpt lat="47.246578941619475" lon="-0.11953963476821246"><ele>64.5</ele><time>2026-03-22T16:30:24Z</time></trkpt><trkpt lat="47.2466682135042" lon="-0.11955731349680047"><ele>65.33333333333333</ele><time>2026-03-22T16:30:26Z</time></trkpt><trkpt lat="47.24678155153872" lon="-0.11954016804514274"><ele>66.16666666666666</ele><time>2026-03-22T16:30:28Z</time></trkpt><trkpt lat="47.24686918481065" lon="-0.11953686040112359"><ele>67.0</ele><time>2026-03-22T16:30:29Z</time></trkpt><trkpt lat="47.24697202682059" lon="-0.11952640961175387"><ele>67.0</ele><time>2026-03-22T16:30:30Z</time></trkpt><trkpt lat="47.24707089237821" lon="-0.11952195752131936"><ele>67.0</ele><time>2026-03-22T16:30:31Z</time></trkpt><trkpt lat="47.24718161541504" lon="-0.1195099360211836"><ele>67.0</ele><time>2026-03-22T16:30:32Z</time></trkpt><trkpt lat="47.24726219256284" lon="-0.11949334863585845"><ele>67.0</ele><time>2026-03-22T16:30:33Z</time></trkpt><trkpt lat="47.247330218992886" lon="-0.11949078508694407"><ele>67.0</ele><time>2026-03-22T16:30:34Z</time></trkpt><trkpt lat="47.24739760457404" lon="-0.11951988780425549"><ele>67.0</ele><time>2026-03-22T16:30:36Z</time></trkpt><trkpt lat="47.24748097520575" lon="-0.11954280242477912"><ele>67.5</ele><time>2026-03-22T16:30:38Z</time></trkpt><trkpt lat="47.24757758778254" lon="-0.1194786692360625"><ele>68.0</ele><time>2026-03-22T16:30:40Z</time></trkpt><trkpt lat="47.24762738010525" lon="-0.11942014916788224"><ele>68.5</ele><time>2026-03-22T16:30:41Z</time></trkpt><trkpt lat="47.24770937175519" lon="-0.11937852096685364"><ele>69.0</ele><time>2026-03-22T16:30:43Z</time></trkpt><trkpt lat="47.24781526979325" lon="-0.11936037444257094"><ele>69.5</ele><time>2026-03-22T16:30:45Z</time></trkpt><trkpt lat="47.24788339817039" lon="-0.11935836728304032"><ele>70.0</ele><time>2026-03-22T16:30:46Z</time></trkpt><trkpt lat="47.24796666728505" lon="-0.11937537896091187"><ele>70.0</ele><time>2026-03-22T16:30:47Z</time></trkpt><trkpt lat="47.24807678681593" lon="-0.11939736686479388"><ele>70.0</ele><time>2026-03-22T16:30:48Z</time></trkpt><trkpt lat="47.24819048249483" lon="-0.11942272549580574"><ele>70.0</ele><time>2026-03-22T16:30:49Z</time></trkpt><trkpt lat="47.24828444193918" lon="-0.11944402768376343"><ele>70.0</ele><time>2026-03-22T16:30:50Z</time></trkpt><trkpt lat="47.24834935321424" lon="-0.1194690952028693"><ele>70.0</ele><time>2026-03-22T16:30:51Z</time></trkpt><trkpt lat="47.24841638289892" lon="-0.11947451251777141"><ele>70.6</ele><time>2026-03-22T16:30:53Z</time></trkpt><trkpt lat="47.248487151943884" lon="-0.11947670391343085"><ele>71.2</ele><time>2026-03-22T16:30:55Z</time></trkpt><trkpt lat="47.24856486245025" lon="-0.11938603244255341"><ele>71.8</ele><time>2026-03-22T16:30:57Z</time></trkpt><trkpt lat="47.24860814087946" lon="-0.11929647230223583"><ele>72.4</ele><time>2026-03-22T16:30:58Z</time></trkpt><trkpt lat="47.24864957230397" lon="-0.11916103349882833"><ele>73.0</ele><time>2026-03-22T16:30:59Z</time></trkpt><trkpt lat="47.24869827343233" lon="-0.11902183064741008"><ele>73.33333333333333</ele><time>2026-03-22T16:31:00Z</time></trkpt><trkpt lat="47.248739522160655" lon="-0.11892024735789482"><ele>73.66666666666666</ele><time>2026-03-22T16:31:01Z</time></trkpt><trkpt lat="47.24878027965407" lon="-0.1188427600232688"><ele>74.0</ele><time>2026-03-22T16:31:02Z</time></trkpt><trkpt lat="47.24882387638697" lon="-0.11875292481349396"><ele>74.33333333333333</ele><time>2026-03-22T16:31:04Z</time></trkpt><trkpt lat="47.248799546391" lon="-0.11885541804057238"><ele>74.66666666666667</ele><time>2026-03-22T16:31:10.999Z</time></trkpt><trkpt lat="47.248723319355506" lon="-0.11897731415292315"><ele>75.0</ele><time>2026-03-22T16:31:12.999Z</time></trkpt><trkpt lat="47.24868363511371" lon="-0.11906090396471283"><ele>74.6</ele><time>2026-03-22T16:31:13.999Z</time></trkpt><trkpt lat="47.24865025582936" lon="-0.11916315266522791"><ele>74.2</ele><time>2026-03-22T16:31:14.999Z</time></trkpt><trkpt lat="47.24860937822467" lon="-0.11927566807235711"><ele>73.8</ele><time>2026-03-22T16:31:15.999Z</time></trkpt><trkpt lat="47.24856624098904" lon="-0.1193944666814033"><ele>73.4</ele><time>2026-03-22T16:31:16.999Z</time></trkpt><trkpt lat="47.248513695183085" lon="-0.11952243498219108"><ele>73.0</ele><time>2026-03-22T16:31:17.999Z</time></trkpt><trkpt lat="47.24846338125724" lon="-0.11966010979141135"><ele>73.0</ele><time>2026-03-22T16:31:18.999Z</time></trkpt><trkpt lat="47.24842289447542" lon="-0.11980960281699789"><ele>73.0</ele><time>2026-03-22T16:31:19.999Z</time></trkpt><trkpt lat="47.24839088499617" lon="-0.1199713242726644"><ele>73.0</ele><time>2026-03-22T16:31:20.999Z</time></trkpt><trkpt lat="47.2483543848004" lon="-0.12016367142232254"><ele>73.0</ele><time>2026-03-22T16:31:21.999Z</time></trkpt><trkpt lat="47.24831197013955" lon="-0.12035248534523435"><ele>73.25</ele><time>2026-03-22T16:31:22.999Z</time></trkpt><trkpt lat="47.24827110538366" lon="-0.1205641279360537"><ele>73.5</ele><time>2026-03-22T16:31:23.999Z</time></trkpt><trkpt lat="47.2482297738682" lon="-0.1207747723867407"><ele>73.75</ele><time>2026-03-22T16:31:24.999Z</time></trkpt><trkpt lat="47.24821926143837" lon="-0.12095290348593579"><ele>74.0</ele><time>2026-03-22T16:31:25.999Z</time></trkpt><trkpt lat="47.24818533556916" lon="-0.12114573673415244"><ele>74.5</ele><time>2026-03-22T16:31:26.999Z</time></trkpt><trkpt lat="47.24812939114472" lon="-0.12132456675432012"><ele>75.0</ele><time>2026-03-22T16:31:27.999Z</time></trkpt><trkpt lat="47.248073412855206" lon="-0.12148798791045139"><ele>75.5</ele><time>2026-03-22T16:31:28.999Z</time></trkpt><trkpt lat="47.24802498187477" lon="-0.12164606130806593"><ele>76.0</ele><time>2026-03-22T16:31:29.999Z</time></trkpt><trkpt lat="47.24797830184048" lon="-0.12180023490738894"><ele>76.0</ele><time>2026-03-22T16:31:30.999Z</time></trkpt><trkpt lat="47.247924084793006" lon="-0.12198939725359854"><ele>76.0</ele><time>2026-03-22T16:31:31.999Z</time></trkpt><trkpt lat="47.247876547917826" lon="-0.12218211185682455"><ele>76.0</ele><time>2026-03-22T16:31:32.999Z</time></trkpt><trkpt lat="47.24783895240887" lon="-0.1223666468257705"><ele>76.0</ele><time>2026-03-22T16:31:33.999Z</time></trkpt><trkpt lat="47.2478097814416" lon="-0.12252553716891101"><ele>75.2</ele><time>2026-03-22T16:31:34.999Z</time></trkpt><trkpt lat="47.24778588465463" lon="-0.1226864074835981"><ele>74.39999999999999</ele><time>2026-03-22T16:31:35.999Z</time></trkpt><trkpt lat="47.247765949588334" lon="-0.12285340819994969"><ele>73.6</ele><time>2026-03-22T16:31:36.999Z</time></trkpt><trkpt lat="47.24774708514747" lon="-0.12301790340890786"><ele>72.8</ele><time>2026-03-22T16:31:37.999Z</time></trkpt><trkpt lat="47.247726029171005" lon="-0.1231616764469428"><ele>72.0</ele><time>2026-03-22T16:31:38.999Z</time></trkpt><trkpt lat="47.24770387383387" lon="-0.12331192342175464"><ele>72.0</ele><time>2026-03-22T16:31:39.999Z</time></trkpt><trkpt lat="47.24768150415481" lon="-0.1234747298591929"><ele>72.0</ele><time>2026-03-22T16:31:40.999Z</time></trkpt><trkpt lat="47.24765226541754" lon="-0.12362583939034526"><ele>72.0</ele><time>2026-03-22T16:31:41.999Z</time></trkpt><trkpt lat="47.247611546939375" lon="-0.12378717927640483"><ele>72.0</ele><time>2026-03-22T16:31:42.999Z</time></trkpt><trkpt lat="47.24756437891135" lon="-0.12395129484058252"><ele>71.4</ele><time>2026-03-22T16:31:43.999Z</time></trkpt><trkpt lat="47.24751419931396" lon="-0.124095111548823"><ele>70.80000000000001</ele><time>2026-03-22T16:31:44.999Z</time></trkpt><trkpt lat="47.247469713084996" lon="-0.12423163898822308"><ele>70.2</ele><time>2026-03-22T16:31:45.999Z</time></trkpt><trkpt lat="47.24743774890561" lon="-0.1243691866451159"><ele>69.60000000000001</ele><time>2026-03-22T16:31:46.999Z</time></trkpt><trkpt lat="47.24741636058437" lon="-0.12450546925541714"><ele>69.0</ele><time>2026-03-22T16:31:47.999Z</time></trkpt><trkpt lat="47.247400839422625" lon="-0.12463034723833387"><ele>69.0</ele><time>2026-03-22T16:31:48.999Z</time></trkpt><trkpt lat="47.24738696902949" lon="-0.12475178959978364"><ele>69.0</ele><time>2026-03-22T16:31:49.999Z</time></trkpt><trkpt lat="47.24737331918009" lon="-0.12487190421123916"><ele>69.0</ele><time>2026-03-22T16:31:50.999Z</time></trkpt><trkpt lat="47.24736307052134" lon="-0.12496638668492434"><ele>69.0</ele><time>2026-03-22T16:31:51.999Z</time></trkpt><trkpt lat="47.24736366561614" lon="-0.12514796309800552"><ele>69.0</ele><time>2026-03-22T16:31:53.999Z</time></trkpt><trkpt lat="47.24737151961232" lon="-0.12528085337444328"><ele>69.0</ele><time>2026-03-22T16:31:55.999Z</time></trkpt><trkpt lat="47.24730680475079" lon="-0.12536461067713073"><ele>68.0</ele><time>2026-03-22T16:31:57.999Z</time></trkpt><trkpt lat="47.247243469344525" lon="-0.12547861173680325"><ele>67.0</ele><time>2026-03-22T16:31:59.999Z</time></trkpt><trkpt lat="47.24716122076584" lon="-0.12555076827258335"><ele>66.0</ele><time>2026-03-22T16:32:01.999Z</time></trkpt><trkpt lat="47.247078529483275" lon="-0.12563591676803687"><ele>65.0</ele><time>2026-03-22T16:32:04Z</time></trkpt><trkpt lat="47.246995401329" lon="-0.12573384899075818"><ele>64.0</ele><time>2026-03-22T16:32:06Z</time></trkpt><trkpt lat="47.24691047059364" lon="-0.12587172704631036"><ele>63.33333333333333</ele><time>2026-03-22T16:32:08Z</time></trkpt><trkpt lat="47.24685954210368" lon="-0.12593683310106338"><ele>62.666666666666664</ele><time>2026-03-22T16:32:09Z</time></trkpt><trkpt lat="47.246779029241836" lon="-0.1260462947653926"><ele>62.0</ele><time>2026-03-22T16:32:11Z</time></trkpt><trkpt lat="47.24666743822298" lon="-0.12609739647772722"><ele>61.33333333333333</ele><time>2026-03-22T16:32:13Z</time></trkpt><trkpt lat="47.246602680227284" lon="-0.1261564422533489"><ele>60.666666666666664</ele><time>2026-03-22T16:32:14Z</time></trkpt><trkpt lat="47.24654874879687" lon="-0.12621219225926716"><ele>60.0</ele><time>2026-03-22T16:32:15Z</time></trkpt><trkpt lat="47.246451766572335" lon="-0.1263168466720535"><ele>60.0</ele><time>2026-03-22T16:32:17Z</time></trkpt><trkpt lat="47.24640490844458" lon="-0.12641515084347918"><ele>60.0</ele><time>2026-03-22T16:32:22Z</time></trkpt><trkpt lat="47.24634298923601" lon="-0.12638576082991923"><ele>60.0</ele><time>2026-03-22T16:32:26Z</time></trkpt><trkpt lat="47.24641872017645" lon="-0.12632965056583045"><ele>60.0</ele><time>2026-03-22T16:32:28Z</time></trkpt><trkpt lat="47.246480900746285" lon="-0.12630793615522654"><ele>60.0</ele><time>2026-03-22T16:32:30Z</time></trkpt><trkpt lat="47.2465535844043" lon="-0.12623887846120213"><ele>60.0</ele><time>2026-03-22T16:32:33Z</time></trkpt><trkpt lat="47.24655521143969" lon="-0.12611952275130495"><ele>60.0</ele><time>2026-03-22T16:32:42Z</time></trkpt><trkpt lat="47.246528531907856" lon="-0.12622958027320974"><ele>60.0</ele><time>2026-03-22T16:32:48Z</time></trkpt><trkpt lat="47.24646999454944" lon="-0.1262842552945284"><ele>60.0</ele><time>2026-03-22T16:32:49Z</time></trkpt><trkpt lat="47.24637694495901" lon="-0.12639037166743883"><ele>60.0</ele><time>2026-03-22T16:32:51Z</time></trkpt><trkpt lat="47.24630824638943" lon="-0.12648005266374018"><ele>60.0</ele><time>2026-03-22T16:32:53Z</time></trkpt><trkpt lat="47.24626856727461" lon="-0.12656678598094245"><ele>60.0</ele><time>2026-03-22T16:32:55Z</time></trkpt><trkpt lat="47.246241331579284" lon="-0.12667376247028617"><ele>59.5</ele><time>2026-03-22T16:32:57Z</time></trkpt><trkpt lat="47.24622967568526" lon="-0.1267675006168562"><ele>59.0</ele><time>2026-03-22T16:32:59Z</time></trkpt><trkpt lat="47.24619933963704" lon="-0.12688225001547923"><ele>58.5</ele><time>2026-03-22T16:33:01Z</time></trkpt><trkpt lat="47.24610581764366" lon="-0.12700283232057896"><ele>58.0</ele><time>2026-03-22T16:33:03Z</time></trkpt><trkpt lat="47.2460453583158" lon="-0.12707378117054952"><ele>57.5</ele><time>2026-03-22T16:33:04Z</time></trkpt><trkpt lat="47.24599915700196" lon="-0.127138245317637"><ele>57.0</ele><time>2026-03-22T16:33:05Z</time></trkpt><trkpt lat="47.24594129146221" lon="-0.12726696760281794"><ele>57.0</ele><time>2026-03-22T16:33:07Z</time></trkpt><trkpt lat="47.24589685357518" lon="-0.12736356555604808"><ele>57.0</ele><time>2026-03-22T16:33:08Z</time></trkpt><trkpt lat="47.245856582514456" lon="-0.12744087134654397"><ele>57.0</ele><time>2026-03-22T16:33:09Z</time></trkpt><trkpt lat="47.245800763826985" lon="-0.12758144035441854"><ele>57.0</ele><time>2026-03-22T16:33:11Z</time></trkpt><trkpt lat="47.245728467807744" lon="-0.12769832774441706"><ele>57.0</ele><time>2026-03-22T16:33:12.999Z</time></trkpt><trkpt lat="47.24564284827522" lon="-0.1278296223960524"><ele>56.666666666666664</ele><time>2026-03-22T16:33:14.999Z</time></trkpt><trkpt lat="47.24558033834331" lon="-0.1279060461172785"><ele>56.33333333333333</ele><time>2026-03-22T16:33:15.999Z</time></trkpt><trkpt lat="47.24552690593737" lon="-0.1279919298252234"><ele>56.0</ele><time>2026-03-22T16:33:16.999Z</time></trkpt><trkpt lat="47.24548493220075" lon="-0.12806617286338007"><ele>55.666666666666664</ele><time>2026-03-22T16:33:17.999Z</time></trkpt><trkpt lat="47.24543477469155" lon="-0.12814507311629073"><ele>55.33333333333333</ele><time>2026-03-22T16:33:18.999Z</time></trkpt><trkpt lat="47.24538734932257" lon="-0.12822804070893046"><ele>55.0</ele><time>2026-03-22T16:33:19.999Z</time></trkpt><trkpt lat="47.24532928935172" lon="-0.12832896697336046"><ele>54.49999999999999</ele><time>2026-03-22T16:33:20.999Z</time></trkpt><trkpt lat="47.24527488000247" lon="-0.12843710974926761"><ele>54.0</ele><time>2026-03-22T16:33:21.999Z</time></trkpt><trkpt lat="47.24523221657098" lon="-0.12851997559470857"><ele>53.5</ele><time>2026-03-22T16:33:22.999Z</time></trkpt><trkpt lat="47.24518980459324" lon="-0.1285907179257096"><ele>53.0</ele><time>2026-03-22T16:33:23.999Z</time></trkpt><trkpt lat="47.245143264457056" lon="-0.1286653783117399"><ele>52.49999999999999</ele><time>2026-03-22T16:33:24.999Z</time></trkpt><trkpt lat="47.245082739963486" lon="-0.12873733212702954"><ele>52.0</ele><time>2026-03-22T16:33:25.999Z</time></trkpt><trkpt lat="47.24501710406684" lon="-0.1288111703440108"><ele>52.0</ele><time>2026-03-22T16:33:26.999Z</time></trkpt><trkpt lat="47.24494633279728" lon="-0.12889060124523577"><ele>52.0</ele><time>2026-03-22T16:33:27.999Z</time></trkpt><trkpt lat="47.24486681990139" lon="-0.128972104491832"><ele>52.0</ele><time>2026-03-22T16:33:28.999Z</time></trkpt><trkpt lat="47.244787150485934" lon="-0.12905005331882008"><ele>52.0</ele><time>2026-03-22T16:33:29.999Z</time></trkpt><trkpt lat="47.24470611500413" lon="-0.1291466791926187"><ele>52.0</ele><time>2026-03-22T16:33:30.999Z</time></trkpt><trkpt lat="47.2446319878813" lon="-0.12924077024082356"><ele>50.5</ele><time>2026-03-22T16:33:31.999Z</time></trkpt><trkpt lat="47.244557572974855" lon="-0.12934373754653963"><ele>49.0</ele><time>2026-03-22T16:33:32.999Z</time></trkpt><trkpt lat="47.24446805758635" lon="-0.1294621210258148"><ele>47.5</ele><time>2026-03-22T16:33:33.999Z</time></trkpt><trkpt lat="47.24437542677548" lon="-0.12959140621492798"><ele>46.0</ele><time>2026-03-22T16:33:34.999Z</time></trkpt><trkpt lat="47.24428766144671" lon="-0.12971889374958687"><ele>46.0</ele><time>2026-03-22T16:33:35.999Z</time></trkpt><trkpt lat="47.24421459770699" lon="-0.12982432874292515"><ele>46.0</ele><time>2026-03-22T16:33:36.999Z</time></trkpt><trkpt lat="47.2441401182055" lon="-0.1299431337805456"><ele>46.0</ele><time>2026-03-22T16:33:37.999Z</time></trkpt><trkpt lat="47.244067483682244" lon="-0.13005786246883572"><ele>46.0</ele><time>2026-03-22T16:33:38.999Z</time></trkpt><trkpt lat="47.2439933796879" lon="-0.1301760912513992"><ele>46.0</ele><time>2026-03-22T16:33:39.999Z</time></trkpt><trkpt lat="47.243914855425544" lon="-0.13029615876322817"><ele>46.333333333333336</ele><time>2026-03-22T16:33:40.999Z</time></trkpt><trkpt lat="47.2438423292562" lon="-0.1304029838008764"><ele>46.66666666666667</ele><time>2026-03-22T16:33:41.999Z</time></trkpt><trkpt lat="47.243775692656065" lon="-0.13050247533592385"><ele>47.0</ele><time>2026-03-22T16:33:42.999Z</time></trkpt><trkpt lat="47.24371610291839" lon="-0.13059052943395583"><ele>47.333333333333336</ele><time>2026-03-22T16:33:43.999Z</time></trkpt><trkpt lat="47.243660315071196" lon="-0.13067649366448136"><ele>47.666666666666664</ele><time>2026-03-22T16:33:44.999Z</time></trkpt><trkpt lat="47.24360394184923" lon="-0.1307589370566443"><ele>48.0</ele><time>2026-03-22T16:33:45.999Z</time></trkpt><trkpt lat="47.24356160258025" lon="-0.1308286570884772"><ele>48.166666666666664</ele><time>2026-03-22T16:33:46.999Z</time></trkpt><trkpt lat="47.24348440059244" lon="-0.1309403102279908"><ele>48.33333333333333</ele><time>2026-03-22T16:33:48.999Z</time></trkpt><trkpt lat="47.24341947829514" lon="-0.13102164726404167"><ele>48.5</ele><time>2026-03-22T16:33:50.999Z</time></trkpt><trkpt lat="47.24335195526955" lon="-0.13110443052763257"><ele>48.666666666666664</ele><time>2026-03-22T16:33:52.999Z</time></trkpt><trkpt lat="47.243361332786925" lon="-0.13121344165899324"><ele>48.83333333333333</ele><time>2026-03-22T16:33:54.999Z</time></trkpt><trkpt lat="47.24341616400458" lon="-0.13127359255962656"><ele>49.0</ele><time>2026-03-22T16:33:55.999Z</time></trkpt><trkpt lat="47.243495461021524" lon="-0.1313405660022457"><ele>48.99999999999999</ele><time>2026-03-22T16:33:56.999Z</time></trkpt><trkpt lat="47.24356942101856" lon="-0.13140314134795214"><ele>49.0</ele><time>2026-03-22T16:33:57.999Z</time></trkpt><trkpt lat="47.243643370949215" lon="-0.13146411690951237"><ele>49.0</ele><time>2026-03-22T16:33:58.999Z</time></trkpt><trkpt lat="47.24369881857377" lon="-0.13150861697814864"><ele>49.0</ele><time>2026-03-22T16:33:59.999Z</time></trkpt><trkpt lat="47.24375624730486" lon="-0.1315474836696775"><ele>48.99999999999999</ele><time>2026-03-22T16:34:00.999Z</time></trkpt><trkpt lat="47.243840469952374" lon="-0.1316525204789875"><ele>49.0</ele><time>2026-03-22T16:34:02.999Z</time></trkpt><trkpt lat="47.243857772179034" lon="-0.131753239649489"><ele>49.2</ele><time>2026-03-22T16:34:03.999Z</time></trkpt><trkpt lat="47.24386240277401" lon="-0.13187161579707887"><ele>49.400000000000006</ele><time>2026-03-22T16:34:04.999Z</time></trkpt><trkpt lat="47.24386404654834" lon="-0.13201056622321647"><ele>49.6</ele><time>2026-03-22T16:34:05.999Z</time></trkpt><trkpt lat="47.24386706900225" lon="-0.13215105600155896"><ele>49.8</ele><time>2026-03-22T16:34:06.999Z</time></trkpt><trkpt lat="47.2438759701603" lon="-0.13229959718892995"><ele>50.0</ele><time>2026-03-22T16:34:07.999Z</time></trkpt><trkpt lat="47.24387510381571" lon="-0.1324337624222889"><ele>51.0</ele><time>2026-03-22T16:34:09Z</time></trkpt><trkpt lat="47.2438698266909" lon="-0.13254831919372384"><ele>52.0</ele><time>2026-03-22T16:34:10Z</time></trkpt><trkpt lat="47.243892907994386" lon="-0.132717976881909"><ele>53.0</ele><time>2026-03-22T16:34:12Z</time></trkpt><trkpt lat="47.243914394427605" lon="-0.1328440769515737"><ele>54.0</ele><time>2026-03-22T16:34:13Z</time></trkpt><trkpt lat="47.243931381286835" lon="-0.13298754097302878"><ele>55.0</ele><time>2026-03-22T16:34:14Z</time></trkpt><trkpt lat="47.243951646872645" lon="-0.1330930216756663"><ele>55.8</ele><time>2026-03-22T16:34:15Z</time></trkpt><trkpt lat="47.243985757267275" lon="-0.13323101159509868"><ele>56.6</ele><time>2026-03-22T16:34:16Z</time></trkpt><trkpt lat="47.24401688646898" lon="-0.1333750291510373"><ele>57.400000000000006</ele><time>2026-03-22T16:34:17Z</time></trkpt><trkpt lat="47.24404320715903" lon="-0.13355054027633886"><ele>58.2</ele><time>2026-03-22T16:34:18Z</time></trkpt><trkpt lat="47.244065983842795" lon="-0.13370380721079136"><ele>59.0</ele><time>2026-03-22T16:34:19Z</time></trkpt><trkpt lat="47.24407420870807" lon="-0.13381800904835925"><ele>59.0</ele><time>2026-03-22T16:34:20Z</time></trkpt><trkpt lat="47.24407937098424" lon="-0.13393104071125506"><ele>59.00000000000001</ele><time>2026-03-22T16:34:21Z</time></trkpt><trkpt lat="47.24408298954223" lon="-0.1340757477699502"><ele>59.00000000000001</ele><time>2026-03-22T16:34:22Z</time></trkpt><trkpt lat="47.24408250831115" lon="-0.13422209215105282"><ele>59.0</ele><time>2026-03-22T16:34:23Z</time></trkpt><trkpt lat="47.24407092274566" lon="-0.13436626114239292"><ele>59.0</ele><time>2026-03-22T16:34:24Z</time></trkpt><trkpt lat="47.24403818927374" lon="-0.1345194145962358"><ele>59.50000000000001</ele><time>2026-03-22T16:34:25Z</time></trkpt><trkpt lat="47.24400256176277" lon="-0.13463343088085014"><ele>60.0</ele><time>2026-03-22T16:34:26Z</time></trkpt><trkpt lat="47.24397084209359" lon="-0.13478750708454162"><ele>60.5</ele><time>2026-03-22T16:34:28Z</time></trkpt><trkpt lat="47.24396451657966" lon="-0.1349084387608036"><ele>61.0</ele><time>2026-03-22T16:34:30Z</time></trkpt><trkpt lat="47.24399127636087" lon="-0.13501070205647228"><ele>61.50000000000001</ele><time>2026-03-22T16:34:32Z</time></trkpt><trkpt lat="47.24401551896817" lon="-0.13514563866608603"><ele>62.0</ele><time>2026-03-22T16:34:35Z</time></trkpt><trkpt lat="47.244055014166605" lon="-0.13506356716170975"><ele>62.00000000000001</ele><time>2026-03-22T16:34:50Z</time></trkpt><trkpt lat="47.2440888238363" lon="-0.1349608198778393"><ele>62.0</ele><time>2026-03-22T16:34:51Z</time></trkpt><trkpt lat="47.24414892577371" lon="-0.1348711824603647"><ele>62.0</ele><time>2026-03-22T16:34:52Z</time></trkpt><trkpt lat="47.24423016653367" lon="-0.1347950831977103"><ele>62.0</ele><time>2026-03-22T16:34:53Z</time></trkpt><trkpt lat="47.24431108125012" lon="-0.13472465780537077"><ele>62.00000000000001</ele><time>2026-03-22T16:34:54Z</time></trkpt><trkpt lat="47.244390971607345" lon="-0.13466084177893972"><ele>62.0</ele><time>2026-03-22T16:34:55Z</time></trkpt><trkpt lat="47.244464140090535" lon="-0.1346072361335904"><ele>62.0</ele><time>2026-03-22T16:34:56Z</time></trkpt><trkpt lat="47.24453537964062" lon="-0.13455565070359804"><ele>62.0</ele><time>2026-03-22T16:34:57Z</time></trkpt><trkpt lat="47.24461390285635" lon="-0.1344944780309295"><ele>62.0</ele><time>2026-03-22T16:34:58Z</time></trkpt><trkpt lat="47.244703845553026" lon="-0.13443316631258898"><ele>62.0</ele><time>2026-03-22T16:34:59Z</time></trkpt><trkpt lat="47.244791724425866" lon="-0.13438222697235425"><ele>62.0</ele><time>2026-03-22T16:35:00Z</time></trkpt><trkpt lat="47.24488247292753" lon="-0.13433451229461213"><ele>62.25</ele><time>2026-03-22T16:35:01Z</time></trkpt><trkpt lat="47.244990882764505" lon="-0.13430780663449643"><ele>62.5</ele><time>2026-03-22T16:35:02Z</time></trkpt><trkpt lat="47.24510508465912" lon="-0.1342860060861701"><ele>62.75</ele><time>2026-03-22T16:35:03Z</time></trkpt><trkpt lat="47.245230491286634" lon="-0.13427175842708813"><ele>63.0</ele><time>2026-03-22T16:35:04Z</time></trkpt><trkpt lat="47.245346437973474" lon="-0.13426402725162231"><ele>63.0</ele><time>2026-03-22T16:35:05Z</time></trkpt><trkpt lat="47.24544371035097" lon="-0.1342582191814345"><ele>63.0</ele><time>2026-03-22T16:35:06Z</time></trkpt><trkpt lat="47.24553755097224" lon="-0.13426125145139364"><ele>63.0</ele><time>2026-03-22T16:35:07Z</time></trkpt><trkpt lat="47.24562490415967" lon="-0.13422963964560441"><ele>63.0</ele><time>2026-03-22T16:35:08Z</time></trkpt><trkpt lat="47.245726750797694" lon="-0.13424603018760178"><ele>63.0</ele><time>2026-03-22T16:35:09Z</time></trkpt><trkpt lat="47.245843334162586" lon="-0.13423195214740713"><ele>62.2</ele><time>2026-03-22T16:35:10Z</time></trkpt><trkpt lat="47.24596651620594" lon="-0.13421550133787383"><ele>61.4</ele><time>2026-03-22T16:35:11Z</time></trkpt><trkpt lat="47.246074551925055" lon="-0.13419319788701897"><ele>60.60000000000001</ele><time>2026-03-22T16:35:12Z</time></trkpt><trkpt lat="47.246174100602374" lon="-0.1341526147861412"><ele>59.800000000000004</ele><time>2026-03-22T16:35:13Z</time></trkpt><trkpt lat="47.24627672254985" lon="-0.13409603826046995"><ele>59.0</ele><time>2026-03-22T16:35:14Z</time></trkpt><trkpt lat="47.246391754342405" lon="-0.13402483153774947"><ele>57.6</ele><time>2026-03-22T16:35:15Z</time></trkpt><trkpt lat="47.246507002910505" lon="-0.13395910610382883"><ele>56.2</ele><time>2026-03-22T16:35:15.999Z</time></trkpt><trkpt lat="47.24660261630439" lon="-0.13389833404968635"><ele>54.800000000000004</ele><time>2026-03-22T16:35:16.999Z</time></trkpt><trkpt lat="47.24668964006038" lon="-0.13384016053430586"><ele>53.400000000000006</ele><time>2026-03-22T16:35:17.999Z</time></trkpt><trkpt lat="47.24676622561901" lon="-0.13377132972250988"><ele>52.0</ele><time>2026-03-22T16:35:18.999Z</time></trkpt><trkpt lat="47.24684700879431" lon="-0.13368757653861793"><ele>52.0</ele><time>2026-03-22T16:35:19.999Z</time></trkpt><trkpt lat="47.24694069031539" lon="-0.13358273286087952"><ele>52.0</ele><time>2026-03-22T16:35:20.999Z</time></trkpt><trkpt lat="47.24703418967709" lon="-0.13346891377024314"><ele>52.0</ele><time>2026-03-22T16:35:21.999Z</time></trkpt><trkpt lat="47.24710325816427" lon="-0.13335732026168293"><ele>52.0</ele><time>2026-03-22T16:35:22.999Z</time></trkpt><trkpt lat="47.24716714813754" lon="-0.1332659929034276"><ele>52.0</ele><time>2026-03-22T16:35:23.999Z</time></trkpt><trkpt lat="47.24725634219996" lon="-0.1331858381229995"><ele>52.8</ele><time>2026-03-22T16:35:24.999Z</time></trkpt><trkpt lat="47.247347728187385" lon="-0.13308623843656847"><ele>53.6</ele><time>2026-03-22T16:35:25.999Z</time></trkpt><trkpt lat="47.247438046064914" lon="-0.13298182112811255"><ele>54.39999999999999</ele><time>2026-03-22T16:35:26.999Z</time></trkpt><trkpt lat="47.24752494228986" lon="-0.13288798512031247"><ele>55.199999999999996</ele><time>2026-03-22T16:35:27.999Z</time></trkpt><trkpt lat="47.247590250413566" lon="-0.13280394350436348"><ele>56.0</ele><time>2026-03-22T16:35:28.999Z</time></trkpt><trkpt lat="47.24765240812163" lon="-0.1327354711979622"><ele>56.0</ele><time>2026-03-22T16:35:30.999Z</time></trkpt><trkpt lat="47.247734996417414" lon="-0.13274420436125398"><ele>55.99999999999999</ele><time>2026-03-22T16:35:32.999Z</time></trkpt><trkpt lat="47.247792521416805" lon="-0.13281270004584642"><ele>55.99999999999999</ele><time>2026-03-22T16:35:33.999Z</time></trkpt><trkpt lat="47.247864566860756" lon="-0.13288361659462214"><ele>56.0</ele><time>2026-03-22T16:35:34.999Z</time></trkpt><trkpt lat="47.24795816396656" lon="-0.13293089984923712"><ele>56.0</ele><time>2026-03-22T16:35:35.999Z</time></trkpt><trkpt lat="47.248059200394664" lon="-0.1329915873741461"><ele>56.4</ele><time>2026-03-22T16:35:36.999Z</time></trkpt><trkpt lat="47.248159729187265" lon="-0.13306418239948234"><ele>56.8</ele><time>2026-03-22T16:35:37.999Z</time></trkpt><trkpt lat="47.2482479356399" lon="-0.1331467169274965"><ele>57.199999999999996</ele><time>2026-03-22T16:35:38.999Z</time></trkpt><trkpt lat="47.24832820612444" lon="-0.13323878556652666"><ele>57.599999999999994</ele><time>2026-03-22T16:35:39.999Z</time></trkpt><trkpt lat="47.248391157146" lon="-0.13331433148585"><ele>58.0</ele><time>2026-03-22T16:35:40.999Z</time></trkpt><trkpt lat="47.24845191791195" lon="-0.1333800989308093"><ele>58.2</ele><time>2026-03-22T16:35:41.999Z</time></trkpt><trkpt lat="47.24854229113942" lon="-0.13350853915469837"><ele>58.4</ele><time>2026-03-22T16:35:43.999Z</time></trkpt><trkpt lat="47.24860779419549" lon="-0.1335946983769873"><ele>58.60000000000001</ele><time>2026-03-22T16:35:45.999Z</time></trkpt><trkpt lat="47.24869710799698" lon="-0.13364754875191268"><ele>58.800000000000004</ele><time>2026-03-22T16:35:47.999Z</time></trkpt><trkpt lat="47.248752905165155" lon="-0.13372751950222145"><ele>59.0</ele><time>2026-03-22T16:35:48.999Z</time></trkpt><trkpt lat="47.24881662773014" lon="-0.13384880805672295"><ele>59.0</ele><time>2026-03-22T16:35:49.999Z</time></trkpt><trkpt lat="47.24888507588548" lon="-0.13395660650178032"><ele>59.00000000000001</ele><time>2026-03-22T16:35:50.999Z</time></trkpt><trkpt lat="47.24892511551408" lon="-0.13404537573601044"><ele>59.00000000000001</ele><time>2026-03-22T16:35:51.999Z</time></trkpt><trkpt lat="47.24899977912414" lon="-0.13414670731434145"><ele>59.0</ele><time>2026-03-22T16:35:53.999Z</time></trkpt><trkpt lat="47.24907903399012" lon="-0.13416583962870235"><ele>59.0</ele><time>2026-03-22T16:35:54.999Z</time></trkpt><trkpt lat="47.24917341873062" lon="-0.13418476838073587"><ele>59.6</ele><time>2026-03-22T16:35:55.999Z</time></trkpt><trkpt lat="47.24926681242472" lon="-0.13420852577863301"><ele>60.2</ele><time>2026-03-22T16:35:56.999Z</time></trkpt><trkpt lat="47.249375350253324" lon="-0.13423097102752146"><ele>60.800000000000004</ele><time>2026-03-22T16:35:57.999Z</time></trkpt><trkpt lat="47.24950113144973" lon="-0.1342415229810411"><ele>61.400000000000006</ele><time>2026-03-22T16:35:58.999Z</time></trkpt><trkpt lat="47.24959800018439" lon="-0.13425069059104777"><ele>62.0</ele><time>2026-03-22T16:35:59.999Z</time></trkpt><trkpt lat="47.24968230803626" lon="-0.13424202873786192"><ele>62.0</ele><time>2026-03-22T16:36:00.999Z</time></trkpt><trkpt lat="47.24974732311329" lon="-0.13423559837920165"><ele>62.0</ele><time>2026-03-22T16:36:01.999Z</time></trkpt><trkpt lat="47.24982477616517" lon="-0.13428757198742888"><ele>62.0</ele><time>2026-03-22T16:36:04.999Z</time></trkpt><trkpt lat="47.2498231419754" lon="-0.13446450870615598"><ele>62.0</ele><time>2026-03-22T16:36:06.999Z</time></trkpt><trkpt lat="47.24980941454924" lon="-0.13459668440132236"><ele>62.0</ele><time>2026-03-22T16:36:07.999Z</time></trkpt><trkpt lat="47.24979767621115" lon="-0.13473914839998855"><ele>62.400000000000006</ele><time>2026-03-22T16:36:08.999Z</time></trkpt><trkpt lat="47.24979762550918" lon="-0.13486894481899206"><ele>62.800000000000004</ele><time>2026-03-22T16:36:09.999Z</time></trkpt><trkpt lat="47.24978283499378" lon="-0.13501985990334633"><ele>63.2</ele><time>2026-03-22T16:36:10.999Z</time></trkpt><trkpt lat="47.24977084285069" lon="-0.1351677666473074"><ele>63.6</ele><time>2026-03-22T16:36:11.999Z</time></trkpt><trkpt lat="47.24975332610552" lon="-0.13530747064540405"><ele>64.0</ele><time>2026-03-22T16:36:12.999Z</time></trkpt><trkpt lat="47.249734089217775" lon="-0.13546191320983902"><ele>63.99999999999999</ele><time>2026-03-22T16:36:13.999Z</time></trkpt><trkpt lat="47.249727450306054" lon="-0.13562041339371556"><ele>64.0</ele><time>2026-03-22T16:36:15Z</time></trkpt><trkpt lat="47.24973100951406" lon="-0.13575901442742871"><ele>64.0</ele><time>2026-03-22T16:36:16Z</time></trkpt><trkpt lat="47.249732758844935" lon="-0.13587527549567444"><ele>64.0</ele><time>2026-03-22T16:36:17Z</time></trkpt><trkpt lat="47.249722403825565" lon="-0.13598124606369683"><ele>63.99999999999999</ele><time>2026-03-22T16:36:18Z</time></trkpt><trkpt lat="47.249708207457815" lon="-0.13607350110062708"><ele>64.0</ele><time>2026-03-22T16:36:19Z</time></trkpt><trkpt lat="47.2496965371722" lon="-0.13618155150288186"><ele>64.2</ele><time>2026-03-22T16:36:20Z</time></trkpt><trkpt lat="47.249688825885265" lon="-0.13630367324169212"><ele>64.4</ele><time>2026-03-22T16:36:21Z</time></trkpt><trkpt lat="47.249685780409486" lon="-0.13644476549716875"><ele>64.6</ele><time>2026-03-22T16:36:22Z</time></trkpt><trkpt lat="47.249682074977486" lon="-0.136597007181757"><ele>64.8</ele><time>2026-03-22T16:36:23Z</time></trkpt><trkpt lat="47.24968941994277" lon="-0.13675025069164248"><ele>65.0</ele><time>2026-03-22T16:36:24Z</time></trkpt><trkpt lat="47.249698213143134" lon="-0.1369146365002534"><ele>64.8</ele><time>2026-03-22T16:36:25Z</time></trkpt><trkpt lat="47.24969354579838" lon="-0.13708821740975793"><ele>64.6</ele><time>2026-03-22T16:36:26Z</time></trkpt><trkpt lat="47.24968179477132" lon="-0.1372597733142088"><ele>64.4</ele><time>2026-03-22T16:36:27Z</time></trkpt><trkpt lat="47.24965909564877" lon="-0.1374060871604663"><ele>64.2</ele><time>2026-03-22T16:36:28Z</time></trkpt><trkpt lat="47.24962814038838" lon="-0.13754194881742474"><ele>64.0</ele><time>2026-03-22T16:36:29Z</time></trkpt><trkpt lat="47.2495907755607" lon="-0.13770209814944723"><ele>64.0</ele><time>2026-03-22T16:36:30Z</time></trkpt><trkpt lat="47.249551069052956" lon="-0.13786543128100956"><ele>64.0</ele><time>2026-03-22T16:36:31Z</time></trkpt><trkpt lat="47.2495136089025" lon="-0.13803080725148387"><ele>64.0</ele><time>2026-03-22T16:36:32Z</time></trkpt><trkpt lat="47.249483550348636" lon="-0.1381831820769125"><ele>64.0</ele><time>2026-03-22T16:36:33Z</time></trkpt><trkpt lat="47.24945167208183" lon="-0.13832801926140223"><ele>64.0</ele><time>2026-03-22T16:36:34Z</time></trkpt><trkpt lat="47.24942204696347" lon="-0.13847008609803485"><ele>64.2</ele><time>2026-03-22T16:36:35Z</time></trkpt><trkpt lat="47.249391816759456" lon="-0.13861485272764615"><ele>64.4</ele><time>2026-03-22T16:36:36Z</time></trkpt><trkpt lat="47.24935787803164" lon="-0.13877301101834075"><ele>64.6</ele><time>2026-03-22T16:36:37Z</time></trkpt><trkpt lat="47.249315401758025" lon="-0.1389372935582958"><ele>64.8</ele><time>2026-03-22T16:36:38Z</time></trkpt><trkpt lat="47.24927818022957" lon="-0.13907816392355227"><ele>65.0</ele><time>2026-03-22T16:36:39Z</time></trkpt><trkpt lat="47.24923965069507" lon="-0.13920261267709302"><ele>65.16666666666667</ele><time>2026-03-22T16:36:40Z</time></trkpt><trkpt lat="47.24920577557261" lon="-0.13932172648846278"><ele>65.33333333333334</ele><time>2026-03-22T16:36:41Z</time></trkpt><trkpt lat="47.2491728667373" lon="-0.13942700303683794"><ele>65.5</ele><time>2026-03-22T16:36:42Z</time></trkpt><trkpt lat="47.24914463434468" lon="-0.13952785936163362"><ele>65.66666666666667</ele><time>2026-03-22T16:36:43Z</time></trkpt><trkpt lat="47.24910051628981" lon="-0.139669998266476"><ele>65.83333333333333</ele><time>2026-03-22T16:36:45Z</time></trkpt><trkpt lat="47.24906588019533" lon="-0.13979814952318348"><ele>66.0</ele><time>2026-03-22T16:36:47Z</time></trkpt><trkpt lat="47.24907786437245" lon="-0.13989785299015275"><ele>66.0</ele><time>2026-03-22T16:36:49Z</time></trkpt><trkpt lat="47.24915498735719" lon="-0.1400095392053434"><ele>66.0</ele><time>2026-03-22T16:36:51Z</time></trkpt><trkpt lat="47.24921755213473" lon="-0.14007062981331989"><ele>66.0</ele><time>2026-03-22T16:36:52Z</time></trkpt><trkpt lat="47.24927681748623" lon="-0.14014560760978317"><ele>66.0</ele><time>2026-03-22T16:36:53Z</time></trkpt><trkpt lat="47.249348255665126" lon="-0.14024107091539031"><ele>66.0</ele><time>2026-03-22T16:36:54Z</time></trkpt><trkpt lat="47.249427951780625" lon="-0.14034433039132463"><ele>66.0</ele><time>2026-03-22T16:36:55Z</time></trkpt><trkpt lat="47.24950592660656" lon="-0.14045846651871463"><ele>66.0</ele><time>2026-03-22T16:36:56Z</time></trkpt><trkpt lat="47.24958253456616" lon="-0.14057380004740125"><ele>66.0</ele><time>2026-03-22T16:36:57Z</time></trkpt><trkpt lat="47.24967537223727" lon="-0.14069043348536678"><ele>66.0</ele><time>2026-03-22T16:36:58Z</time></trkpt><trkpt lat="47.249759761616254" lon="-0.14080886814017837"><ele>65.5</ele><time>2026-03-22T16:36:59Z</time></trkpt><trkpt lat="47.249845255624315" lon="-0.14092993808349372"><ele>65.0</ele><time>2026-03-22T16:37:00Z</time></trkpt><trkpt lat="47.24992980207843" lon="-0.1410278211790937"><ele>64.5</ele><time>2026-03-22T16:37:01Z</time></trkpt><trkpt lat="47.250015551574094" lon="-0.14114396012687"><ele>64.0</ele><time>2026-03-22T16:37:02Z</time></trkpt><trkpt lat="47.250101466429705" lon="-0.14125905737406833"><ele>64.0</ele><time>2026-03-22T16:37:03Z</time></trkpt><trkpt lat="47.250194179930794" lon="-0.14138082393607745"><ele>64.0</ele><time>2026-03-22T16:37:04Z</time></trkpt><trkpt lat="47.25028537529468" lon="-0.14150143289891873"><ele>64.0</ele><time>2026-03-22T16:37:05Z</time></trkpt><trkpt lat="47.25036882143402" lon="-0.14161009784254178"><ele>64.0</ele><time>2026-03-22T16:37:06Z</time></trkpt><trkpt lat="47.25044477825074" lon="-0.14170529318635058"><ele>64.0</ele><time>2026-03-22T16:37:07Z</time></trkpt><trkpt lat="47.25051924984304" lon="-0.14180444914675996"><ele>64.0</ele><time>2026-03-22T16:37:08Z</time></trkpt><trkpt lat="47.2505952232426" lon="-0.14190437085337979"><ele>64.0</ele><time>2026-03-22T16:37:09Z</time></trkpt><trkpt lat="47.250682243186475" lon="-0.14201330922997965"><ele>64.0</ele><time>2026-03-22T16:37:10Z</time></trkpt><trkpt lat="47.250766832332005" lon="-0.14212736035012768"><ele>64.0</ele><time>2026-03-22T16:37:11Z</time></trkpt><trkpt lat="47.25084132074646" lon="-0.14222726279389028"><ele>63.99999999999999</ele><time>2026-03-22T16:37:12Z</time></trkpt><trkpt lat="47.25090758325928" lon="-0.14231272295276431"><ele>64.0</ele><time>2026-03-22T16:37:13Z</time></trkpt><trkpt lat="47.25096539159618" lon="-0.14239395368098318"><ele>64.0</ele><time>2026-03-22T16:37:14Z</time></trkpt><trkpt lat="47.25101499994914" lon="-0.14246637236396156"><ele>64.0</ele><time>2026-03-22T16:37:15Z</time></trkpt><trkpt lat="47.2510608305546" lon="-0.1425411650760203"><ele>63.99999999999999</ele><time>2026-03-22T16:37:16Z</time></trkpt><trkpt lat="47.25115239989922" lon="-0.14262856474973462"><ele>64.0</ele><time>2026-03-22T16:37:18Z</time></trkpt><trkpt lat="47.25122684309271" lon="-0.14265403580658298"><ele>63.99999999999999</ele><time>2026-03-22T16:37:20Z</time></trkpt><trkpt lat="47.251255975199484" lon="-0.14253218193153586"><ele>64.0</ele><time>2026-03-22T16:37:20.999Z</time></trkpt><trkpt lat="47.25131161447622" lon="-0.14246752527851841"><ele>64.0</ele><time>2026-03-22T16:37:21.999Z</time></trkpt><trkpt lat="47.25135328499525" lon="-0.1423839532717555"><ele>64.0</ele><time>2026-03-22T16:37:22.999Z</time></trkpt><trkpt lat="47.25139873538533" lon="-0.1422629249464378"><ele>63.99999999999999</ele><time>2026-03-22T16:37:24.999Z</time></trkpt><trkpt lat="47.25144470793989" lon="-0.14218518287589843"><ele>64.0</ele><time>2026-03-22T16:37:26.999Z</time></trkpt><trkpt lat="47.25167069276125" lon="-0.14238302723113722"><ele>64.4</ele><time>2026-03-22T16:37:27.999Z</time></trkpt><trkpt lat="47.251766941127904" lon="-0.14242370728187523"><ele>64.80000000000001</ele><time>2026-03-22T16:37:28.999Z</time></trkpt><trkpt lat="47.251871447729116" lon="-0.14245995582330867"><ele>65.19999999999999</ele><time>2026-03-22T16:37:29.999Z</time></trkpt><trkpt lat="47.251970685173134" lon="-0.14249446783651784"><ele>65.6</ele><time>2026-03-22T16:37:30.999Z</time></trkpt><trkpt lat="47.25206145220143" lon="-0.14254638593724667"><ele>66.0</ele><time>2026-03-22T16:37:31.999Z</time></trkpt><trkpt lat="47.25215575879078" lon="-0.14261387253972707"><ele>66.0</ele><time>2026-03-22T16:37:32.999Z</time></trkpt><trkpt lat="47.25225715600279" lon="-0.14268826154366987"><ele>66.0</ele><time>2026-03-22T16:37:33.999Z</time></trkpt><trkpt lat="47.252362536456594" lon="-0.14276663097180117"><ele>66.0</ele><time>2026-03-22T16:37:34.999Z</time></trkpt><trkpt lat="47.25247218118518" lon="-0.1428485486456771"><ele>66.0</ele><time>2026-03-22T16:37:35.999Z</time></trkpt><trkpt lat="47.25258417345496" lon="-0.14293163584948418"><ele>66.6</ele><time>2026-03-22T16:37:36.999Z</time></trkpt><trkpt lat="47.25268909486549" lon="-0.14300398528992697"><ele>67.19999999999999</ele><time>2026-03-22T16:37:37.999Z</time></trkpt><trkpt lat="47.252783594739654" lon="-0.14305663434140845"><ele>67.80000000000001</ele><time>2026-03-22T16:37:38.999Z</time></trkpt><trkpt lat="47.25286834897804" lon="-0.14308472919655948"><ele>68.4</ele><time>2026-03-22T16:37:39.999Z</time></trkpt><trkpt lat="47.25295252003847" lon="-0.14310764835228387"><ele>69.0</ele><time>2026-03-22T16:37:40.999Z</time></trkpt><trkpt lat="47.253054444702066" lon="-0.14311464053906103"><ele>70.5</ele><time>2026-03-22T16:37:41.999Z</time></trkpt><trkpt lat="47.25316907270463" lon="-0.14311909037292833"><ele>72.0</ele><time>2026-03-22T16:37:42.999Z</time></trkpt><trkpt lat="47.25327970887384" lon="-0.14313894711043296"><ele>73.5</ele><time>2026-03-22T16:37:43.999Z</time></trkpt><trkpt lat="47.25339437287218" lon="-0.14319640690192356"><ele>75.0</ele><time>2026-03-22T16:37:44.999Z</time></trkpt><trkpt lat="47.25351972518248" lon="-0.14325568695038904"><ele>75.5</ele><time>2026-03-22T16:37:45.999Z</time></trkpt><trkpt lat="47.253645828451944" lon="-0.143312401806536"><ele>76.0</ele><time>2026-03-22T16:37:46.999Z</time></trkpt><trkpt lat="47.253777451004595" lon="-0.1433761880413233"><ele>76.5</ele><time>2026-03-22T16:37:47.999Z</time></trkpt><trkpt lat="47.25390173180047" lon="-0.14342827594246338"><ele>77.0</ele><time>2026-03-22T16:37:48.999Z</time></trkpt><trkpt lat="47.25402982981265" lon="-0.14348201221222712"><ele>78.0</ele><time>2026-03-22T16:37:49.999Z</time></trkpt><trkpt lat="47.25416384235109" lon="-0.14352460639167114"><ele>79.0</ele><time>2026-03-22T16:37:50.999Z</time></trkpt><trkpt lat="47.254297385187456" lon="-0.14358520907813807"><ele>80.0</ele><time>2026-03-22T16:37:51.999Z</time></trkpt><trkpt lat="47.254435660172724" lon="-0.14364267906985023"><ele>81.0</ele><time>2026-03-22T16:37:52.999Z</time></trkpt><trkpt lat="47.25455036639272" lon="-0.14369256787431278"><ele>81.0</ele><time>2026-03-22T16:37:53.999Z</time></trkpt><trkpt lat="47.254663207719666" lon="-0.14374090604527048"><ele>81.0</ele><time>2026-03-22T16:37:54.999Z</time></trkpt><trkpt lat="47.254804085317105" lon="-0.14380396912543886"><ele>81.0</ele><time>2026-03-22T16:37:55.999Z</time></trkpt><trkpt lat="47.25492574728115" lon="-0.14386153216759795"><ele>81.0</ele><time>2026-03-22T16:37:56.999Z</time></trkpt><trkpt lat="47.25502768753561" lon="-0.1439196552081563"><ele>81.0</ele><time>2026-03-22T16:37:57.999Z</time></trkpt><trkpt lat="47.25512006086502" lon="-0.14397862832288708"><ele>81.0</ele><time>2026-03-22T16:37:58.999Z</time></trkpt><trkpt lat="47.25522049645903" lon="-0.14404181082785664"><ele>81.0</ele><time>2026-03-22T16:37:59.999Z</time></trkpt><trkpt lat="47.25534301975413" lon="-0.14411491206492538"><ele>81.0</ele><time>2026-03-22T16:38:00.999Z</time></trkpt><trkpt lat="47.25546518047711" lon="-0.14419697291290023"><ele>80.75</ele><time>2026-03-22T16:38:01.999Z</time></trkpt><trkpt lat="47.25560079485914" lon="-0.1442787004097412"><ele>80.5</ele><time>2026-03-22T16:38:02.999Z</time></trkpt><trkpt lat="47.255732810389304" lon="-0.1443430548393413"><ele>80.25</ele><time>2026-03-22T16:38:03.999Z</time></trkpt><trkpt lat="47.255849071540325" lon="-0.14441155463701005"><ele>80.0</ele><time>2026-03-22T16:38:04.999Z</time></trkpt><trkpt lat="47.25594468268133" lon="-0.14447132459291237"><ele>80.0</ele><time>2026-03-22T16:38:05.999Z</time></trkpt><trkpt lat="47.25604609713149" lon="-0.14455882454690014"><ele>80.0</ele><time>2026-03-22T16:38:06.999Z</time></trkpt><trkpt lat="47.256155376913284" lon="-0.14464454535149007"><ele>80.0</ele><time>2026-03-22T16:38:07.999Z</time></trkpt><trkpt lat="47.25626806739054" lon="-0.14473954174952833"><ele>80.0</ele><time>2026-03-22T16:38:08.999Z</time></trkpt><trkpt lat="47.25636808083766" lon="-0.14484622058456126"><ele>80.25</ele><time>2026-03-22T16:38:09.999Z</time></trkpt><trkpt lat="47.25644995547662" lon="-0.14492899932599315"><ele>80.5</ele><time>2026-03-22T16:38:10.999Z</time></trkpt><trkpt lat="47.256551738447875" lon="-0.14499251507331604"><ele>80.75</ele><time>2026-03-22T16:38:11.999Z</time></trkpt><trkpt lat="47.25666613588769" lon="-0.14505252395290413"><ele>81.0</ele><time>2026-03-22T16:38:12.999Z</time></trkpt><trkpt lat="47.25679869409294" lon="-0.14509025559936276"><ele>81.0</ele><time>2026-03-22T16:38:13.999Z</time></trkpt><trkpt lat="47.25692701168357" lon="-0.14512936271289914"><ele>81.0</ele><time>2026-03-22T16:38:14.999Z</time></trkpt><trkpt lat="47.257061238848344" lon="-0.14517955340412259"><ele>81.0</ele><time>2026-03-22T16:38:15.999Z</time></trkpt><trkpt lat="47.257201509923085" lon="-0.14523585501279193"><ele>81.0</ele><time>2026-03-22T16:38:16.999Z</time></trkpt><trkpt lat="47.25733980238407" lon="-0.14529149360808263"><ele>81.0</ele><time>2026-03-22T16:38:17.999Z</time></trkpt><trkpt lat="47.25744806144613" lon="-0.14533380220445555"><ele>81.0</ele><time>2026-03-22T16:38:18.999Z</time></trkpt><trkpt lat="47.25754730692307" lon="-0.14537720879040322"><ele>81.0</ele><time>2026-03-22T16:38:19.999Z</time></trkpt><trkpt lat="47.25762110206876" lon="-0.14541147051898803"><ele>81.0</ele><time>2026-03-22T16:38:21Z</time></trkpt><trkpt lat="47.257708410767975" lon="-0.1454044970127455"><ele>81.0</ele><time>2026-03-22T16:38:23Z</time></trkpt><trkpt lat="47.25778734210548" lon="-0.14535822173376636"><ele>81.0</ele><time>2026-03-22T16:38:25Z</time></trkpt><trkpt lat="47.257879820178196" lon="-0.1453395716712032"><ele>81.0</ele><time>2026-03-22T16:38:27Z</time></trkpt><trkpt lat="47.25797696327441" lon="-0.14540848281867788"><ele>81.0</ele><time>2026-03-22T16:38:29Z</time></trkpt><trkpt lat="47.25810791325264" lon="-0.14546732051412353"><ele>81.0</ele><time>2026-03-22T16:38:31Z</time></trkpt><trkpt lat="47.25818678305415" lon="-0.14545554294929894"><ele>81.0</ele><time>2026-03-22T16:38:32Z</time></trkpt><trkpt lat="47.25827809441729" lon="-0.1454473387013338"><ele>81.6</ele><time>2026-03-22T16:38:33Z</time></trkpt><trkpt lat="47.25838371778057" lon="-0.1454334894136243"><ele>82.19999999999999</ele><time>2026-03-22T16:38:34Z</time></trkpt><trkpt lat="47.258494281054226" lon="-0.14543540830630225"><ele>82.80000000000001</ele><time>2026-03-22T16:38:35Z</time></trkpt><trkpt lat="47.25858663054411" lon="-0.14544991416180886"><ele>83.4</ele><time>2026-03-22T16:38:36Z</time></trkpt><trkpt lat="47.258662055185205" lon="-0.14546334742080427"><ele>84.0</ele><time>2026-03-22T16:38:37Z</time></trkpt><trkpt lat="47.25872586788001" lon="-0.14548363457650382"><ele>84.0</ele><time>2026-03-22T16:38:38Z</time></trkpt><trkpt lat="47.2588381724335" lon="-0.14550294811709255"><ele>84.0</ele><time>2026-03-22T16:38:40Z</time></trkpt><trkpt lat="47.25891035915647" lon="-0.14555901734926613"><ele>84.0</ele><time>2026-03-22T16:38:42Z</time></trkpt><trkpt lat="47.25891535245454" lon="-0.14571097423452373"><ele>84.0</ele><time>2026-03-22T16:38:44Z</time></trkpt><trkpt lat="47.25890649746422" lon="-0.14583656248888274"><ele>84.0</ele><time>2026-03-22T16:38:45Z</time></trkpt><trkpt lat="47.258904195318685" lon="-0.14598005068649333"><ele>84.2</ele><time>2026-03-22T16:38:46Z</time></trkpt><trkpt lat="47.258886427563034" lon="-0.14612724994199533"><ele>84.4</ele><time>2026-03-22T16:38:47Z</time></trkpt><trkpt lat="47.25886499727679" lon="-0.14630447411454628"><ele>84.6</ele><time>2026-03-22T16:38:48Z</time></trkpt><trkpt lat="47.25884436107238" lon="-0.14642434389356473"><ele>84.8</ele><time>2026-03-22T16:38:49Z</time></trkpt><trkpt lat="47.25879284801863" lon="-0.14654476703396108"><ele>85.0</ele><time>2026-03-22T16:38:51Z</time></trkpt><trkpt lat="47.25874319448606" lon="-0.14666529052999042"><ele>85.2</ele><time>2026-03-22T16:38:52Z</time></trkpt><trkpt lat="47.25866909673553" lon="-0.14681826948284746"><ele>85.4</ele><time>2026-03-22T16:38:53Z</time></trkpt><trkpt lat="47.25860987278047" lon="-0.14692029076505347"><ele>85.6</ele><time>2026-03-22T16:38:54Z</time></trkpt><trkpt lat="47.258567023405355" lon="-0.14702651655445"><ele>85.8</ele><time>2026-03-22T16:38:55Z</time></trkpt><trkpt lat="47.258529233491345" lon="-0.14716169629691658"><ele>86.0</ele><time>2026-03-22T16:38:56Z</time></trkpt><trkpt lat="47.25850580253613" lon="-0.1473065752379315"><ele>85.8</ele><time>2026-03-22T16:38:57Z</time></trkpt><trkpt lat="47.258465335549886" lon="-0.1474182900741786"><ele>85.6</ele><time>2026-03-22T16:38:58Z</time></trkpt><trkpt lat="47.25842606100053" lon="-0.14750979870096714"><ele>85.4</ele><time>2026-03-22T16:38:59Z</time></trkpt><trkpt lat="47.2584116592552" lon="-0.14762849879803513"><ele>85.2</ele><time>2026-03-22T16:39:00Z</time></trkpt><trkpt lat="47.25840983034223" lon="-0.14778565471343996"><ele>85.0</ele><time>2026-03-22T16:39:01Z</time></trkpt><trkpt lat="47.258401244966365" lon="-0.14796622026494186"><ele>85.0</ele><time>2026-03-22T16:39:02Z</time></trkpt><trkpt lat="47.25839035188481" lon="-0.1481167095139534"><ele>85.0</ele><time>2026-03-22T16:39:03Z</time></trkpt><trkpt lat="47.2583742007022" lon="-0.14824869165890242"><ele>85.0</ele><time>2026-03-22T16:39:04Z</time></trkpt><trkpt lat="47.25834916297376" lon="-0.14838709604334557"><ele>85.0</ele><time>2026-03-22T16:39:05Z</time></trkpt><trkpt lat="47.258332786942596" lon="-0.14851516852197652"><ele>85.0</ele><time>2026-03-22T16:39:06Z</time></trkpt><trkpt lat="47.25831963357275" lon="-0.14866269430850024"><ele>84.5</ele><time>2026-03-22T16:39:07Z</time></trkpt><trkpt lat="47.25829470600988" lon="-0.1488056681614946"><ele>84.0</ele><time>2026-03-22T16:39:08Z</time></trkpt><trkpt lat="47.25826465954401" lon="-0.14896073876522764"><ele>83.5</ele><time>2026-03-22T16:39:09Z</time></trkpt><trkpt lat="47.258227778772444" lon="-0.1491320340594964"><ele>83.0</ele><time>2026-03-22T16:39:10Z</time></trkpt><trkpt lat="47.25818318802074" lon="-0.1493112277946353"><ele>83.0</ele><time>2026-03-22T16:39:11Z</time></trkpt><trkpt lat="47.258131662026486" lon="-0.149493815648189"><ele>83.0</ele><time>2026-03-22T16:39:12Z</time></trkpt><trkpt lat="47.2580868779117" lon="-0.14967187646929625"><ele>83.0</ele><time>2026-03-22T16:39:13Z</time></trkpt><trkpt lat="47.25805519985707" lon="-0.1498360030128717"><ele>83.0</ele><time>2026-03-22T16:39:14Z</time></trkpt><trkpt lat="47.25802866608766" lon="-0.14998581015534734"><ele>82.0</ele><time>2026-03-22T16:39:15Z</time></trkpt><trkpt lat="47.25800171650839" lon="-0.1501175214158552"><ele>81.0</ele><time>2026-03-22T16:39:16Z</time></trkpt><trkpt lat="47.257969824101195" lon="-0.1502646033799437"><ele>80.0</ele><time>2026-03-22T16:39:17Z</time></trkpt><trkpt lat="47.25794729576417" lon="-0.1504134174055348"><ele>79.0</ele><time>2026-03-22T16:39:18Z</time></trkpt><trkpt lat="47.25792483260725" lon="-0.1505527517916105"><ele>78.0</ele><time>2026-03-22T16:39:19Z</time></trkpt><trkpt lat="47.25790092183222" lon="-0.15067882278151354"><ele>77.6</ele><time>2026-03-22T16:39:20Z</time></trkpt><trkpt lat="47.25786344504464" lon="-0.15079614818701698"><ele>77.19999999999999</ele><time>2026-03-22T16:39:21Z</time></trkpt><trkpt lat="47.257802247995386" lon="-0.15090657000776303"><ele>76.8</ele><time>2026-03-22T16:39:22Z</time></trkpt><trkpt lat="47.25771946531028" lon="-0.15101633893533234"><ele>76.39999999999999</ele><time>2026-03-22T16:39:23Z</time></trkpt><trkpt lat="47.25764833189137" lon="-0.15112186897878838"><ele>76.0</ele><time>2026-03-22T16:39:24Z</time></trkpt><trkpt lat="47.25758303912707" lon="-0.1512213179725972"><ele>76.0</ele><time>2026-03-22T16:39:25Z</time></trkpt><trkpt lat="47.257524579330635" lon="-0.15132646295027505"><ele>76.0</ele><time>2026-03-22T16:39:25.999Z</time></trkpt><trkpt lat="47.25747891847197" lon="-0.15143246466559257"><ele>76.0</ele><time>2026-03-22T16:39:26.999Z</time></trkpt><trkpt lat="47.25744887644122" lon="-0.15154551066729857"><ele>76.0</ele><time>2026-03-22T16:39:27.999Z</time></trkpt><trkpt lat="47.25742279369195" lon="-0.15163896590734458"><ele>76.0</ele><time>2026-03-22T16:39:28.999Z</time></trkpt><trkpt lat="47.25740002954914" lon="-0.15175332318531815"><ele>76.0</ele><time>2026-03-22T16:39:29.999Z</time></trkpt><trkpt lat="47.25737900422584" lon="-0.15187814281643403"><ele>75.39999999999999</ele><time>2026-03-22T16:39:30.999Z</time></trkpt><trkpt lat="47.2573607312601" lon="-0.1520269251998709"><ele>74.8</ele><time>2026-03-22T16:39:31.999Z</time></trkpt><trkpt lat="47.2573488197135" lon="-0.15216325367512235"><ele>74.19999999999999</ele><time>2026-03-22T16:39:32.999Z</time></trkpt><trkpt lat="47.25731106261879" lon="-0.15229292599508087"><ele>73.6</ele><time>2026-03-22T16:39:33.999Z</time></trkpt><trkpt lat="47.257238946051636" lon="-0.15243153649815822"><ele>73.0</ele><time>2026-03-22T16:39:34.999Z</time></trkpt><trkpt lat="47.25713763632218" lon="-0.15257157189685255"><ele>72.0</ele><time>2026-03-22T16:39:35.999Z</time></trkpt><trkpt lat="47.25706045010237" lon="-0.15269127162677515"><ele>71.0</ele><time>2026-03-22T16:39:36.999Z</time></trkpt><trkpt lat="47.25699385205002" lon="-0.15279435374208547"><ele>70.0</ele><time>2026-03-22T16:39:37.999Z</time></trkpt><trkpt lat="47.25692831262436" lon="-0.1528895417159638"><ele>69.0</ele><time>2026-03-22T16:39:38.999Z</time></trkpt><trkpt lat="47.2568764456096" lon="-0.1529858008432356"><ele>68.0</ele><time>2026-03-22T16:39:39.999Z</time></trkpt><trkpt lat="47.25681133216427" lon="-0.1530791000045456"><ele>68.0</ele><time>2026-03-22T16:39:40.999Z</time></trkpt><trkpt lat="47.256755799896446" lon="-0.15317306860854807"><ele>68.0</ele><time>2026-03-22T16:39:41.999Z</time></trkpt><trkpt lat="47.25668678954874" lon="-0.1532863242509139"><ele>68.0</ele><time>2026-03-22T16:39:43.999Z</time></trkpt><trkpt lat="47.25664785280463" lon="-0.15340399284830136"><ele>68.0</ele><time>2026-03-22T16:39:46.999Z</time></trkpt><trkpt lat="47.25670938730872" lon="-0.1535113398458173"><ele>68.0</ele><time>2026-03-22T16:39:48.999Z</time></trkpt><trkpt lat="47.25677432458036" lon="-0.15355817774815667"><ele>68.0</ele><time>2026-03-22T16:39:49.999Z</time></trkpt><trkpt lat="47.25686499257915" lon="-0.15359095330012112"><ele>67.6</ele><time>2026-03-22T16:39:50.999Z</time></trkpt><trkpt lat="47.2569637633843" lon="-0.1536353899711459"><ele>67.19999999999999</ele><time>2026-03-22T16:39:51.999Z</time></trkpt><trkpt lat="47.25707979940697" lon="-0.15368589178705933"><ele>66.8</ele><time>2026-03-22T16:39:52.999Z</time></trkpt><trkpt lat="47.25718262630937" lon="-0.15372622969918853"><ele>66.39999999999999</ele><time>2026-03-22T16:39:53.999Z</time></trkpt><trkpt lat="47.25729472597723" lon="-0.15374512978002988"><ele>66.0</ele><time>2026-03-22T16:39:54.999Z</time></trkpt><trkpt lat="47.257425779404926" lon="-0.15374247731782195"><ele>66.0</ele><time>2026-03-22T16:39:55.999Z</time></trkpt><trkpt lat="47.25755335296818" lon="-0.15374085187272477"><ele>66.0</ele><time>2026-03-22T16:39:56.999Z</time></trkpt><trkpt lat="47.25765840836756" lon="-0.15373692382547813"><ele>66.0</ele><time>2026-03-22T16:39:57.999Z</time></trkpt><trkpt lat="47.25775524062198" lon="-0.15372540546196228"><ele>66.0</ele><time>2026-03-22T16:39:58.999Z</time></trkpt><trkpt lat="47.25785478175736" lon="-0.15371891879802885"><ele>66.0</ele><time>2026-03-22T16:39:59.999Z</time></trkpt><trkpt lat="47.257943803893035" lon="-0.15369059078036318"><ele>66.0</ele><time>2026-03-22T16:40:00.999Z</time></trkpt><trkpt lat="47.25803942714126" lon="-0.1536140861200824"><ele>66.0</ele><time>2026-03-22T16:40:01.999Z</time></trkpt><trkpt lat="47.25815542963426" lon="-0.15353316313693655"><ele>66.0</ele><time>2026-03-22T16:40:02.999Z</time></trkpt><trkpt lat="47.25826678806483" lon="-0.1534654010530799"><ele>66.0</ele><time>2026-03-22T16:40:03.999Z</time></trkpt><trkpt lat="47.258387264426936" lon="-0.15340979837510277"><ele>65.75</ele><time>2026-03-22T16:40:04.999Z</time></trkpt><trkpt lat="47.258504894160396" lon="-0.15338295604675437"><ele>65.5</ele><time>2026-03-22T16:40:05.999Z</time></trkpt><trkpt lat="47.25863561745893" lon="-0.15338321953584164"><ele>65.25</ele><time>2026-03-22T16:40:06.999Z</time></trkpt><trkpt lat="47.258763248739925" lon="-0.15338133311795898"><ele>65.0</ele><time>2026-03-22T16:40:07.999Z</time></trkpt><trkpt lat="47.25887429405075" lon="-0.15337457805197255"><ele>65.0</ele><time>2026-03-22T16:40:08.999Z</time></trkpt><trkpt lat="47.25898471937849" lon="-0.15334783360574247"><ele>65.0</ele><time>2026-03-22T16:40:09.999Z</time></trkpt><trkpt lat="47.259080364528025" lon="-0.1533022802561662"><ele>65.0</ele><time>2026-03-22T16:40:10.999Z</time></trkpt><trkpt lat="47.25916713088916" lon="-0.15327447375400688"><ele>65.0</ele><time>2026-03-22T16:40:11.999Z</time></trkpt><trkpt lat="47.25923487122241" lon="-0.15324597472556187"><ele>65.0</ele><time>2026-03-22T16:40:12.999Z</time></trkpt><trkpt lat="47.25931985617401" lon="-0.15319254870621035"><ele>66.0</ele><time>2026-03-22T16:40:13.999Z</time></trkpt><trkpt lat="47.25941569003558" lon="-0.15312209411248104"><ele>67.0</ele><time>2026-03-22T16:40:14.999Z</time></trkpt><trkpt lat="47.259526315200496" lon="-0.1530399901713368"><ele>68.0</ele><time>2026-03-22T16:40:15.999Z</time></trkpt><trkpt lat="47.25963951538954" lon="-0.15293633619571662"><ele>69.0</ele><time>2026-03-22T16:40:16.999Z</time></trkpt><trkpt lat="47.25975582844396" lon="-0.15281356044025152"><ele>68.8</ele><time>2026-03-22T16:40:17.999Z</time></trkpt><trkpt lat="47.25985062909562" lon="-0.15269769050972404"><ele>68.60000000000001</ele><time>2026-03-22T16:40:18.999Z</time></trkpt><trkpt lat="47.25993348213165" lon="-0.15259306440049672"><ele>68.4</ele><time>2026-03-22T16:40:19.999Z</time></trkpt><trkpt lat="47.260006413198774" lon="-0.1525020909904128"><ele>68.2</ele><time>2026-03-22T16:40:20.999Z</time></trkpt><trkpt lat="47.26007162894778" lon="-0.1524240346278243"><ele>68.0</ele><time>2026-03-22T16:40:21.999Z</time></trkpt><trkpt lat="47.26015550085804" lon="-0.15232983426485922"><ele>68.0</ele><time>2026-03-22T16:40:22.999Z</time></trkpt><trkpt lat="47.260231237276855" lon="-0.15223260836033808"><ele>68.0</ele><time>2026-03-22T16:40:23.999Z</time></trkpt><trkpt lat="47.26032402402489" lon="-0.1521135456857919"><ele>68.0</ele><time>2026-03-22T16:40:24.999Z</time></trkpt><trkpt lat="47.260421364733006" lon="-0.15198746771715727"><ele>68.0</ele><time>2026-03-22T16:40:26Z</time></trkpt><trkpt lat="47.26053522854577" lon="-0.15184237743997492"><ele>68.25</ele><time>2026-03-22T16:40:27Z</time></trkpt><trkpt lat="47.260643179031305" lon="-0.15168705341538208"><ele>68.5</ele><time>2026-03-22T16:40:28Z</time></trkpt><trkpt lat="47.260741667701325" lon="-0.15156627629205827"><ele>68.75</ele><time>2026-03-22T16:40:29Z</time></trkpt><trkpt lat="47.26082496792797" lon="-0.15147051337977716"><ele>69.0</ele><time>2026-03-22T16:40:30Z</time></trkpt><trkpt lat="47.260905582954535" lon="-0.15137622275044654"><ele>69.0</ele><time>2026-03-22T16:40:31Z</time></trkpt><trkpt lat="47.26098136453636" lon="-0.151281921160562"><ele>69.0</ele><time>2026-03-22T16:40:32Z</time></trkpt><trkpt lat="47.261055623803365" lon="-0.15119518857333883"><ele>69.0</ele><time>2026-03-22T16:40:33Z</time></trkpt><trkpt lat="47.26112446881289" lon="-0.1511238996395396"><ele>69.0</ele><time>2026-03-22T16:40:34Z</time></trkpt><trkpt lat="47.26121205428457" lon="-0.15106011667112323"><ele>69.0</ele><time>2026-03-22T16:40:36Z</time></trkpt><trkpt lat="47.261271106800116" lon="-0.15113858386753537"><ele>69.0</ele><time>2026-03-22T16:40:38Z</time></trkpt><trkpt lat="47.26131318615422" lon="-0.15123285931245997"><ele>69.0</ele><time>2026-03-22T16:40:39Z</time></trkpt><trkpt lat="47.26136718927963" lon="-0.1513910985303179"><ele>69.0</ele><time>2026-03-22T16:40:40Z</time></trkpt><trkpt lat="47.26143045299482" lon="-0.15154440985428258"><ele>69.0</ele><time>2026-03-22T16:40:41Z</time></trkpt><trkpt lat="47.26150269360186" lon="-0.1516985082687537"><ele>69.0</ele><time>2026-03-22T16:40:42Z</time></trkpt><trkpt lat="47.26158756376806" lon="-0.15187648603710927"><ele>68.66666666666667</ele><time>2026-03-22T16:40:43Z</time></trkpt><trkpt lat="47.26168064729829" lon="-0.15206054652640352"><ele>68.33333333333334</ele><time>2026-03-22T16:40:44Z</time></trkpt><trkpt lat="47.261788405215064" lon="-0.15226658679260935"><ele>68.0</ele><time>2026-03-22T16:40:45Z</time></trkpt><trkpt lat="47.261887141876805" lon="-0.15244732579513062"><ele>67.5</ele><time>2026-03-22T16:40:46Z</time></trkpt><trkpt lat="47.261976257096876" lon="-0.15260581324664813"><ele>67.0</ele><time>2026-03-22T16:40:47Z</time></trkpt><trkpt lat="47.26206527490658" lon="-0.15276647091259377"><ele>66.5</ele><time>2026-03-22T16:40:48Z</time></trkpt><trkpt lat="47.262157600559334" lon="-0.1529344473046762"><ele>66.0</ele><time>2026-03-22T16:40:49Z</time></trkpt><trkpt lat="47.262248623135704" lon="-0.15311149643476094"><ele>66.0</ele><time>2026-03-22T16:40:50Z</time></trkpt><trkpt lat="47.262331247762724" lon="-0.1532642792193464"><ele>66.0</ele><time>2026-03-22T16:40:51Z</time></trkpt><trkpt lat="47.26239715155732" lon="-0.15339276774070493"><ele>66.0</ele><time>2026-03-22T16:40:52Z</time></trkpt><trkpt lat="47.26247689266189" lon="-0.1535250750598177"><ele>66.0</ele><time>2026-03-22T16:40:53Z</time></trkpt><trkpt lat="47.262566392580965" lon="-0.15366595360586802"><ele>66.0</ele><time>2026-03-22T16:40:54Z</time></trkpt><trkpt lat="47.26264141311512" lon="-0.15381317785699203"><ele>66.0</ele><time>2026-03-22T16:40:55Z</time></trkpt><trkpt lat="47.262703836167894" lon="-0.15393812149984035"><ele>66.0</ele><time>2026-03-22T16:40:56Z</time></trkpt><trkpt lat="47.262764288109025" lon="-0.15406122791078572"><ele>66.0</ele><time>2026-03-22T16:40:57Z</time></trkpt><trkpt lat="47.26280259990132" lon="-0.15417168200176537"><ele>66.0</ele><time>2026-03-22T16:40:58Z</time></trkpt><trkpt lat="47.262838049550986" lon="-0.1542934372239125"><ele>65.66666666666667</ele><time>2026-03-22T16:40:59Z</time></trkpt><trkpt lat="47.26285605836985" lon="-0.15441651315402924"><ele>65.33333333333333</ele><time>2026-03-22T16:41:00Z</time></trkpt><trkpt lat="47.26287818854745" lon="-0.15455313897831657"><ele>65.0</ele><time>2026-03-22T16:41:01Z</time></trkpt><trkpt lat="47.2628938394773" lon="-0.15469079832885393"><ele>64.66666666666666</ele><time>2026-03-22T16:41:02Z</time></trkpt><trkpt lat="47.262902099362485" lon="-0.15480702559347467"><ele>64.33333333333333</ele><time>2026-03-22T16:41:03Z</time></trkpt><trkpt lat="47.26290368586587" lon="-0.1549140834493665"><ele>64.0</ele><time>2026-03-22T16:41:04Z</time></trkpt><trkpt lat="47.262910109734726" lon="-0.15502339860955902"><ele>64.0</ele><time>2026-03-22T16:41:05Z</time></trkpt><trkpt lat="47.26293141300353" lon="-0.15517983233546656"><ele>64.0</ele><time>2026-03-22T16:41:06Z</time></trkpt><trkpt lat="47.26295468241405" lon="-0.15532112950152033"><ele>64.0</ele><time>2026-03-22T16:41:07Z</time></trkpt><trkpt lat="47.26297745070607" lon="-0.1554404314138825"><ele>64.0</ele><time>2026-03-22T16:41:08Z</time></trkpt><trkpt lat="47.26300957441953" lon="-0.1555531998413137"><ele>64.0</ele><time>2026-03-22T16:41:09Z</time></trkpt><trkpt lat="47.26306753721083" lon="-0.15565123633707656"><ele>63.5</ele><time>2026-03-22T16:41:10Z</time></trkpt><trkpt lat="47.263151447203775" lon="-0.15574706323437235"><ele>63.0</ele><time>2026-03-22T16:41:11Z</time></trkpt><trkpt lat="47.26325039126286" lon="-0.1558727024442043"><ele>62.5</ele><time>2026-03-22T16:41:12Z</time></trkpt><trkpt lat="47.26335256121648" lon="-0.1560013443675795"><ele>62.0</ele><time>2026-03-22T16:41:13Z</time></trkpt><trkpt lat="47.2634341198629" lon="-0.15612482323889423"><ele>62.0</ele><time>2026-03-22T16:41:14Z</time></trkpt><trkpt lat="47.26350265468918" lon="-0.1562347903649584"><ele>62.0</ele><time>2026-03-22T16:41:15Z</time></trkpt><trkpt lat="47.2635697466275" lon="-0.15633061289279454"><ele>62.0</ele><time>2026-03-22T16:41:16Z</time></trkpt><trkpt lat="47.26365779262989" lon="-0.15645358150208846"><ele>62.0</ele><time>2026-03-22T16:41:17Z</time></trkpt><trkpt lat="47.263740948784815" lon="-0.15658425400272866"><ele>62.0</ele><time>2026-03-22T16:41:18Z</time></trkpt><trkpt lat="47.263809162024586" lon="-0.15673586563954714"><ele>62.6</ele><time>2026-03-22T16:41:19Z</time></trkpt><trkpt lat="47.26387603158953" lon="-0.15687393963214824"><ele>63.2</ele><time>2026-03-22T16:41:20Z</time></trkpt><trkpt lat="47.263933036589684" lon="-0.15699715358790642"><ele>63.8</ele><time>2026-03-22T16:41:21Z</time></trkpt><trkpt lat="47.26399603886195" lon="-0.1571340788953549"><ele>64.4</ele><time>2026-03-22T16:41:22Z</time></trkpt><trkpt lat="47.26405355673854" lon="-0.15725754831283908"><ele>65.0</ele><time>2026-03-22T16:41:23Z</time></trkpt><trkpt lat="47.264090343289254" lon="-0.15737766986684373"><ele>66.2</ele><time>2026-03-22T16:41:24Z</time></trkpt><trkpt lat="47.264102924597374" lon="-0.15751880250974504"><ele>67.4</ele><time>2026-03-22T16:41:25Z</time></trkpt><trkpt lat="47.26410945079093" lon="-0.15765268372639016"><ele>68.6</ele><time>2026-03-22T16:41:26Z</time></trkpt><trkpt lat="47.26413866548916" lon="-0.1577783894731604"><ele>69.8</ele><time>2026-03-22T16:41:27Z</time></trkpt><trkpt lat="47.26416628762358" lon="-0.15788176928613956"><ele>71.0</ele><time>2026-03-22T16:41:28Z</time></trkpt><trkpt lat="47.26419169431685" lon="-0.15803503221873563"><ele>71.2</ele><time>2026-03-22T16:41:30Z</time></trkpt><trkpt lat="47.26421069493042" lon="-0.15820246035103508"><ele>71.39999999999999</ele><time>2026-03-22T16:41:32Z</time></trkpt><trkpt lat="47.26422858635796" lon="-0.15838032115319586"><ele>71.6</ele><time>2026-03-22T16:41:33.999Z</time></trkpt><trkpt lat="47.26424191545911" lon="-0.15847356673217672"><ele>71.8</ele><time>2026-03-22T16:41:34.999Z</time></trkpt><trkpt lat="47.26424715628212" lon="-0.1585684822641482"><ele>72.0</ele><time>2026-03-22T16:41:35.999Z</time></trkpt><trkpt lat="47.26425401756982" lon="-0.15870201204068193"><ele>72.0</ele><time>2026-03-22T16:41:36.999Z</time></trkpt><trkpt lat="47.264254080549826" lon="-0.15884536973313007"><ele>72.0</ele><time>2026-03-22T16:41:37.999Z</time></trkpt><trkpt lat="47.264261627868514" lon="-0.15897350415801279"><ele>72.0</ele><time>2026-03-22T16:41:38.999Z</time></trkpt><trkpt lat="47.264267399784345" lon="-0.15909180632267425"><ele>72.0</ele><time>2026-03-22T16:41:39.999Z</time></trkpt><trkpt lat="47.26427735135088" lon="-0.1592635279556864"><ele>72.0</ele><time>2026-03-22T16:41:40.999Z</time></trkpt><trkpt lat="47.26428797141496" lon="-0.15947010979164053"><ele>72.4</ele><time>2026-03-22T16:41:41.999Z</time></trkpt><trkpt lat="47.26429452858041" lon="-0.15966200520523283"><ele>72.80000000000001</ele><time>2026-03-22T16:41:42.999Z</time></trkpt><trkpt lat="47.26430677031393" lon="-0.15981524629753094"><ele>73.2</ele><time>2026-03-22T16:41:43.999Z</time></trkpt><trkpt lat="47.26432164664116" lon="-0.15994459439361125"><ele>73.60000000000001</ele><time>2026-03-22T16:41:44.999Z</time></trkpt><trkpt lat="47.26432377801289" lon="-0.1600435960643583"><ele>74.0</ele><time>2026-03-22T16:41:45.999Z</time></trkpt><trkpt lat="47.26433592604375" lon="-0.16025328933740113"><ele>74.0</ele><time>2026-03-22T16:41:47.999Z</time></trkpt><trkpt lat="47.264379801391954" lon="-0.16038376446754954"><ele>74.0</ele><time>2026-03-22T16:41:48.999Z</time></trkpt><trkpt lat="47.2644256202187" lon="-0.16055103461823153"><ele>74.0</ele><time>2026-03-22T16:41:49.999Z</time></trkpt><trkpt lat="47.26446440127935" lon="-0.16074720413076193"><ele>74.0</ele><time>2026-03-22T16:41:50.999Z</time></trkpt><trkpt lat="47.26449623808348" lon="-0.1609546363022975"><ele>73.25</ele><time>2026-03-22T16:41:51.999Z</time></trkpt><trkpt lat="47.26453542331757" lon="-0.16115360664235104"><ele>72.5</ele><time>2026-03-22T16:41:52.999Z</time></trkpt><trkpt lat="47.264571735756846" lon="-0.16131023644074932"><ele>71.75</ele><time>2026-03-22T16:41:53.999Z</time></trkpt><trkpt lat="47.264597480108996" lon="-0.16144887239468475"><ele>71.0</ele><time>2026-03-22T16:41:54.999Z</time></trkpt><trkpt lat="47.26462109244817" lon="-0.16160610614032028"><ele>70.75</ele><time>2026-03-22T16:41:55.999Z</time></trkpt><trkpt lat="47.26465215536634" lon="-0.16178272542499877"><ele>70.5</ele><time>2026-03-22T16:41:56.999Z</time></trkpt><trkpt lat="47.26468478345504" lon="-0.16196151325931643"><ele>70.25</ele><time>2026-03-22T16:41:57.999Z</time></trkpt><trkpt lat="47.26471028828255" lon="-0.16211380600130526"><ele>70.0</ele><time>2026-03-22T16:41:58.999Z</time></trkpt><trkpt lat="47.26473422039456" lon="-0.16225104981431696"><ele>70.0</ele><time>2026-03-22T16:41:59.999Z</time></trkpt><trkpt lat="47.26475687488128" lon="-0.1623630948418482"><ele>70.0</ele><time>2026-03-22T16:42:00.999Z</time></trkpt><trkpt lat="47.264777984276186" lon="-0.16247152064682546"><ele>70.0</ele><time>2026-03-22T16:42:01.999Z</time></trkpt><trkpt lat="47.26479141417535" lon="-0.16257744092102605"><ele>70.0</ele><time>2026-03-22T16:42:02.999Z</time></trkpt><trkpt lat="47.26475781965739" lon="-0.16276630556685032"><ele>70.0</ele><time>2026-03-22T16:42:04.999Z</time></trkpt><trkpt lat="47.26477520166475" lon="-0.1628620450725842"><ele>70.0</ele><time>2026-03-22T16:42:05.999Z</time></trkpt><trkpt lat="47.2648127499057" lon="-0.1630608222193969"><ele>70.0</ele><time>2026-03-22T16:42:07.999Z</time></trkpt><trkpt lat="47.26484921012941" lon="-0.1632130324846409"><ele>70.0</ele><time>2026-03-22T16:42:08.999Z</time></trkpt><trkpt lat="47.264874147196984" lon="-0.16337463320238155"><ele>70.0</ele><time>2026-03-22T16:42:09.999Z</time></trkpt><trkpt lat="47.26493515982542" lon="-0.1635504542334572"><ele>70.0</ele><time>2026-03-22T16:42:10.999Z</time></trkpt><trkpt lat="47.26497624469503" lon="-0.16370925265784678"><ele>70.0</ele><time>2026-03-22T16:42:11.999Z</time></trkpt><trkpt lat="47.26499609108582" lon="-0.1638538751114905"><ele>70.0</ele><time>2026-03-22T16:42:12.999Z</time></trkpt><trkpt lat="47.26503448836541" lon="-0.16397749557255045"><ele>70.0</ele><time>2026-03-22T16:42:13.999Z</time></trkpt><trkpt lat="47.26506732571113" lon="-0.1641158450965021"><ele>70.0</ele><time>2026-03-22T16:42:14.999Z</time></trkpt><trkpt lat="47.26510679611313" lon="-0.16426664563897347"><ele>70.0</ele><time>2026-03-22T16:42:15.999Z</time></trkpt><trkpt lat="47.265147607044" lon="-0.16441921566644943"><ele>69.6</ele><time>2026-03-22T16:42:16.999Z</time></trkpt><trkpt lat="47.26518320507515" lon="-0.16455023537863625"><ele>69.2</ele><time>2026-03-22T16:42:17.999Z</time></trkpt><trkpt lat="47.26521688919842" lon="-0.16468324762345965"><ele>68.8</ele><time>2026-03-22T16:42:18.999Z</time></trkpt><trkpt lat="47.2652537504252" lon="-0.16481776225829173"><ele>68.4</ele><time>2026-03-22T16:42:19.999Z</time></trkpt><trkpt lat="47.26528626739867" lon="-0.16494477720355935"><ele>68.0</ele><time>2026-03-22T16:42:20.999Z</time></trkpt><trkpt lat="47.26532047894986" lon="-0.16507846436939932"><ele>67.83333333333334</ele><time>2026-03-22T16:42:21.999Z</time></trkpt><trkpt lat="47.26536570442701" lon="-0.16518790495761435"><ele>67.66666666666667</ele><time>2026-03-22T16:42:22.999Z</time></trkpt><trkpt lat="47.26539330621631" lon="-0.16529314826369632"><ele>67.5</ele><time>2026-03-22T16:42:23.999Z</time></trkpt><trkpt lat="47.26540224921697" lon="-0.16539299379689917"><ele>67.33333333333333</ele><time>2026-03-22T16:42:24.999Z</time></trkpt><trkpt lat="47.26544042621068" lon="-0.16554077543091045"><ele>67.16666666666666</ele><time>2026-03-22T16:42:26.999Z</time></trkpt><trkpt lat="47.26548779095266" lon="-0.1656376175803151"><ele>67.0</ele><time>2026-03-22T16:42:28.999Z</time></trkpt><trkpt lat="47.265586207157014" lon="-0.16558624643862344"><ele>67.28571428571429</ele><time>2026-03-22T16:42:30.999Z</time></trkpt><trkpt lat="47.265650941918665" lon="-0.16554402367406243"><ele>67.57142857142857</ele><time>2026-03-22T16:42:32Z</time></trkpt><trkpt lat="47.26571934098786" lon="-0.1655093558240923"><ele>67.85714285714286</ele><time>2026-03-22T16:42:33Z</time></trkpt><trkpt lat="47.26579687626791" lon="-0.16547098971529026"><ele>68.14285714285714</ele><time>2026-03-22T16:42:34Z</time></trkpt><trkpt lat="47.265868978708056" lon="-0.16544002303871008"><ele>68.42857142857143</ele><time>2026-03-22T16:42:35Z</time></trkpt><trkpt lat="47.265936059449515" lon="-0.1654146076079531"><ele>68.71428571428572</ele><time>2026-03-22T16:42:36Z</time></trkpt><trkpt lat="47.26599745900099" lon="-0.1653824275903967"><ele>69.0</ele><time>2026-03-22T16:42:37Z</time></trkpt><trkpt lat="47.266072595986984" lon="-0.16534533039221275"><ele>69.0</ele><time>2026-03-22T16:42:38Z</time></trkpt><trkpt lat="47.26614972140029" lon="-0.16530880900123715"><ele>69.0</ele><time>2026-03-22T16:42:39Z</time></trkpt><trkpt lat="47.26621165785964" lon="-0.1652686675305821"><ele>69.0</ele><time>2026-03-22T16:42:40Z</time></trkpt><trkpt lat="47.26627395833479" lon="-0.1652421892871001"><ele>69.0</ele><time>2026-03-22T16:42:41Z</time></trkpt><trkpt lat="47.266342294104355" lon="-0.1652021771003931"><ele>69.0</ele><time>2026-03-22T16:42:42Z</time></trkpt><trkpt lat="47.26641675053262" lon="-0.16517162658846588"><ele>69.0</ele><time>2026-03-22T16:42:43Z</time></trkpt><trkpt lat="47.26647766257439" lon="-0.16513727435464"><ele>69.0</ele><time>2026-03-22T16:42:44Z</time></trkpt><trkpt lat="47.26655364436668" lon="-0.16505267377076954"><ele>70.0</ele><time>2026-03-22T16:42:46Z</time></trkpt><trkpt lat="47.26657789484548" lon="-0.16496396551903392"><ele>71.0</ele><time>2026-03-22T16:42:47Z</time></trkpt><trkpt lat="47.26661561200268" lon="-0.16480570120554697"><ele>72.0</ele><time>2026-03-22T16:42:49Z</time></trkpt><trkpt lat="47.26665456995837" lon="-0.16473154791733058"><ele>73.0</ele><time>2026-03-22T16:42:50Z</time></trkpt><trkpt lat="47.26675655861127" lon="-0.1646595468656072"><ele>74.0</ele><time>2026-03-22T16:42:52Z</time></trkpt><trkpt lat="47.266819279183466" lon="-0.16462378216269302"><ele>75.0</ele><time>2026-03-22T16:42:53Z</time></trkpt><trkpt lat="47.266900019811" lon="-0.16459488925473995"><ele>75.0</ele><time>2026-03-22T16:42:54Z</time></trkpt><trkpt lat="47.266977805213635" lon="-0.16456325489473872"><ele>75.0</ele><time>2026-03-22T16:42:55Z</time></trkpt><trkpt lat="47.26704295777152" lon="-0.16452633388999166"><ele>75.0</ele><time>2026-03-22T16:42:56Z</time></trkpt><trkpt lat="47.26719200654647" lon="-0.1644766215738384"><ele>75.0</ele><time>2026-03-22T16:42:58Z</time></trkpt><trkpt lat="47.267278379774005" lon="-0.16446115057336205"><ele>75.0</ele><time>2026-03-22T16:42:59Z</time></trkpt><trkpt lat="47.26736653284994" lon="-0.1644564943703742"><ele>76.66666666666667</ele><time>2026-03-22T16:43:00Z</time></trkpt><trkpt lat="47.26746274461071" lon="-0.1644503954104801"><ele>78.33333333333333</ele><time>2026-03-22T16:43:01Z</time></trkpt><trkpt lat="47.26754891333005" lon="-0.16444034652371947"><ele>80.0</ele><time>2026-03-22T16:43:02Z</time></trkpt><trkpt lat="47.26761938067433" lon="-0.16444627395766515"><ele>81.66666666666666</ele><time>2026-03-22T16:43:03Z</time></trkpt><trkpt lat="47.267680453162605" lon="-0.16448558775963174"><ele>83.33333333333333</ele><time>2026-03-22T16:43:04Z</time></trkpt><trkpt lat="47.26775427198515" lon="-0.16454273505437653"><ele>85.0</ele><time>2026-03-22T16:43:05Z</time></trkpt><trkpt lat="47.267846240365365" lon="-0.16463591677373088"><ele>85.0</ele><time>2026-03-22T16:43:07Z</time></trkpt><trkpt lat="47.26798918603937" lon="-0.16462320636994487"><ele>85.0</ele><time>2026-03-22T16:43:09Z</time></trkpt><trkpt lat="47.26807329995465" lon="-0.16460801709535333"><ele>85.0</ele><time>2026-03-22T16:43:10Z</time></trkpt><trkpt lat="47.26815363346912" lon="-0.16460165461927095"><ele>85.0</ele><time>2026-03-22T16:43:11Z</time></trkpt><trkpt lat="47.26825364994207" lon="-0.16461489756579725"><ele>85.0</ele><time>2026-03-22T16:43:12Z</time></trkpt><trkpt lat="47.26833109974823" lon="-0.1646402931007901"><ele>85.66666666666666</ele><time>2026-03-22T16:43:13Z</time></trkpt><trkpt lat="47.26840033606726" lon="-0.16467125950336503"><ele>86.33333333333333</ele><time>2026-03-22T16:43:14Z</time></trkpt><trkpt lat="47.268475233041734" lon="-0.16471455313287148"><ele>87.0</ele><time>2026-03-22T16:43:15Z</time></trkpt><trkpt lat="47.26855866410208" lon="-0.16476332808182548"><ele>87.66666666666667</ele><time>2026-03-22T16:43:16Z</time></trkpt><trkpt lat="47.26862557053159" lon="-0.1647667453901852"><ele>88.33333333333334</ele><time>2026-03-22T16:43:17Z</time></trkpt><trkpt lat="47.26870754789153" lon="-0.16476599012277005"><ele>89.0</ele><time>2026-03-22T16:43:18Z</time></trkpt><trkpt lat="47.26878031561457" lon="-0.1647586020953418"><ele>89.0</ele><time>2026-03-22T16:43:19Z</time></trkpt><trkpt lat="47.268894744989574" lon="-0.16477719608132071"><ele>89.0</ele><time>2026-03-22T16:43:21Z</time></trkpt><trkpt lat="47.268980595970014" lon="-0.164825129015783"><ele>89.0</ele><time>2026-03-22T16:43:23Z</time></trkpt><trkpt lat="47.26906100041316" lon="-0.16484267506307448"><ele>89.0</ele><time>2026-03-22T16:43:24Z</time></trkpt><trkpt lat="47.26912840293972" lon="-0.16483551055345044"><ele>89.0</ele><time>2026-03-22T16:43:25Z</time></trkpt><trkpt lat="47.26925443467823" lon="-0.16483830185678597"><ele>89.2</ele><time>2026-03-22T16:43:27Z</time></trkpt><trkpt lat="47.2693302011792" lon="-0.16484027321564904"><ele>89.4</ele><time>2026-03-22T16:43:28Z</time></trkpt><trkpt lat="47.26939171603657" lon="-0.16481214976110237"><ele>89.6</ele><time>2026-03-22T16:43:29Z</time></trkpt><trkpt lat="47.26947684452949" lon="-0.1647407538602868"><ele>89.8</ele><time>2026-03-22T16:43:31Z</time></trkpt><trkpt lat="47.26956962507906" lon="-0.16468523596029733"><ele>90.0</ele><time>2026-03-22T16:43:33Z</time></trkpt><trkpt lat="47.26969421599365" lon="-0.1646135874080224"><ele>90.0</ele><time>2026-03-22T16:43:35Z</time></trkpt><trkpt lat="47.26977137660339" lon="-0.16457432125029778"><ele>90.0</ele><time>2026-03-22T16:43:36Z</time></trkpt><trkpt lat="47.26985124318889" lon="-0.16453344506430417"><ele>90.0</ele><time>2026-03-22T16:43:37Z</time></trkpt><trkpt lat="47.26992760142946" lon="-0.16448777566925993"><ele>90.0</ele><time>2026-03-22T16:43:38Z</time></trkpt><trkpt lat="47.27000430358918" lon="-0.16444148826830582"><ele>90.0</ele><time>2026-03-22T16:43:39Z</time></trkpt><trkpt lat="47.27006758412479" lon="-0.16440506995832824"><ele>90.0</ele><time>2026-03-22T16:43:40Z</time></trkpt><trkpt lat="47.27017660476436" lon="-0.16433283851006775"><ele>89.6</ele><time>2026-03-22T16:43:42Z</time></trkpt><trkpt lat="47.27025856587522" lon="-0.1642852564481804"><ele>89.2</ele><time>2026-03-22T16:43:42.999Z</time></trkpt><trkpt lat="47.270358152341544" lon="-0.16421893548723746"><ele>88.80000000000001</ele><time>2026-03-22T16:43:43.999Z</time></trkpt><trkpt lat="47.27045002358709" lon="-0.16416100310690418"><ele>88.4</ele><time>2026-03-22T16:43:44.999Z</time></trkpt><trkpt lat="47.27051659171039" lon="-0.16411467251655212"><ele>88.0</ele><time>2026-03-22T16:43:45.999Z</time></trkpt><trkpt lat="47.270592666043456" lon="-0.16407007056552342"><ele>88.66666666666666</ele><time>2026-03-22T16:43:46.999Z</time></trkpt><trkpt lat="47.2706627714898" lon="-0.1640213540617504"><ele>89.33333333333333</ele><time>2026-03-22T16:43:47.999Z</time></trkpt><trkpt lat="47.270720311245974" lon="-0.1639739908622032"><ele>90.0</ele><time>2026-03-22T16:43:48.999Z</time></trkpt><trkpt lat="47.27078320900163" lon="-0.16392641226081986"><ele>90.66666666666667</ele><time>2026-03-22T16:43:50.999Z</time></trkpt><trkpt lat="47.270835602292024" lon="-0.1638639804682797"><ele>91.33333333333334</ele><time>2026-03-22T16:43:52.999Z</time></trkpt><trkpt lat="47.27093375496351" lon="-0.16380921912544283"><ele>92.0</ele><time>2026-03-22T16:43:54.999Z</time></trkpt><trkpt lat="47.27100912824894" lon="-0.1637843176720099"><ele>92.0</ele><time>2026-03-22T16:43:56.999Z</time></trkpt><trkpt lat="47.27109635008717" lon="-0.16374385913447814"><ele>92.0</ele><time>2026-03-22T16:43:58.999Z</time></trkpt><trkpt lat="47.27119028186835" lon="-0.16366099581462287"><ele>92.0</ele><time>2026-03-22T16:44:00.999Z</time></trkpt><trkpt lat="47.27122869529314" lon="-0.16355223923240475"><ele>92.0</ele><time>2026-03-22T16:44:02.999Z</time></trkpt><trkpt lat="47.27129486134045" lon="-0.1634853402116208"><ele>92.0</ele><time>2026-03-22T16:44:04.999Z</time></trkpt><trkpt lat="47.27140736988668" lon="-0.16342120164927335"><ele>91.8</ele><time>2026-03-22T16:44:06.999Z</time></trkpt><trkpt lat="47.271519674479464" lon="-0.1632954553458199"><ele>91.6</ele><time>2026-03-22T16:44:08.999Z</time></trkpt><trkpt lat="47.271607171970764" lon="-0.16322040010623992"><ele>91.39999999999999</ele><time>2026-03-22T16:44:09.999Z</time></trkpt><trkpt lat="47.27170028078974" lon="-0.16315516110840508"><ele>91.19999999999999</ele><time>2026-03-22T16:44:10.999Z</time></trkpt><trkpt lat="47.271779305419145" lon="-0.16312670336923515"><ele>91.0</ele><time>2026-03-22T16:44:11.999Z</time></trkpt><trkpt lat="47.27186567324063" lon="-0.16309596947297691"><ele>91.0</ele><time>2026-03-22T16:44:12.999Z</time></trkpt><trkpt lat="47.27194249135543" lon="-0.1630520917414959"><ele>91.0</ele><time>2026-03-22T16:44:13.999Z</time></trkpt><trkpt lat="47.27202772838463" lon="-0.1630075758238123"><ele>91.0</ele><time>2026-03-22T16:44:14.999Z</time></trkpt><trkpt lat="47.27211402101752" lon="-0.16296340987757987"><ele>91.0</ele><time>2026-03-22T16:44:15.999Z</time></trkpt><trkpt lat="47.27219110220544" lon="-0.1629144163488859"><ele>91.0</ele><time>2026-03-22T16:44:16.999Z</time></trkpt><trkpt lat="47.27227344633292" lon="-0.16289859574626697"><ele>91.0</ele><time>2026-03-22T16:44:17.999Z</time></trkpt><trkpt lat="47.27237251343705" lon="-0.1628696210005006"><ele>90.6</ele><time>2026-03-22T16:44:18.999Z</time></trkpt><trkpt lat="47.27243895667338" lon="-0.1628322418824736"><ele>90.19999999999999</ele><time>2026-03-22T16:44:19.999Z</time></trkpt><trkpt lat="47.27249720379736" lon="-0.16276730226380157"><ele>89.80000000000001</ele><time>2026-03-22T16:44:20.999Z</time></trkpt><trkpt lat="47.27255583733951" lon="-0.16270067937954516"><ele>89.4</ele><time>2026-03-22T16:44:21.999Z</time></trkpt><trkpt lat="47.27270142814286" lon="-0.16259378257806992"><ele>89.0</ele><time>2026-03-22T16:44:22.999Z</time></trkpt><trkpt lat="47.27277201609536" lon="-0.16253751740914849"><ele>89.0</ele><time>2026-03-22T16:44:23.999Z</time></trkpt><trkpt lat="47.27283290319277" lon="-0.16248795872708569"><ele>89.0</ele><time>2026-03-22T16:44:24.999Z</time></trkpt><trkpt lat="47.2729026464301" lon="-0.16244248744240605"><ele>89.0</ele><time>2026-03-22T16:44:25.999Z</time></trkpt><trkpt lat="47.273010960995606" lon="-0.1623976743434358"><ele>89.0</ele><time>2026-03-22T16:44:27.999Z</time></trkpt><trkpt lat="47.27307706713512" lon="-0.16239866972342107"><ele>89.0</ele><time>2026-03-22T16:44:28.999Z</time></trkpt><trkpt lat="47.273157282784915" lon="-0.16239275025242955"><ele>89.0</ele><time>2026-03-22T16:44:29.999Z</time></trkpt><trkpt lat="47.27322053499895" lon="-0.16238460672754396"><ele>89.14285714285714</ele><time>2026-03-22T16:44:30.999Z</time></trkpt><trkpt lat="47.27328357511225" lon="-0.16236688611554567"><ele>89.28571428571428</ele><time>2026-03-22T16:44:31.999Z</time></trkpt><trkpt lat="47.273350646017605" lon="-0.16234178387122083"><ele>89.42857142857142</ele><time>2026-03-22T16:44:32.999Z</time></trkpt><trkpt lat="47.27343171453097" lon="-0.1622995384861844"><ele>89.57142857142857</ele><time>2026-03-22T16:44:33.999Z</time></trkpt><trkpt lat="47.27349704089789" lon="-0.16224802400759392"><ele>89.71428571428572</ele><time>2026-03-22T16:44:34.999Z</time></trkpt><trkpt lat="47.27356106248375" lon="-0.16219979412825955"><ele>89.85714285714285</ele><time>2026-03-22T16:44:35.999Z</time></trkpt><trkpt lat="47.27361813375685" lon="-0.16215907023270235"><ele>90.0</ele><time>2026-03-22T16:44:36.999Z</time></trkpt><trkpt lat="47.27372318216822" lon="-0.1620868937195866"><ele>90.0</ele><time>2026-03-22T16:44:39Z</time></trkpt><trkpt lat="47.273808808862505" lon="-0.16204588812100107"><ele>90.0</ele><time>2026-03-22T16:44:40Z</time></trkpt><trkpt lat="47.27390178425513" lon="-0.16198416197664492"><ele>90.0</ele><time>2026-03-22T16:44:41Z</time></trkpt><trkpt lat="47.27399055829586" lon="-0.16192378706522545"><ele>90.0</ele><time>2026-03-22T16:44:42Z</time></trkpt><trkpt lat="47.274077244023964" lon="-0.16185909463960302"><ele>90.0</ele><time>2026-03-22T16:44:43Z</time></trkpt><trkpt lat="47.274174313947164" lon="-0.16179579344413408"><ele>90.0</ele><time>2026-03-22T16:44:44Z</time></trkpt><trkpt lat="47.27428882435624" lon="-0.1617245306113245"><ele>90.0</ele><time>2026-03-22T16:44:45Z</time></trkpt><trkpt lat="47.27442307513713" lon="-0.16164030572180402"><ele>90.0</ele><time>2026-03-22T16:44:46Z</time></trkpt><trkpt lat="47.27455108322994" lon="-0.16155192751149897"><ele>90.0</ele><time>2026-03-22T16:44:47Z</time></trkpt><trkpt lat="47.274685491607535" lon="-0.1614670516433617"><ele>89.75</ele><time>2026-03-22T16:44:48Z</time></trkpt><trkpt lat="47.274813303737005" lon="-0.16138012879933247"><ele>89.5</ele><time>2026-03-22T16:44:49Z</time></trkpt><trkpt lat="47.27492838291066" lon="-0.16130820821190484"><ele>89.25</ele><time>2026-03-22T16:44:50Z</time></trkpt><trkpt lat="47.2750250928442" lon="-0.16123093113286324"><ele>89.0</ele><time>2026-03-22T16:44:51Z</time></trkpt><trkpt lat="47.27511992599321" lon="-0.16116250983744523"><ele>89.0</ele><time>2026-03-22T16:44:52Z</time></trkpt><trkpt lat="47.27521724685516" lon="-0.16109220292834853"><ele>89.0</ele><time>2026-03-22T16:44:53Z</time></trkpt><trkpt lat="47.27531297821016" lon="-0.1610118444215972"><ele>89.0</ele><time>2026-03-22T16:44:54Z</time></trkpt><trkpt lat="47.27540539674755" lon="-0.16092820671963765"><ele>89.0</ele><time>2026-03-22T16:44:55Z</time></trkpt><trkpt lat="47.27548906988186" lon="-0.1608546670624826"><ele>89.0</ele><time>2026-03-22T16:44:56Z</time></trkpt><trkpt lat="47.275560012945064" lon="-0.160785634677489"><ele>89.80000000000001</ele><time>2026-03-22T16:44:57Z</time></trkpt><trkpt lat="47.27562126399203" lon="-0.1607217431863223"><ele>90.60000000000001</ele><time>2026-03-22T16:44:58Z</time></trkpt><trkpt lat="47.27570935974464" lon="-0.160646465736181"><ele>91.4</ele><time>2026-03-22T16:45:00Z</time></trkpt><trkpt lat="47.27579062668825" lon="-0.16058448340682385"><ele>92.2</ele><time>2026-03-22T16:45:03Z</time></trkpt><trkpt lat="47.275856415785285" lon="-0.16044166943404772"><ele>93.0</ele><time>2026-03-22T16:45:05Z</time></trkpt><trkpt lat="47.27590973620439" lon="-0.1603832330568309"><ele>93.0</ele><time>2026-03-22T16:45:06Z</time></trkpt><trkpt lat="47.275984315589156" lon="-0.16032030743838435"><ele>93.0</ele><time>2026-03-22T16:45:07Z</time></trkpt><trkpt lat="47.276063180202954" lon="-0.16025903246092532"><ele>93.0</ele><time>2026-03-22T16:45:08Z</time></trkpt><trkpt lat="47.27614201433025" lon="-0.16020107014110505"><ele>93.0</ele><time>2026-03-22T16:45:09Z</time></trkpt><trkpt lat="47.27622495746487" lon="-0.16011175552435422"><ele>93.0</ele><time>2026-03-22T16:45:10Z</time></trkpt><trkpt lat="47.276329797121036" lon="-0.1600301414972694"><ele>93.0</ele><time>2026-03-22T16:45:11Z</time></trkpt><trkpt lat="47.27642736580197" lon="-0.1599557259785535"><ele>93.0</ele><time>2026-03-22T16:45:12Z</time></trkpt><trkpt lat="47.27653023046858" lon="-0.15988674171489473"><ele>93.0</ele><time>2026-03-22T16:45:13Z</time></trkpt><trkpt lat="47.27665510046365" lon="-0.1598409208273742"><ele>93.0</ele><time>2026-03-22T16:45:14Z</time></trkpt><trkpt lat="47.27677357505228" lon="-0.15983392462583768"><ele>93.0</ele><time>2026-03-22T16:45:15Z</time></trkpt><trkpt lat="47.2768792663015" lon="-0.1598235342066175"><ele>93.0</ele><time>2026-03-22T16:45:16Z</time></trkpt><trkpt lat="47.276987767616504" lon="-0.1598366337857064"><ele>93.0</ele><time>2026-03-22T16:45:17Z</time></trkpt><trkpt lat="47.2770877059749" lon="-0.15985265242005345"><ele>93.0</ele><time>2026-03-22T16:45:18Z</time></trkpt><trkpt lat="47.27718778503071" lon="-0.15986459198183264"><ele>93.0</ele><time>2026-03-22T16:45:19Z</time></trkpt><trkpt lat="47.27727960448996" lon="-0.159866286656298"><ele>93.0</ele><time>2026-03-22T16:45:20Z</time></trkpt><trkpt lat="47.277365302781796" lon="-0.15987988688767515"><ele>93.0</ele><time>2026-03-22T16:45:21Z</time></trkpt><trkpt lat="47.27746256053343" lon="-0.15980080452081222"><ele>93.0</ele><time>2026-03-22T16:45:22Z</time></trkpt><trkpt lat="47.277562010280135" lon="-0.15971784540728493"><ele>93.0</ele><time>2026-03-22T16:45:23Z</time></trkpt><trkpt lat="47.277657316866694" lon="-0.15962196241389745"><ele>93.0</ele><time>2026-03-22T16:45:24Z</time></trkpt><trkpt lat="47.277765611534996" lon="-0.15953235588357847"><ele>93.0</ele><time>2026-03-22T16:45:25Z</time></trkpt><trkpt lat="47.27787663859328" lon="-0.15943395184958425"><ele>93.0</ele><time>2026-03-22T16:45:26Z</time></trkpt><trkpt lat="47.27799565204576" lon="-0.1593413050205024"><ele>93.0</ele><time>2026-03-22T16:45:27Z</time></trkpt><trkpt lat="47.278106835638404" lon="-0.15924096688435788"><ele>93.0</ele><time>2026-03-22T16:45:28Z</time></trkpt><trkpt lat="47.27821569881175" lon="-0.15915193348665135"><ele>93.0</ele><time>2026-03-22T16:45:29Z</time></trkpt><trkpt lat="47.27833079490496" lon="-0.15905888833106843"><ele>93.0</ele><time>2026-03-22T16:45:30Z</time></trkpt><trkpt lat="47.27842500459897" lon="-0.15898529674411518"><ele>93.0</ele><time>2026-03-22T16:45:31Z</time></trkpt><trkpt lat="47.2785148926078" lon="-0.15891189314835752"><ele>93.0</ele><time>2026-03-22T16:45:32Z</time></trkpt><trkpt lat="47.27860073524119" lon="-0.1588441328284385"><ele>93.0</ele><time>2026-03-22T16:45:33Z</time></trkpt><trkpt lat="47.27868429862193" lon="-0.15875093772865384"><ele>93.0</ele><time>2026-03-22T16:45:34Z</time></trkpt><trkpt lat="47.27877682490279" lon="-0.15867334753093718"><ele>93.0</ele><time>2026-03-22T16:45:35Z</time></trkpt><trkpt lat="47.27886811457199" lon="-0.15859754367814105"><ele>93.0</ele><time>2026-03-22T16:45:36Z</time></trkpt><trkpt lat="47.27897117208417" lon="-0.15852827711370926"><ele>93.0</ele><time>2026-03-22T16:45:37Z</time></trkpt><trkpt lat="47.279073120983696" lon="-0.15844384731076935"><ele>93.0</ele><time>2026-03-22T16:45:38Z</time></trkpt><trkpt lat="47.2791684304128" lon="-0.15836611015153657"><ele>93.0</ele><time>2026-03-22T16:45:39Z</time></trkpt><trkpt lat="47.27926500701711" lon="-0.15825822941633838"><ele>93.0</ele><time>2026-03-22T16:45:40Z</time></trkpt><trkpt lat="47.279360703593504" lon="-0.15816636461218309"><ele>93.0</ele><time>2026-03-22T16:45:41Z</time></trkpt><trkpt lat="47.27945357362214" lon="-0.15807721317892764"><ele>93.0</ele><time>2026-03-22T16:45:42Z</time></trkpt><trkpt lat="47.27953858388571" lon="-0.15799560680829633"><ele>93.0</ele><time>2026-03-22T16:45:43Z</time></trkpt><trkpt lat="47.27961911081168" lon="-0.15791830424501105"><ele>92.60000000000001</ele><time>2026-03-22T16:45:44Z</time></trkpt><trkpt lat="47.27970630939198" lon="-0.1578345971772612"><ele>92.2</ele><time>2026-03-22T16:45:45Z</time></trkpt><trkpt lat="47.27979321291812" lon="-0.1577511733582335"><ele>91.8</ele><time>2026-03-22T16:45:46Z</time></trkpt><trkpt lat="47.27988078686743" lon="-0.15769575695353902"><ele>91.4</ele><time>2026-03-22T16:45:47Z</time></trkpt><trkpt lat="47.27996227239464" lon="-0.15760946567683526"><ele>91.0</ele><time>2026-03-22T16:45:48Z</time></trkpt><trkpt lat="47.28003956494274" lon="-0.15753729466649644"><ele>91.0</ele><time>2026-03-22T16:45:49Z</time></trkpt><trkpt lat="47.280096787290525" lon="-0.157481323710775"><ele>91.0</ele><time>2026-03-22T16:45:50Z</time></trkpt><trkpt lat="47.28016589506877" lon="-0.1574331793764734"><ele>91.0</ele><time>2026-03-22T16:45:50.999Z</time></trkpt><trkpt lat="47.28022204188315" lon="-0.1573815848041519"><ele>91.0</ele><time>2026-03-22T16:45:51.999Z</time></trkpt><trkpt lat="47.2802766368399" lon="-0.1573316180869389"><ele>91.0</ele><time>2026-03-22T16:45:52.999Z</time></trkpt><trkpt lat="47.28033520418482" lon="-0.15729384956242204"><ele>91.0</ele><time>2026-03-22T16:45:53.999Z</time></trkpt><trkpt lat="47.28040312605116" lon="-0.15723876742816953"><ele>91.0</ele><time>2026-03-22T16:45:55.999Z</time></trkpt><trkpt lat="47.28032528478822" lon="-0.15731771015653273"><ele>91.0</ele><time>2026-03-22T16:46:05.999Z</time></trkpt><trkpt lat="47.280258415710186" lon="-0.1573484184176072"><ele>91.0</ele><time>2026-03-22T16:46:06.999Z</time></trkpt><trkpt lat="47.280136962152056" lon="-0.15743367545046014"><ele>91.0</ele><time>2026-03-22T16:46:08.999Z</time></trkpt><trkpt lat="47.28005256173798" lon="-0.157506502793093"><ele>91.0</ele><time>2026-03-22T16:46:09.999Z</time></trkpt><trkpt lat="47.27999026197766" lon="-0.15756374447012653"><ele>91.0</ele><time>2026-03-22T16:46:10.999Z</time></trkpt><trkpt lat="47.27990394958849" lon="-0.1576482098211057"><ele>91.0</ele><time>2026-03-22T16:46:12.999Z</time></trkpt><trkpt lat="47.27983814318393" lon="-0.15776645285730906"><ele>91.0</ele><time>2026-03-22T16:46:14.999Z</time></trkpt><trkpt lat="47.279794406305186" lon="-0.15784011476211898"><ele>91.0</ele><time>2026-03-22T16:46:17.999Z</time></trkpt><trkpt lat="47.2799142355009" lon="-0.15805977889483955"><ele>91.0</ele><time>2026-03-22T16:46:18.999Z</time></trkpt><trkpt lat="47.2799690631362" lon="-0.15817786153050573"><ele>91.6</ele><time>2026-03-22T16:46:19.999Z</time></trkpt><trkpt lat="47.27999825099347" lon="-0.15829476674533852"><ele>92.19999999999999</ele><time>2026-03-22T16:46:20.999Z</time></trkpt><trkpt lat="47.28001987257153" lon="-0.1584214743640857"><ele>92.80000000000001</ele><time>2026-03-22T16:46:21.999Z</time></trkpt><trkpt lat="47.28003679431277" lon="-0.15854725596345876"><ele>93.4</ele><time>2026-03-22T16:46:22.999Z</time></trkpt><trkpt lat="47.28006610613221" lon="-0.15870306263407213"><ele>94.0</ele><time>2026-03-22T16:46:23.999Z</time></trkpt><trkpt lat="47.28008632297881" lon="-0.15883237822817092"><ele>94.0</ele><time>2026-03-22T16:46:24.999Z</time></trkpt><trkpt lat="47.28009762372205" lon="-0.15893654918641648"><ele>94.0</ele><time>2026-03-22T16:46:25.999Z</time></trkpt><trkpt lat="47.280110738652915" lon="-0.15906986557337696"><ele>94.0</ele><time>2026-03-22T16:46:26.999Z</time></trkpt><trkpt lat="47.2801336191113" lon="-0.15921684296885258"><ele>94.0</ele><time>2026-03-22T16:46:27.999Z</time></trkpt><trkpt lat="47.28014296082884" lon="-0.15935679700579816"><ele>94.0</ele><time>2026-03-22T16:46:28.999Z</time></trkpt><trkpt lat="47.28015211653726" lon="-0.1594915570987853"><ele>94.16666666666666</ele><time>2026-03-22T16:46:29.999Z</time></trkpt><trkpt lat="47.28015155809837" lon="-0.1596232347258185"><ele>94.33333333333333</ele><time>2026-03-22T16:46:30.999Z</time></trkpt><trkpt lat="47.280159259435585" lon="-0.15974027761868295"><ele>94.5</ele><time>2026-03-22T16:46:31.999Z</time></trkpt><trkpt lat="47.28016451580602" lon="-0.15986888188748788"><ele>94.66666666666667</ele><time>2026-03-22T16:46:32.999Z</time></trkpt><trkpt lat="47.28017177675596" lon="-0.15999368623727203"><ele>94.83333333333334</ele><time>2026-03-22T16:46:33.999Z</time></trkpt><trkpt lat="47.280213919332134" lon="-0.16011366460006338"><ele>95.0</ele><time>2026-03-22T16:46:34.999Z</time></trkpt><trkpt lat="47.28026579288829" lon="-0.1602361395497388"><ele>95.6</ele><time>2026-03-22T16:46:35.999Z</time></trkpt><trkpt lat="47.28033156079005" lon="-0.16037188216881576"><ele>96.2</ele><time>2026-03-22T16:46:36.999Z</time></trkpt><trkpt lat="47.28039720861856" lon="-0.16048822394339687"><ele>96.80000000000001</ele><time>2026-03-22T16:46:37.999Z</time></trkpt><trkpt lat="47.28044540796495" lon="-0.16061680288806862"><ele>97.4</ele><time>2026-03-22T16:46:38.999Z</time></trkpt><trkpt lat="47.28049653496602" lon="-0.16071984383336144"><ele>98.0</ele><time>2026-03-22T16:46:39.999Z</time></trkpt><trkpt lat="47.28056209996927" lon="-0.16083093262757145"><ele>97.0</ele><time>2026-03-22T16:46:40.999Z</time></trkpt><trkpt lat="47.28062551962474" lon="-0.16093731613709192"><ele>96.0</ele><time>2026-03-22T16:46:41.999Z</time></trkpt><trkpt lat="47.28070054028872" lon="-0.1610324720758714"><ele>95.0</ele><time>2026-03-22T16:46:42.999Z</time></trkpt><trkpt lat="47.280796448551854" lon="-0.16115396136768173"><ele>94.0</ele><time>2026-03-22T16:46:44Z</time></trkpt><trkpt lat="47.28087810912528" lon="-0.16126839616742544"><ele>93.0</ele><time>2026-03-22T16:46:45Z</time></trkpt><trkpt lat="47.2809406865037" lon="-0.1613639334333844"><ele>93.0</ele><time>2026-03-22T16:46:46Z</time></trkpt><trkpt lat="47.28098065177767" lon="-0.16144465181339498"><ele>93.0</ele><time>2026-03-22T16:46:47Z</time></trkpt><trkpt lat="47.28105224868574" lon="-0.16153998951999768"><ele>93.0</ele><time>2026-03-22T16:46:48Z</time></trkpt><trkpt lat="47.28110561698399" lon="-0.16164814626346627"><ele>93.0</ele><time>2026-03-22T16:46:49Z</time></trkpt><trkpt lat="47.281150239804134" lon="-0.16172242942451182"><ele>93.0</ele><time>2026-03-22T16:46:50Z</time></trkpt><trkpt lat="47.28120050674671" lon="-0.1618052661478366"><ele>93.0</ele><time>2026-03-22T16:46:51Z</time></trkpt><trkpt lat="47.28125337089562" lon="-0.16189221771076368"><ele>93.0</ele><time>2026-03-22T16:46:52Z</time></trkpt><trkpt lat="47.28134270093877" lon="-0.1620088784216219"><ele>93.0</ele><time>2026-03-22T16:46:53Z</time></trkpt><trkpt lat="47.28142107508979" lon="-0.16211894472904853"><ele>93.0</ele><time>2026-03-22T16:46:54Z</time></trkpt><trkpt lat="47.28147575060783" lon="-0.16221702680647967"><ele>93.0</ele><time>2026-03-22T16:46:55Z</time></trkpt><trkpt lat="47.28154035990192" lon="-0.1623128450572875"><ele>93.0</ele><time>2026-03-22T16:46:56Z</time></trkpt><trkpt lat="47.28159419122978" lon="-0.16240831279751908"><ele>93.0</ele><time>2026-03-22T16:46:57Z</time></trkpt><trkpt lat="47.281650888861115" lon="-0.16252161755935862"><ele>93.0</ele><time>2026-03-22T16:46:58Z</time></trkpt><trkpt lat="47.28169128363307" lon="-0.16262412891706765"><ele>93.0</ele><time>2026-03-22T16:46:59Z</time></trkpt><trkpt lat="47.28172448081958" lon="-0.16272248120140825"><ele>93.0</ele><time>2026-03-22T16:47:00Z</time></trkpt><trkpt lat="47.28176978980848" lon="-0.1628456157199719"><ele>93.0</ele><time>2026-03-22T16:47:01Z</time></trkpt><trkpt lat="47.281827541536515" lon="-0.16296440933990292"><ele>93.0</ele><time>2026-03-22T16:47:02Z</time></trkpt><trkpt lat="47.281884910110506" lon="-0.16307949024320553"><ele>93.0</ele><time>2026-03-22T16:47:03Z</time></trkpt><trkpt lat="47.281911384306845" lon="-0.1631778335982195"><ele>93.0</ele><time>2026-03-22T16:47:04Z</time></trkpt><trkpt lat="47.28194652385036" lon="-0.16329906386890386"><ele>93.0</ele><time>2026-03-22T16:47:05Z</time></trkpt><trkpt lat="47.28200594057928" lon="-0.16344316237940676"><ele>93.0</ele><time>2026-03-22T16:47:06Z</time></trkpt><trkpt lat="47.28205980114041" lon="-0.16355976125289146"><ele>93.0</ele><time>2026-03-22T16:47:07Z</time></trkpt><trkpt lat="47.28211252671146" lon="-0.16367296904037676"><ele>93.0</ele><time>2026-03-22T16:47:08Z</time></trkpt><trkpt lat="47.28215335084635" lon="-0.16375863752236158"><ele>93.0</ele><time>2026-03-22T16:47:09Z</time></trkpt><trkpt lat="47.28218702068955" lon="-0.1638507914243464"><ele>93.0</ele><time>2026-03-22T16:47:10Z</time></trkpt><trkpt lat="47.282272962529106" lon="-0.16398273864892415"><ele>93.0</ele><time>2026-03-22T16:47:12Z</time></trkpt><trkpt lat="47.2823153907505" lon="-0.16407972224395986"><ele>93.0</ele><time>2026-03-22T16:47:13Z</time></trkpt><trkpt lat="47.282355921064514" lon="-0.1641756383458181"><ele>93.0</ele><time>2026-03-22T16:47:14Z</time></trkpt><trkpt lat="47.28243793558384" lon="-0.1642708389419833"><ele>93.0</ele><time>2026-03-22T16:47:15Z</time></trkpt><trkpt lat="47.2825077319501" lon="-0.16438051600225112"><ele>93.0</ele><time>2026-03-22T16:47:16Z</time></trkpt><trkpt lat="47.28257056141274" lon="-0.16445647955955234"><ele>93.0</ele><time>2026-03-22T16:47:17Z</time></trkpt><trkpt lat="47.28261927612932" lon="-0.1645246117370692"><ele>93.0</ele><time>2026-03-22T16:47:18Z</time></trkpt><trkpt lat="47.282668066928856" lon="-0.1645926552336974"><ele>93.0</ele><time>2026-03-22T16:47:19Z</time></trkpt><trkpt lat="47.28272510591164" lon="-0.1646391488127906"><ele>93.0</ele><time>2026-03-22T16:47:20Z</time></trkpt><trkpt lat="47.28278681903526" lon="-0.16470576520136093"><ele>93.0</ele><time>2026-03-22T16:47:21Z</time></trkpt><trkpt lat="47.282852000966415" lon="-0.16479335286213917"><ele>93.0</ele><time>2026-03-22T16:47:22Z</time></trkpt><trkpt lat="47.282901864411784" lon="-0.16487597238758966"><ele>93.0</ele><time>2026-03-22T16:47:23Z</time></trkpt><trkpt lat="47.28294413921574" lon="-0.16499541549040814"><ele>93.0</ele><time>2026-03-22T16:47:34Z</time></trkpt><trkpt lat="47.28288923552521" lon="-0.16504333573168678"><ele>93.0</ele><time>2026-03-22T16:47:35Z</time></trkpt><trkpt lat="47.282786341668576" lon="-0.16515136353611204"><ele>93.0</ele><time>2026-03-22T16:47:37Z</time></trkpt><trkpt lat="47.28270640666572" lon="-0.16521213306113963"><ele>93.16666666666667</ele><time>2026-03-22T16:47:38Z</time></trkpt><trkpt lat="47.28262157145325" lon="-0.1652623494864535"><ele>93.33333333333333</ele><time>2026-03-22T16:47:39Z</time></trkpt><trkpt lat="47.28254507975187" lon="-0.16533029511254496"><ele>93.5</ele><time>2026-03-22T16:47:40Z</time></trkpt><trkpt lat="47.282485802650314" lon="-0.16540061332537884"><ele>93.66666666666666</ele><time>2026-03-22T16:47:41Z</time></trkpt><trkpt lat="47.282421616002026" lon="-0.16549919952251882"><ele>93.83333333333333</ele><time>2026-03-22T16:47:43Z</time></trkpt><trkpt lat="47.282344131700775" lon="-0.16556866968475378"><ele>94.0</ele><time>2026-03-22T16:47:45Z</time></trkpt><trkpt lat="47.28223314160561" lon="-0.16566222329607472"><ele>93.83333333333333</ele><time>2026-03-22T16:47:47Z</time></trkpt><trkpt lat="47.282178799363045" lon="-0.1657300564655254"><ele>93.66666666666666</ele><time>2026-03-22T16:47:48Z</time></trkpt><trkpt lat="47.2821133959025" lon="-0.1657799856209525"><ele>93.5</ele><time>2026-03-22T16:47:49Z</time></trkpt><trkpt lat="47.282043248223744" lon="-0.1658380410545107"><ele>93.33333333333333</ele><time>2026-03-22T16:47:50Z</time></trkpt><trkpt lat="47.281966370860594" lon="-0.1658847907550557"><ele>93.16666666666667</ele><time>2026-03-22T16:47:51Z</time></trkpt><trkpt lat="47.28188272851455" lon="-0.16594145965835466"><ele>93.0</ele><time>2026-03-22T16:47:52Z</time></trkpt><trkpt lat="47.281808451593264" lon="-0.16598027699432127"><ele>93.0</ele><time>2026-03-22T16:47:53Z</time></trkpt><trkpt lat="47.281694836279954" lon="-0.16599097181883582"><ele>93.0</ele><time>2026-03-22T16:47:55Z</time></trkpt><trkpt lat="47.28159491727109" lon="-0.16599859367237044"><ele>93.0</ele><time>2026-03-22T16:47:57Z</time></trkpt><trkpt lat="47.28149457026515" lon="-0.16599877164397236"><ele>93.0</ele><time>2026-03-22T16:47:58.999Z</time></trkpt><trkpt lat="47.28142008965247" lon="-0.16601506256438012"><ele>93.0</ele><time>2026-03-22T16:47:59.999Z</time></trkpt><trkpt lat="47.28133969519452" lon="-0.1660377571439563"><ele>93.0</ele><time>2026-03-22T16:48:00.999Z</time></trkpt><trkpt lat="47.28127175355618" lon="-0.16607195206761008"><ele>93.0</ele><time>2026-03-22T16:48:01.999Z</time></trkpt><trkpt lat="47.281202631645144" lon="-0.16609185872658955"><ele>93.0</ele><time>2026-03-22T16:48:02.999Z</time></trkpt><trkpt lat="47.28112781769727" lon="-0.1661033640851443"><ele>93.0</ele><time>2026-03-22T16:48:03.999Z</time></trkpt><trkpt lat="47.28104301537332" lon="-0.16613616182463628"><ele>93.0</ele><time>2026-03-22T16:48:04.999Z</time></trkpt><trkpt lat="47.28093425192432" lon="-0.16616509176299996"><ele>93.0</ele><time>2026-03-22T16:48:05.999Z</time></trkpt><trkpt lat="47.28086253202016" lon="-0.16617993247656995"><ele>93.0</ele><time>2026-03-22T16:48:06.999Z</time></trkpt><trkpt lat="47.280755903025764" lon="-0.16620201691346628"><ele>93.0</ele><time>2026-03-22T16:48:08.999Z</time></trkpt><trkpt lat="47.280620385494636" lon="-0.1662536263549734"><ele>93.0</ele><time>2026-03-22T16:48:10.999Z</time></trkpt><trkpt lat="47.28052252761135" lon="-0.16627894454390268"><ele>93.0</ele><time>2026-03-22T16:48:11.999Z</time></trkpt><trkpt lat="47.280455199279864" lon="-0.16632009387530777"><ele>93.0</ele><time>2026-03-22T16:48:12.999Z</time></trkpt><trkpt lat="47.2803475333748" lon="-0.16638065168609778"><ele>93.0</ele><time>2026-03-22T16:48:14.999Z</time></trkpt><trkpt lat="47.280258923929686" lon="-0.16638238188814283"><ele>93.0</ele><time>2026-03-22T16:48:15.999Z</time></trkpt><trkpt lat="47.28014563036871" lon="-0.16640605442377338"><ele>93.0</ele><time>2026-03-22T16:48:16.999Z</time></trkpt><trkpt lat="47.280038906522854" lon="-0.16643590145709916"><ele>93.0</ele><time>2026-03-22T16:48:17.999Z</time></trkpt><trkpt lat="47.279957269434966" lon="-0.1664582058147007"><ele>93.0</ele><time>2026-03-22T16:48:18.999Z</time></trkpt><trkpt lat="47.27987720325648" lon="-0.16648351675120485"><ele>93.0</ele><time>2026-03-22T16:48:19.999Z</time></trkpt><trkpt lat="47.27980736987057" lon="-0.16651206572928134"><ele>93.0</ele><time>2026-03-22T16:48:20.999Z</time></trkpt><trkpt lat="47.27974432799667" lon="-0.1665444301816564"><ele>93.0</ele><time>2026-03-22T16:48:21.999Z</time></trkpt><trkpt lat="47.27967411224001" lon="-0.1665943447827766"><ele>93.0</ele><time>2026-03-22T16:48:22.999Z</time></trkpt><trkpt lat="47.2795988971521" lon="-0.1666532497156325"><ele>93.0</ele><time>2026-03-22T16:48:23.999Z</time></trkpt><trkpt lat="47.27950630892706" lon="-0.16673314618126436"><ele>93.0</ele><time>2026-03-22T16:48:24.999Z</time></trkpt><trkpt lat="47.27940366334919" lon="-0.16683423978598252"><ele>93.0</ele><time>2026-03-22T16:48:25.999Z</time></trkpt><trkpt lat="47.27929752389456" lon="-0.16692961727684347"><ele>93.0</ele><time>2026-03-22T16:48:26.999Z</time></trkpt><trkpt lat="47.279172480573266" lon="-0.16702931382347933"><ele>93.0</ele><time>2026-03-22T16:48:27.999Z</time></trkpt><trkpt lat="47.27905604454779" lon="-0.16714218503081396"><ele>93.0</ele><time>2026-03-22T16:48:28.999Z</time></trkpt><trkpt lat="47.27894807949321" lon="-0.16724298011313507"><ele>92.80000000000001</ele><time>2026-03-22T16:48:29.999Z</time></trkpt><trkpt lat="47.27886284316815" lon="-0.16732478761846895"><ele>92.6</ele><time>2026-03-22T16:48:30.999Z</time></trkpt><trkpt lat="47.278796853304364" lon="-0.16739073678464092"><ele>92.4</ele><time>2026-03-22T16:48:31.999Z</time></trkpt><trkpt lat="47.27873067987217" lon="-0.1674396057186978"><ele>92.19999999999999</ele><time>2026-03-22T16:48:32.999Z</time></trkpt><trkpt lat="47.27870572673265" lon="-0.16769011898317437"><ele>92.0</ele><time>2026-03-22T16:48:34.999Z</time></trkpt><trkpt lat="47.27863495513385" lon="-0.16775803113697332"><ele>92.0</ele><time>2026-03-22T16:48:36.999Z</time></trkpt><trkpt lat="47.2785312803218" lon="-0.1678380016417396"><ele>92.0</ele><time>2026-03-22T16:48:38.999Z</time></trkpt><trkpt lat="47.27846812141051" lon="-0.16793338860996304"><ele>92.0</ele><time>2026-03-22T16:48:39.999Z</time></trkpt><trkpt lat="47.278397710708326" lon="-0.16803560320223337"><ele>92.0</ele><time>2026-03-22T16:48:40.999Z</time></trkpt><trkpt lat="47.27832100694662" lon="-0.16814688788105292"><ele>92.0</ele><time>2026-03-22T16:48:41.999Z</time></trkpt><trkpt lat="47.27824399694892" lon="-0.16825318189748495"><ele>92.0</ele><time>2026-03-22T16:48:42.999Z</time></trkpt><trkpt lat="47.27816439774149" lon="-0.16835670456626012"><ele>92.0</ele><time>2026-03-22T16:48:43.999Z</time></trkpt><trkpt lat="47.27808729490791" lon="-0.16845860050791098"><ele>92.0</ele><time>2026-03-22T16:48:44.999Z</time></trkpt><trkpt lat="47.27802464990558" lon="-0.16854847893242939"><ele>92.0</ele><time>2026-03-22T16:48:45.999Z</time></trkpt><trkpt lat="47.277963435493305" lon="-0.16862488666641495"><ele>92.0</ele><time>2026-03-22T16:48:46.999Z</time></trkpt><trkpt lat="47.277906879996216" lon="-0.1686827637434514"><ele>92.0</ele><time>2026-03-22T16:48:47.999Z</time></trkpt><trkpt lat="47.27784177302227" lon="-0.16874198743002963"><ele>92.0</ele><time>2026-03-22T16:48:48.999Z</time></trkpt><trkpt lat="47.277767014766724" lon="-0.16878171216151389"><ele>92.0</ele><time>2026-03-22T16:48:50Z</time></trkpt><trkpt lat="47.27769646405721" lon="-0.1688071322164501"><ele>92.0</ele><time>2026-03-22T16:48:51Z</time></trkpt><trkpt lat="47.27762791411016" lon="-0.16877305915696"><ele>92.0</ele><time>2026-03-22T16:48:52Z</time></trkpt><trkpt lat="47.27757725197034" lon="-0.16867604061007224"><ele>92.0</ele><time>2026-03-22T16:48:53Z</time></trkpt><trkpt lat="47.27752274182721" lon="-0.16858716473797844"><ele>92.0</ele><time>2026-03-22T16:48:54Z</time></trkpt><trkpt lat="47.277470016707525" lon="-0.16847831356686999"><ele>92.0</ele><time>2026-03-22T16:48:55Z</time></trkpt><trkpt lat="47.277401681471794" lon="-0.16838914607056615"><ele>92.0</ele><time>2026-03-22T16:48:56Z</time></trkpt><trkpt lat="47.27735167484445" lon="-0.16830152191960704"><ele>92.0</ele><time>2026-03-22T16:48:57Z</time></trkpt><trkpt lat="47.277308128629265" lon="-0.16822521790744943"><ele>92.0</ele><time>2026-03-22T16:48:58Z</time></trkpt><trkpt lat="47.277255127788735" lon="-0.1681088718399562"><ele>92.0</ele><time>2026-03-22T16:49:00Z</time></trkpt><trkpt lat="47.277094418326094" lon="-0.16822662534095456"><ele>91.75</ele><time>2026-03-22T16:49:03Z</time></trkpt><trkpt lat="47.27700511204019" lon="-0.16830201605628342"><ele>91.5</ele><time>2026-03-22T16:49:04Z</time></trkpt><trkpt lat="47.276910075706574" lon="-0.16837334253969566"><ele>91.25</ele><time>2026-03-22T16:49:05Z</time></trkpt><trkpt lat="47.27679774298929" lon="-0.16845659941057195"><ele>91.0</ele><time>2026-03-22T16:49:06Z</time></trkpt><trkpt lat="47.27668057264972" lon="-0.16854064812694974"><ele>91.0</ele><time>2026-03-22T16:49:07Z</time></trkpt><trkpt lat="47.27657555355502" lon="-0.1686209920807544"><ele>91.0</ele><time>2026-03-22T16:49:08Z</time></trkpt><trkpt lat="47.27647906266502" lon="-0.16869919061717675"><ele>91.0</ele><time>2026-03-22T16:49:09Z</time></trkpt><trkpt lat="47.27639410192981" lon="-0.16878918561872744"><ele>91.0</ele><time>2026-03-22T16:49:10Z</time></trkpt><trkpt lat="47.276302573587195" lon="-0.1689052038743842"><ele>91.0</ele><time>2026-03-22T16:49:11Z</time></trkpt><trkpt lat="47.27620935722141" lon="-0.169041256772707"><ele>91.0</ele><time>2026-03-22T16:49:12Z</time></trkpt><trkpt lat="47.27612131787422" lon="-0.1691814406931008"><ele>91.0</ele><time>2026-03-22T16:49:13Z</time></trkpt><trkpt lat="47.2760398431861" lon="-0.169317792394479"><ele>91.0</ele><time>2026-03-22T16:49:14Z</time></trkpt><trkpt lat="47.275959892119815" lon="-0.16944704549468131"><ele>91.0</ele><time>2026-03-22T16:49:15Z</time></trkpt><trkpt lat="47.27588099126948" lon="-0.16957159642490383"><ele>91.0</ele><time>2026-03-22T16:49:16Z</time></trkpt><trkpt lat="47.27580587391586" lon="-0.1696745730367648"><ele>91.0</ele><time>2026-03-22T16:49:17Z</time></trkpt><trkpt lat="47.275725588080505" lon="-0.16976199018393653"><ele>91.0</ele><time>2026-03-22T16:49:18Z</time></trkpt><trkpt lat="47.2756344263059" lon="-0.16983425586513276"><ele>91.0</ele><time>2026-03-22T16:49:19Z</time></trkpt><trkpt lat="47.275526532548675" lon="-0.16989075330319156"><ele>91.19999999999999</ele><time>2026-03-22T16:49:20Z</time></trkpt><trkpt lat="47.2754218116186" lon="-0.16994724409180142"><ele>91.39999999999999</ele><time>2026-03-22T16:49:21Z</time></trkpt><trkpt lat="47.27531332696681" lon="-0.17000870094859724"><ele>91.6</ele><time>2026-03-22T16:49:22Z</time></trkpt><trkpt lat="47.27521211675246" lon="-0.17007715815352714"><ele>91.8</ele><time>2026-03-22T16:49:23Z</time></trkpt><trkpt lat="47.27512190419693" lon="-0.1701481098354862"><ele>92.0</ele><time>2026-03-22T16:49:24Z</time></trkpt><trkpt lat="47.27503260384149" lon="-0.1702075964878368"><ele>92.0</ele><time>2026-03-22T16:49:25Z</time></trkpt><trkpt lat="47.274936789654284" lon="-0.17027441128095186"><ele>92.0</ele><time>2026-03-22T16:49:26Z</time></trkpt><trkpt lat="47.27483548942342" lon="-0.17034226454640536"><ele>92.0</ele><time>2026-03-22T16:49:27Z</time></trkpt><trkpt lat="47.274733100583326" lon="-0.1704188847506132"><ele>92.0</ele><time>2026-03-22T16:49:28Z</time></trkpt><trkpt lat="47.27461701844333" lon="-0.1705028665198085"><ele>92.0</ele><time>2026-03-22T16:49:29Z</time></trkpt><trkpt lat="47.27452317758122" lon="-0.17057639991730703"><ele>92.0</ele><time>2026-03-22T16:49:30Z</time></trkpt><trkpt lat="47.27443267050109" lon="-0.17063291987978305"><ele>92.0</ele><time>2026-03-22T16:49:31Z</time></trkpt><trkpt lat="47.27433352714134" lon="-0.17069785211805188"><ele>92.0</ele><time>2026-03-22T16:49:32Z</time></trkpt><trkpt lat="47.27423503048422" lon="-0.17076354050955536"><ele>92.0</ele><time>2026-03-22T16:49:33Z</time></trkpt><trkpt lat="47.27413810562891" lon="-0.1708298734363258"><ele>92.0</ele><time>2026-03-22T16:49:34Z</time></trkpt><trkpt lat="47.27404962901537" lon="-0.1708949967012807"><ele>92.0</ele><time>2026-03-22T16:49:35Z</time></trkpt><trkpt lat="47.27396166486314" lon="-0.1709554025082685"><ele>92.0</ele><time>2026-03-22T16:49:36Z</time></trkpt><trkpt lat="47.27388624254648" lon="-0.17100324531839767"><ele>92.0</ele><time>2026-03-22T16:49:37Z</time></trkpt><trkpt lat="47.273814409937884" lon="-0.1710581992131627"><ele>92.0</ele><time>2026-03-22T16:49:38Z</time></trkpt><trkpt lat="47.273753905806075" lon="-0.1711185338236112"><ele>92.0</ele><time>2026-03-22T16:49:39Z</time></trkpt><trkpt lat="47.27368879211489" lon="-0.17120228471449186"><ele>91.8</ele><time>2026-03-22T16:49:40Z</time></trkpt><trkpt lat="47.273625978793646" lon="-0.17132501010781134"><ele>91.6</ele><time>2026-03-22T16:49:41Z</time></trkpt><trkpt lat="47.27355758861012" lon="-0.17145826829639796"><ele>91.39999999999999</ele><time>2026-03-22T16:49:42Z</time></trkpt><trkpt lat="47.27348181050519" lon="-0.17158622614308253"><ele>91.19999999999999</ele><time>2026-03-22T16:49:43Z</time></trkpt><trkpt lat="47.27340777882139" lon="-0.1717160056617616"><ele>91.0</ele><time>2026-03-22T16:49:44Z</time></trkpt><trkpt lat="47.27334907566371" lon="-0.17182724606155958"><ele>90.66666666666666</ele><time>2026-03-22T16:49:45Z</time></trkpt><trkpt lat="47.27329169547004" lon="-0.17192152834926636"><ele>90.33333333333333</ele><time>2026-03-22T16:49:46Z</time></trkpt><trkpt lat="47.27324773006027" lon="-0.17202492658701074"><ele>90.0</ele><time>2026-03-22T16:49:47Z</time></trkpt><trkpt lat="47.27320836510859" lon="-0.1721286253788202"><ele>89.66666666666667</ele><time>2026-03-22T16:49:48Z</time></trkpt><trkpt lat="47.27319839678928" lon="-0.17223627527472918"><ele>89.33333333333334</ele><time>2026-03-22T16:49:49Z</time></trkpt><trkpt lat="47.273192731549145" lon="-0.17234379854783766"><ele>89.0</ele><time>2026-03-22T16:49:50Z</time></trkpt><trkpt lat="47.27316745276691" lon="-0.17247502017241664"><ele>88.80000000000001</ele><time>2026-03-22T16:49:51Z</time></trkpt><trkpt lat="47.27314473330745" lon="-0.17262443934935884"><ele>88.60000000000001</ele><time>2026-03-22T16:49:52Z</time></trkpt><trkpt lat="47.27311670536168" lon="-0.1727349161752237"><ele>88.4</ele><time>2026-03-22T16:49:53Z</time></trkpt><trkpt lat="47.27305080008136" lon="-0.17289729835728554"><ele>88.2</ele><time>2026-03-22T16:49:55Z</time></trkpt><trkpt lat="47.27301355582529" lon="-0.1729973865888869"><ele>88.0</ele><time>2026-03-22T16:49:56Z</time></trkpt><trkpt lat="47.27296656331592" lon="-0.17308604125682792"><ele>87.80000000000001</ele><time>2026-03-22T16:49:57Z</time></trkpt><trkpt lat="47.27289625372169" lon="-0.1732190014427991"><ele>87.6</ele><time>2026-03-22T16:49:59Z</time></trkpt><trkpt lat="47.27284194534519" lon="-0.17326670444137238"><ele>87.4</ele><time>2026-03-22T16:50:00Z</time></trkpt><trkpt lat="47.27277434639901" lon="-0.173314111778481"><ele>87.19999999999999</ele><time>2026-03-22T16:50:01Z</time></trkpt><trkpt lat="47.2726828379234" lon="-0.17338685848968513"><ele>87.0</ele><time>2026-03-22T16:50:02Z</time></trkpt><trkpt lat="47.272585210647726" lon="-0.17342515748440485"><ele>87.0</ele><time>2026-03-22T16:50:03Z</time></trkpt><trkpt lat="47.272514608212724" lon="-0.1734614481238809"><ele>87.0</ele><time>2026-03-22T16:50:04Z</time></trkpt><trkpt lat="47.272458883796254" lon="-0.17350861114812494"><ele>87.0</ele><time>2026-03-22T16:50:05Z</time></trkpt><trkpt lat="47.272394929765554" lon="-0.17355669804376656"><ele>87.0</ele><time>2026-03-22T16:50:06Z</time></trkpt><trkpt lat="47.272303476997294" lon="-0.17360660576674147"><ele>87.0</ele><time>2026-03-22T16:50:06.999Z</time></trkpt><trkpt lat="47.27223808068313" lon="-0.17367242561564153"><ele>87.0</ele><time>2026-03-22T16:50:07.999Z</time></trkpt><trkpt lat="47.272170445386486" lon="-0.17374790768565884"><ele>87.0</ele><time>2026-03-22T16:50:08.999Z</time></trkpt><trkpt lat="47.272090255476414" lon="-0.17381742018995888"><ele>87.0</ele><time>2026-03-22T16:50:09.999Z</time></trkpt><trkpt lat="47.272023791615645" lon="-0.17386600988909776"><ele>87.0</ele><time>2026-03-22T16:50:10.999Z</time></trkpt><trkpt lat="47.27192249161718" lon="-0.173958621488563"><ele>87.0</ele><time>2026-03-22T16:50:12.999Z</time></trkpt><trkpt lat="47.271896411829076" lon="-0.1740496098328321"><ele>87.0</ele><time>2026-03-22T16:50:14.999Z</time></trkpt><trkpt lat="47.271869587962705" lon="-0.17414760484993014"><ele>87.0</ele><time>2026-03-22T16:50:18.999Z</time></trkpt><trkpt lat="47.27183499834738" lon="-0.17425433305690574"><ele>86.83333333333333</ele><time>2026-03-22T16:50:20.999Z</time></trkpt><trkpt lat="47.27183764257141" lon="-0.1743663539889594"><ele>86.66666666666667</ele><time>2026-03-22T16:50:22.999Z</time></trkpt><trkpt lat="47.27178389514794" lon="-0.1744325527265138"><ele>86.5</ele><time>2026-03-22T16:50:24.999Z</time></trkpt><trkpt lat="47.27173049809241" lon="-0.17436017385957894"><ele>86.33333333333334</ele><time>2026-03-22T16:50:26.999Z</time></trkpt><trkpt lat="47.27175941451749" lon="-0.17423898129006882"><ele>86.16666666666667</ele><time>2026-03-22T16:50:28.999Z</time></trkpt><trkpt lat="47.27185583628937" lon="-0.17412092842926638"><ele>86.0</ele><time>2026-03-22T16:50:30.999Z</time></trkpt><trkpt lat="47.271896289204264" lon="-0.1740425233802036"><ele>86.16666666666667</ele><time>2026-03-22T16:50:31.999Z</time></trkpt><trkpt lat="47.271931216231756" lon="-0.17395960129497726"><ele>86.33333333333334</ele><time>2026-03-22T16:50:32.999Z</time></trkpt><trkpt lat="47.27197850222963" lon="-0.1738952520891965"><ele>86.5</ele><time>2026-03-22T16:50:33.999Z</time></trkpt><trkpt lat="47.27204224756974" lon="-0.17384408883751815"><ele>86.66666666666667</ele><time>2026-03-22T16:50:34.999Z</time></trkpt><trkpt lat="47.27213358085059" lon="-0.1737753696076115"><ele>86.83333333333333</ele><time>2026-03-22T16:50:35.999Z</time></trkpt><trkpt lat="47.27220757901333" lon="-0.1737322031970753"><ele>87.0</ele><time>2026-03-22T16:50:36.999Z</time></trkpt><trkpt lat="47.27226727822095" lon="-0.17367938281300813"><ele>87.0</ele><time>2026-03-22T16:50:37.999Z</time></trkpt><trkpt lat="47.27232367921814" lon="-0.17361518774778137"><ele>87.0</ele><time>2026-03-22T16:50:38.999Z</time></trkpt><trkpt lat="47.272376685960374" lon="-0.17356368893666835"><ele>87.0</ele><time>2026-03-22T16:50:39.999Z</time></trkpt><trkpt lat="47.272476742431074" lon="-0.17353330170152295"><ele>87.0</ele><time>2026-03-22T16:50:40.999Z</time></trkpt><trkpt lat="47.27256124203166" lon="-0.1734847109373682"><ele>87.0</ele><time>2026-03-22T16:50:41.999Z</time></trkpt><trkpt lat="47.2726259162149" lon="-0.1734370624318057"><ele>87.0</ele><time>2026-03-22T16:50:42.999Z</time></trkpt><trkpt lat="47.272699686426535" lon="-0.17339401033573573"><ele>87.0</ele><time>2026-03-22T16:50:43.999Z</time></trkpt><trkpt lat="47.27277097513898" lon="-0.1733578350332198"><ele>87.0</ele><time>2026-03-22T16:50:44.999Z</time></trkpt><trkpt lat="47.272831567885056" lon="-0.1733130104956412"><ele>87.0</ele><time>2026-03-22T16:50:45.999Z</time></trkpt><trkpt lat="47.27289657574137" lon="-0.17321875993521027"><ele>87.0</ele><time>2026-03-22T16:50:46.999Z</time></trkpt><trkpt lat="47.272944073588874" lon="-0.1731417620327131"><ele>87.0</ele><time>2026-03-22T16:50:47.999Z</time></trkpt><trkpt lat="47.27298845460328" lon="-0.17304692262787594"><ele>87.0</ele><time>2026-03-22T16:50:48.999Z</time></trkpt><trkpt lat="47.273032810575494" lon="-0.17295708333802798"><ele>87.19999999999999</ele><time>2026-03-22T16:50:49.999Z</time></trkpt><trkpt lat="47.27308197378217" lon="-0.1728464414596029"><ele>87.4</ele><time>2026-03-22T16:50:50.999Z</time></trkpt><trkpt lat="47.273123841380965" lon="-0.17273057621863583"><ele>87.6</ele><time>2026-03-22T16:50:51.999Z</time></trkpt><trkpt lat="47.273157836590116" lon="-0.1726042130537461"><ele>87.80000000000001</ele><time>2026-03-22T16:50:52.999Z</time></trkpt><trkpt lat="47.27317916393578" lon="-0.17247828251380704"><ele>88.0</ele><time>2026-03-22T16:50:53.999Z</time></trkpt><trkpt lat="47.27319701649248" lon="-0.17232284717842236"><ele>88.16666666666666</ele><time>2026-03-22T16:50:56Z</time></trkpt><trkpt lat="47.27317917000294" lon="-0.17223234845062074"><ele>88.33333333333333</ele><time>2026-03-22T16:50:58Z</time></trkpt><trkpt lat="47.27311365245718" lon="-0.17226439815569036"><ele>88.5</ele><time>2026-03-22T16:51:00Z</time></trkpt><trkpt lat="47.27302661658908" lon="-0.17235434777171207"><ele>88.66666666666667</ele><time>2026-03-22T16:51:02Z</time></trkpt><trkpt lat="47.2729131435999" lon="-0.17234876924705503"><ele>88.83333333333334</ele><time>2026-03-22T16:51:04Z</time></trkpt><trkpt lat="47.27283837489503" lon="-0.1723147956907466"><ele>89.0</ele><time>2026-03-22T16:51:05Z</time></trkpt><trkpt lat="47.27275576600411" lon="-0.17226541282276364"><ele>89.2</ele><time>2026-03-22T16:51:06Z</time></trkpt><trkpt lat="47.272675691651635" lon="-0.1722204027877938"><ele>89.4</ele><time>2026-03-22T16:51:07Z</time></trkpt><trkpt lat="47.272588180372544" lon="-0.17217014719289012"><ele>89.6</ele><time>2026-03-22T16:51:08Z</time></trkpt><trkpt lat="47.27249143484643" lon="-0.17210755930729746"><ele>89.8</ele><time>2026-03-22T16:51:09Z</time></trkpt><trkpt lat="47.272414346938675" lon="-0.17204987841678515"><ele>90.0</ele><time>2026-03-22T16:51:10Z</time></trkpt><trkpt lat="47.27231996252413" lon="-0.17198872753995084"><ele>89.75</ele><time>2026-03-22T16:51:12Z</time></trkpt><trkpt lat="47.272182253141104" lon="-0.17195980438961062"><ele>89.5</ele><time>2026-03-22T16:51:14Z</time></trkpt><trkpt lat="47.27206287478333" lon="-0.1719490640864171"><ele>89.25</ele><time>2026-03-22T16:51:15Z</time></trkpt><trkpt lat="47.2719552092879" lon="-0.17193979509485677"><ele>89.0</ele><time>2026-03-22T16:51:16Z</time></trkpt><trkpt lat="47.27186975831539" lon="-0.17191633538586293"><ele>89.0</ele><time>2026-03-22T16:51:17Z</time></trkpt><trkpt lat="47.27179053914328" lon="-0.1719172100400334"><ele>89.0</ele><time>2026-03-22T16:51:18Z</time></trkpt><trkpt lat="47.271712204666215" lon="-0.17191969020899625"><ele>89.0</ele><time>2026-03-22T16:51:19Z</time></trkpt><trkpt lat="47.27161593704364" lon="-0.1719163616622788"><ele>89.0</ele><time>2026-03-22T16:51:20Z</time></trkpt><trkpt lat="47.271511941593964" lon="-0.1719086506024692"><ele>89.0</ele><time>2026-03-22T16:51:21Z</time></trkpt><trkpt lat="47.27139684057943" lon="-0.17188410511252977"><ele>88.6</ele><time>2026-03-22T16:51:22Z</time></trkpt><trkpt lat="47.271294393240005" lon="-0.17190783774354182"><ele>88.2</ele><time>2026-03-22T16:51:23Z</time></trkpt><trkpt lat="47.27119508644923" lon="-0.17186828375459987"><ele>87.8</ele><time>2026-03-22T16:51:24Z</time></trkpt><trkpt lat="47.271115828031164" lon="-0.17181875990069706"><ele>87.39999999999999</ele><time>2026-03-22T16:51:25Z</time></trkpt><trkpt lat="47.271032185758735" lon="-0.17178575304764426"><ele>87.0</ele><time>2026-03-22T16:51:26Z</time></trkpt><trkpt lat="47.2709363040181" lon="-0.171766230679678"><ele>87.0</ele><time>2026-03-22T16:51:27Z</time></trkpt><trkpt lat="47.27082938388879" lon="-0.17176726936118147"><ele>87.0</ele><time>2026-03-22T16:51:28Z</time></trkpt><trkpt lat="47.27071497759121" lon="-0.1717827463993839"><ele>87.0</ele><time>2026-03-22T16:51:29Z</time></trkpt><trkpt lat="47.27061502879379" lon="-0.171796514992884"><ele>87.0</ele><time>2026-03-22T16:51:30Z</time></trkpt><trkpt lat="47.270526597416605" lon="-0.1718028126424159"><ele>87.0</ele><time>2026-03-22T16:51:31Z</time></trkpt><trkpt lat="47.270438962643425" lon="-0.17180631011532027"><ele>85.66666666666667</ele><time>2026-03-22T16:51:32Z</time></trkpt><trkpt lat="47.270345097374936" lon="-0.171807856753502"><ele>84.33333333333333</ele><time>2026-03-22T16:51:33Z</time></trkpt><trkpt lat="47.27025111021532" lon="-0.17178579503897787"><ele>83.0</ele><time>2026-03-22T16:51:34Z</time></trkpt><trkpt lat="47.27015888792798" lon="-0.17179583431846696"><ele>81.66666666666666</ele><time>2026-03-22T16:51:35Z</time></trkpt><trkpt lat="47.27007912043363" lon="-0.17178662515233467"><ele>80.33333333333333</ele><time>2026-03-22T16:51:36Z</time></trkpt><trkpt lat="47.270001474196604" lon="-0.17178916819932274"><ele>79.0</ele><time>2026-03-22T16:51:37Z</time></trkpt><trkpt lat="47.26993532513228" lon="-0.17178483069895303"><ele>79.0</ele><time>2026-03-22T16:51:38Z</time></trkpt><trkpt lat="47.269872360110945" lon="-0.17180281274034837"><ele>79.0</ele><time>2026-03-22T16:51:39Z</time></trkpt><trkpt lat="47.26979265902325" lon="-0.17179529030748342"><ele>79.0</ele><time>2026-03-22T16:51:41Z</time></trkpt><trkpt lat="47.26969046084781" lon="-0.1718791988695709"><ele>79.0</ele><time>2026-03-22T16:51:44Z</time></trkpt><trkpt lat="47.269647092590596" lon="-0.17196746017018852"><ele>79.0</ele><time>2026-03-22T16:51:45Z</time></trkpt><trkpt lat="47.26959092224769" lon="-0.17205086116539778"><ele>79.0</ele><time>2026-03-22T16:51:46Z</time></trkpt><trkpt lat="47.26954468647145" lon="-0.17211473137984692"><ele>78.5</ele><time>2026-03-22T16:51:47Z</time></trkpt><trkpt lat="47.26949307600039" lon="-0.17217399887758714"><ele>78.0</ele><time>2026-03-22T16:51:48Z</time></trkpt><trkpt lat="47.26945733576032" lon="-0.17230124305347996"><ele>77.5</ele><time>2026-03-22T16:51:50Z</time></trkpt><trkpt lat="47.26947947653132" lon="-0.17239942426150234"><ele>77.0</ele><time>2026-03-22T16:51:51Z</time></trkpt><trkpt lat="47.26950869255407" lon="-0.1725205529214566"><ele>76.5</ele><time>2026-03-22T16:51:52Z</time></trkpt><trkpt lat="47.26953303912949" lon="-0.17266035163732188"><ele>76.0</ele><time>2026-03-22T16:51:53Z</time></trkpt><trkpt lat="47.269556389077366" lon="-0.17279982188972767"><ele>76.0</ele><time>2026-03-22T16:51:54Z</time></trkpt><trkpt lat="47.26958108251179" lon="-0.17296434783184117"><ele>76.0</ele><time>2026-03-22T16:51:55Z</time></trkpt><trkpt lat="47.26960639490203" lon="-0.17314342477397726"><ele>76.0</ele><time>2026-03-22T16:51:56Z</time></trkpt><trkpt lat="47.269634038538065" lon="-0.17331574546746673"><ele>76.0</ele><time>2026-03-22T16:51:57Z</time></trkpt><trkpt lat="47.26966609879638" lon="-0.17350659643752148"><ele>76.0</ele><time>2026-03-22T16:51:58Z</time></trkpt><trkpt lat="47.2696982193963" lon="-0.17371241843394045"><ele>76.0</ele><time>2026-03-22T16:51:59Z</time></trkpt><trkpt lat="47.2697348134234" lon="-0.17392713213673078"><ele>76.0</ele><time>2026-03-22T16:52:00Z</time></trkpt><trkpt lat="47.26976332385804" lon="-0.17414540223006536"><ele>76.0</ele><time>2026-03-22T16:52:01Z</time></trkpt><trkpt lat="47.26979808859711" lon="-0.17437277921890604"><ele>76.75</ele><time>2026-03-22T16:52:02Z</time></trkpt><trkpt lat="47.26981625694083" lon="-0.17452176772187392"><ele>77.5</ele><time>2026-03-22T16:52:03Z</time></trkpt><trkpt lat="47.2698407341381" lon="-0.1747276274986539"><ele>78.25</ele><time>2026-03-22T16:52:04Z</time></trkpt><trkpt lat="47.269867424504554" lon="-0.17492575004687722"><ele>79.0</ele><time>2026-03-22T16:52:05Z</time></trkpt><trkpt lat="47.26990071761161" lon="-0.1751133184601984"><ele>79.25</ele><time>2026-03-22T16:52:06Z</time></trkpt><trkpt lat="47.26993952430001" lon="-0.1753058499119209"><ele>79.5</ele><time>2026-03-22T16:52:07Z</time></trkpt><trkpt lat="47.26996797881472" lon="-0.17550269298431467"><ele>79.75</ele><time>2026-03-22T16:52:08Z</time></trkpt><trkpt lat="47.26999156711832" lon="-0.17568542426516157"><ele>80.0</ele><time>2026-03-22T16:52:09Z</time></trkpt><trkpt lat="47.27001225076991" lon="-0.17586523180930333"><ele>80.0</ele><time>2026-03-22T16:52:10Z</time></trkpt><trkpt lat="47.27003688492199" lon="-0.17603814292966308"><ele>80.0</ele><time>2026-03-22T16:52:11Z</time></trkpt><trkpt lat="47.27006018927556" lon="-0.17621593269237573"><ele>80.0</ele><time>2026-03-22T16:52:12Z</time></trkpt><trkpt lat="47.2701003906047" lon="-0.1764003682669882"><ele>80.0</ele><time>2026-03-22T16:52:13Z</time></trkpt><trkpt lat="47.27014999678381" lon="-0.17659492710606337"><ele>80.0</ele><time>2026-03-22T16:52:14Z</time></trkpt><trkpt lat="47.27021013619511" lon="-0.17679750099803127"><ele>80.0</ele><time>2026-03-22T16:52:15Z</time></trkpt><trkpt lat="47.27028063293912" lon="-0.17699710929608362"><ele>80.0</ele><time>2026-03-22T16:52:16Z</time></trkpt><trkpt lat="47.2703538153047" lon="-0.1771890574395696"><ele>80.25</ele><time>2026-03-22T16:52:17Z</time></trkpt><trkpt lat="47.27040783796401" lon="-0.17735381460920197"><ele>80.5</ele><time>2026-03-22T16:52:18Z</time></trkpt><trkpt lat="47.27045277739348" lon="-0.17751590580993812"><ele>80.75</ele><time>2026-03-22T16:52:18.999Z</time></trkpt><trkpt lat="47.27049152212053" lon="-0.17768549823655821"><ele>81.0</ele><time>2026-03-22T16:52:19.999Z</time></trkpt><trkpt lat="47.27051084540242" lon="-0.17786651257478575"><ele>81.0</ele><time>2026-03-22T16:52:20.999Z</time></trkpt><trkpt lat="47.27050735921057" lon="-0.1780559074155515"><ele>81.0</ele><time>2026-03-22T16:52:21.999Z</time></trkpt><trkpt lat="47.27050751200321" lon="-0.17827072095305768"><ele>81.0</ele><time>2026-03-22T16:52:22.999Z</time></trkpt><trkpt lat="47.270505909155354" lon="-0.1784921163985963"><ele>81.0</ele><time>2026-03-22T16:52:23.999Z</time></trkpt><trkpt lat="47.2705093547528" lon="-0.17869981347697306"><ele>80.75</ele><time>2026-03-22T16:52:24.999Z</time></trkpt><trkpt lat="47.27051058886813" lon="-0.1789047675947344"><ele>80.5</ele><time>2026-03-22T16:52:25.999Z</time></trkpt><trkpt lat="47.270507961212886" lon="-0.1790845116403697"><ele>80.25</ele><time>2026-03-22T16:52:26.999Z</time></trkpt><trkpt lat="47.27051479738684" lon="-0.17926561734163066"><ele>80.0</ele><time>2026-03-22T16:52:27.999Z</time></trkpt><trkpt lat="47.27052261563937" lon="-0.17943672018847953"><ele>80.0</ele><time>2026-03-22T16:52:28.999Z</time></trkpt><trkpt lat="47.270530759904496" lon="-0.17959475431729416"><ele>80.0</ele><time>2026-03-22T16:52:29.999Z</time></trkpt><trkpt lat="47.2705513230156" lon="-0.1797513113076296"><ele>80.0</ele><time>2026-03-22T16:52:30.999Z</time></trkpt><trkpt lat="47.27059414869916" lon="-0.17991695162136273"><ele>80.0</ele><time>2026-03-22T16:52:31.999Z</time></trkpt><trkpt lat="47.27065207760371" lon="-0.1800907969467302"><ele>82.25</ele><time>2026-03-22T16:52:32.999Z</time></trkpt><trkpt lat="47.27072384811017" lon="-0.1802680421108409"><ele>84.5</ele><time>2026-03-22T16:52:33.999Z</time></trkpt><trkpt lat="47.27080983877705" lon="-0.18045497107597297"><ele>86.75</ele><time>2026-03-22T16:52:34.999Z</time></trkpt><trkpt lat="47.270885082260385" lon="-0.18063020054999296"><ele>89.0</ele><time>2026-03-22T16:52:35.999Z</time></trkpt><trkpt lat="47.27095061497857" lon="-0.18078760935441018"><ele>89.0</ele><time>2026-03-22T16:52:36.999Z</time></trkpt><trkpt lat="47.27100778334859" lon="-0.1809384784940417"><ele>89.0</ele><time>2026-03-22T16:52:37.999Z</time></trkpt><trkpt lat="47.27106439197411" lon="-0.1810750087227882"><ele>89.0</ele><time>2026-03-22T16:52:38.999Z</time></trkpt><trkpt lat="47.27113067415722" lon="-0.1811960401659895"><ele>89.0</ele><time>2026-03-22T16:52:39.999Z</time></trkpt><trkpt lat="47.27119778034699" lon="-0.1813098019395395"><ele>89.0</ele><time>2026-03-22T16:52:40.999Z</time></trkpt><trkpt lat="47.27125973242726" lon="-0.18139104732539846"><ele>89.0</ele><time>2026-03-22T16:52:41.999Z</time></trkpt><trkpt lat="47.27133005780841" lon="-0.18150218759876066"><ele>89.0</ele><time>2026-03-22T16:52:42.999Z</time></trkpt><trkpt lat="47.27139325243856" lon="-0.181638391116951"><ele>89.0</ele><time>2026-03-22T16:52:43.999Z</time></trkpt><trkpt lat="47.27145807050963" lon="-0.18180068834217195"><ele>89.0</ele><time>2026-03-22T16:52:44.999Z</time></trkpt><trkpt lat="47.27151081723868" lon="-0.1819490124646999"><ele>89.2</ele><time>2026-03-22T16:52:45.999Z</time></trkpt><trkpt lat="47.271558538658226" lon="-0.18206410892038719"><ele>89.4</ele><time>2026-03-22T16:52:46.999Z</time></trkpt><trkpt lat="47.271597727255894" lon="-0.18218369707120594"><ele>89.6</ele><time>2026-03-22T16:52:47.999Z</time></trkpt><trkpt lat="47.27164606922125" lon="-0.1822928161293707"><ele>89.8</ele><time>2026-03-22T16:52:48.999Z</time></trkpt><trkpt lat="47.27168949909838" lon="-0.18242840151442835"><ele>90.0</ele><time>2026-03-22T16:52:49.999Z</time></trkpt><trkpt lat="47.27173852810928" lon="-0.18258868245891177"><ele>90.0</ele><time>2026-03-22T16:52:50.999Z</time></trkpt><trkpt lat="47.27179664051164" lon="-0.18276334979143408"><ele>90.0</ele><time>2026-03-22T16:52:51.999Z</time></trkpt><trkpt lat="47.271860752548996" lon="-0.1829215891592794"><ele>90.0</ele><time>2026-03-22T16:52:52.999Z</time></trkpt><trkpt lat="47.27191438470072" lon="-0.18306284544368254"><ele>90.0</ele><time>2026-03-22T16:52:53.999Z</time></trkpt><trkpt lat="47.27196423425356" lon="-0.18321704441443218"><ele>89.8</ele><time>2026-03-22T16:52:54.999Z</time></trkpt><trkpt lat="47.272009415808284" lon="-0.18334322418884597"><ele>89.6</ele><time>2026-03-22T16:52:55.999Z</time></trkpt><trkpt lat="47.27205876752435" lon="-0.18348658336979934"><ele>89.4</ele><time>2026-03-22T16:52:56.999Z</time></trkpt><trkpt lat="47.27210390314034" lon="-0.18363785656824588"><ele>89.2</ele><time>2026-03-22T16:52:57.999Z</time></trkpt><trkpt lat="47.27215123268648" lon="-0.1837751759323784"><ele>89.0</ele><time>2026-03-22T16:52:58.999Z</time></trkpt><trkpt lat="47.27220212026425" lon="-0.18390151313921202"><ele>88.80000000000001</ele><time>2026-03-22T16:52:59.999Z</time></trkpt><trkpt lat="47.27225296661238" lon="-0.1840284324531358"><ele>88.60000000000001</ele><time>2026-03-22T16:53:00.999Z</time></trkpt><trkpt lat="47.272309609794966" lon="-0.18413626644603745"><ele>88.4</ele><time>2026-03-22T16:53:02Z</time></trkpt><trkpt lat="47.27238635368373" lon="-0.1842361532327486"><ele>88.2</ele><time>2026-03-22T16:53:03Z</time></trkpt><trkpt lat="47.27248530849454" lon="-0.18436591844498845"><ele>88.0</ele><time>2026-03-22T16:53:04Z</time></trkpt><trkpt lat="47.27258183473726" lon="-0.18449891070168276"><ele>88.0</ele><time>2026-03-22T16:53:05Z</time></trkpt><trkpt lat="47.27267811023986" lon="-0.184628215319473"><ele>88.0</ele><time>2026-03-22T16:53:06Z</time></trkpt><trkpt lat="47.27277385773376" lon="-0.1847618681147161"><ele>88.0</ele><time>2026-03-22T16:53:07Z</time></trkpt><trkpt lat="47.27286028076452" lon="-0.18489338231179048"><ele>88.0</ele><time>2026-03-22T16:53:08Z</time></trkpt><trkpt lat="47.27292994982234" lon="-0.18500675164799618"><ele>87.33333333333333</ele><time>2026-03-22T16:53:09Z</time></trkpt><trkpt lat="47.27300255584238" lon="-0.18512055577113515"><ele>86.66666666666666</ele><time>2026-03-22T16:53:10Z</time></trkpt><trkpt lat="47.273066710542814" lon="-0.18522577778874216"><ele>86.0</ele><time>2026-03-22T16:53:11Z</time></trkpt><trkpt lat="47.27312568171774" lon="-0.18531308273239822"><ele>85.33333333333333</ele><time>2026-03-22T16:53:12Z</time></trkpt><trkpt lat="47.273178504881045" lon="-0.18540767702023842"><ele>84.66666666666667</ele><time>2026-03-22T16:53:13Z</time></trkpt><trkpt lat="47.27323321262758" lon="-0.18548883971896835"><ele>84.0</ele><time>2026-03-22T16:53:14Z</time></trkpt><trkpt lat="47.27328113237065" lon="-0.18556580794863697"><ele>83.2</ele><time>2026-03-22T16:53:15Z</time></trkpt><trkpt lat="47.273311395497295" lon="-0.18570936133837068"><ele>82.4</ele><time>2026-03-22T16:53:17Z</time></trkpt><trkpt lat="47.27331438140939" lon="-0.18585936724281615"><ele>81.6</ele><time>2026-03-22T16:53:19Z</time></trkpt><trkpt lat="47.27333310810474" lon="-0.18604182733424707"><ele>80.8</ele><time>2026-03-22T16:53:21Z</time></trkpt><trkpt lat="47.273340394519664" lon="-0.18615574276709465"><ele>80.0</ele><time>2026-03-22T16:53:22Z</time></trkpt><trkpt lat="47.2733537586856" lon="-0.18629733886413236"><ele>80.0</ele><time>2026-03-22T16:53:23Z</time></trkpt><trkpt lat="47.27337526032202" lon="-0.1864682831683885"><ele>80.0</ele><time>2026-03-22T16:53:24Z</time></trkpt><trkpt lat="47.27340042517658" lon="-0.18665862011300072"><ele>80.0</ele><time>2026-03-22T16:53:25Z</time></trkpt><trkpt lat="47.273428477552045" lon="-0.18685051195260255"><ele>80.0</ele><time>2026-03-22T16:53:26Z</time></trkpt><trkpt lat="47.27345124850394" lon="-0.1870446209605156"><ele>80.2</ele><time>2026-03-22T16:53:27Z</time></trkpt><trkpt lat="47.27347026408809" lon="-0.18721571828687564"><ele>80.4</ele><time>2026-03-22T16:53:28Z</time></trkpt><trkpt lat="47.273481159893606" lon="-0.18735908671704046"><ele>80.6</ele><time>2026-03-22T16:53:29Z</time></trkpt><trkpt lat="47.273492356492774" lon="-0.18749593677376777"><ele>80.8</ele><time>2026-03-22T16:53:30Z</time></trkpt><trkpt lat="47.27350145076848" lon="-0.18763575404232827"><ele>81.0</ele><time>2026-03-22T16:53:31Z</time></trkpt><trkpt lat="47.273515932213776" lon="-0.1877769673550439"><ele>81.25</ele><time>2026-03-22T16:53:32Z</time></trkpt><trkpt lat="47.273526048650844" lon="-0.18792849431232939"><ele>81.5</ele><time>2026-03-22T16:53:33Z</time></trkpt><trkpt lat="47.27354145365986" lon="-0.18810767320625402"><ele>81.75</ele><time>2026-03-22T16:53:34Z</time></trkpt><trkpt lat="47.27355642587991" lon="-0.1882920104151358"><ele>82.0</ele><time>2026-03-22T16:53:35Z</time></trkpt><trkpt lat="47.27355576651552" lon="-0.18846015235105798"><ele>82.5</ele><time>2026-03-22T16:53:36Z</time></trkpt><trkpt lat="47.2735615007976" lon="-0.18863074583195052"><ele>83.0</ele><time>2026-03-22T16:53:37Z</time></trkpt><trkpt lat="47.27356055592691" lon="-0.18878166353692172"><ele>83.5</ele><time>2026-03-22T16:53:38Z</time></trkpt><trkpt lat="47.27358245775795" lon="-0.18894888444715355"><ele>84.0</ele><time>2026-03-22T16:53:39Z</time></trkpt><trkpt lat="47.27360914062551" lon="-0.18911877919521577"><ele>84.4</ele><time>2026-03-22T16:53:40Z</time></trkpt><trkpt lat="47.273614263999285" lon="-0.18929472441792894"><ele>84.80000000000001</ele><time>2026-03-22T16:53:41Z</time></trkpt><trkpt lat="47.27362443491753" lon="-0.18944413603463467"><ele>85.19999999999999</ele><time>2026-03-22T16:53:42Z</time></trkpt><trkpt lat="47.27363608342036" lon="-0.18958418825174667"><ele>85.6</ele><time>2026-03-22T16:53:43Z</time></trkpt><trkpt lat="47.27364677994566" lon="-0.18970386730531066"><ele>86.0</ele><time>2026-03-22T16:53:44Z</time></trkpt><trkpt lat="47.27366240724282" lon="-0.18992272971346502"><ele>86.5</ele><time>2026-03-22T16:53:46Z</time></trkpt><trkpt lat="47.27366606089027" lon="-0.1900774262255056"><ele>87.0</ele><time>2026-03-22T16:53:47Z</time></trkpt><trkpt lat="47.27367840689052" lon="-0.190230109059146"><ele>87.5</ele><time>2026-03-22T16:53:48Z</time></trkpt><trkpt lat="47.27368656034421" lon="-0.19035816955307774"><ele>88.0</ele><time>2026-03-22T16:53:49Z</time></trkpt><trkpt lat="47.27369182786904" lon="-0.19045880672763263"><ele>88.5</ele><time>2026-03-22T16:53:50Z</time></trkpt><trkpt lat="47.27370620509443" lon="-0.1905688647339494"><ele>89.0</ele><time>2026-03-22T16:53:51Z</time></trkpt><trkpt lat="47.2737161241143" lon="-0.1906634372388928"><ele>89.6</ele><time>2026-03-22T16:53:52Z</time></trkpt><trkpt lat="47.27373410979063" lon="-0.19077582624588973"><ele>90.2</ele><time>2026-03-22T16:53:53Z</time></trkpt><trkpt lat="47.273751890215" lon="-0.19093823855668524"><ele>90.8</ele><time>2026-03-22T16:53:54Z</time></trkpt><trkpt lat="47.27378198353264" lon="-0.19109637257622317"><ele>91.39999999999999</ele><time>2026-03-22T16:53:55Z</time></trkpt><trkpt lat="47.2738111104706" lon="-0.19127692595844795"><ele>92.0</ele><time>2026-03-22T16:53:56Z</time></trkpt><trkpt lat="47.27383048708211" lon="-0.1914361508668033"><ele>91.8</ele><time>2026-03-22T16:53:57Z</time></trkpt><trkpt lat="47.27384612580185" lon="-0.1916050408239569"><ele>91.6</ele><time>2026-03-22T16:53:58Z</time></trkpt><trkpt lat="47.27387026098158" lon="-0.1917688271719862"><ele>91.39999999999999</ele><time>2026-03-22T16:53:59Z</time></trkpt><trkpt lat="47.2738981690988" lon="-0.19189618728102784"><ele>91.19999999999999</ele><time>2026-03-22T16:54:00Z</time></trkpt><trkpt lat="47.27393158913065" lon="-0.19200888179312553"><ele>91.0</ele><time>2026-03-22T16:54:01Z</time></trkpt><trkpt lat="47.273953344748115" lon="-0.1921104831362114"><ele>91.0</ele><time>2026-03-22T16:54:02Z</time></trkpt><trkpt lat="47.27397261071949" lon="-0.19220670577540072"><ele>91.0</ele><time>2026-03-22T16:54:03Z</time></trkpt><trkpt lat="47.27399766546833" lon="-0.19231068473591542"><ele>91.0</ele><time>2026-03-22T16:54:04Z</time></trkpt><trkpt lat="47.274024855216666" lon="-0.1924248141286321"><ele>91.0</ele><time>2026-03-22T16:54:05Z</time></trkpt><trkpt lat="47.27404648270113" lon="-0.192515908233362"><ele>91.0</ele><time>2026-03-22T16:54:06Z</time></trkpt><trkpt lat="47.27410669203877" lon="-0.19267049573965256"><ele>91.0</ele><time>2026-03-22T16:54:08Z</time></trkpt><trkpt lat="47.27415589891822" lon="-0.19278525605985988"><ele>91.19999999999999</ele><time>2026-03-22T16:54:09Z</time></trkpt><trkpt lat="47.274194565651854" lon="-0.19291370142219175"><ele>91.39999999999999</ele><time>2026-03-22T16:54:10Z</time></trkpt><trkpt lat="47.27423035150091" lon="-0.19301333960841147"><ele>91.6</ele><time>2026-03-22T16:54:11Z</time></trkpt><trkpt lat="47.27428759127252" lon="-0.19313969245589743"><ele>91.8</ele><time>2026-03-22T16:54:13Z</time></trkpt><trkpt lat="47.274342021112275" lon="-0.19328980528525724"><ele>92.0</ele><time>2026-03-22T16:54:15Z</time></trkpt><trkpt lat="47.27437949527586" lon="-0.1933854182152786"><ele>92.0</ele><time>2026-03-22T16:54:16Z</time></trkpt><trkpt lat="47.274424207303795" lon="-0.19350598259263646"><ele>92.0</ele><time>2026-03-22T16:54:17Z</time></trkpt><trkpt lat="47.27447434362278" lon="-0.1936221023953455"><ele>92.0</ele><time>2026-03-22T16:54:18Z</time></trkpt><trkpt lat="47.27452229292311" lon="-0.193755271023023"><ele>92.0</ele><time>2026-03-22T16:54:19Z</time></trkpt><trkpt lat="47.27456323173635" lon="-0.1939133132503722"><ele>92.0</ele><time>2026-03-22T16:54:20Z</time></trkpt><trkpt lat="47.27458667946261" lon="-0.19407486814300884"><ele>92.0</ele><time>2026-03-22T16:54:21Z</time></trkpt><trkpt lat="47.27460670593399" lon="-0.19421085968803317"><ele>92.0</ele><time>2026-03-22T16:54:22Z</time></trkpt><trkpt lat="47.274640263536774" lon="-0.1943568705590294"><ele>92.0</ele><time>2026-03-22T16:54:23Z</time></trkpt><trkpt lat="47.27467906357595" lon="-0.1944985347107605"><ele>92.0</ele><time>2026-03-22T16:54:24Z</time></trkpt><trkpt lat="47.27471585933345" lon="-0.19463186625174977"><ele>92.0</ele><time>2026-03-22T16:54:25Z</time></trkpt><trkpt lat="47.27475018199676" lon="-0.19474791303478697"><ele>91.8</ele><time>2026-03-22T16:54:26Z</time></trkpt><trkpt lat="47.27478461742033" lon="-0.19486554437434858"><ele>91.6</ele><time>2026-03-22T16:54:27Z</time></trkpt><trkpt lat="47.27483600564822" lon="-0.1949926175824377"><ele>91.39999999999999</ele><time>2026-03-22T16:54:27.999Z</time></trkpt><trkpt lat="47.2748892948305" lon="-0.1951196803566062"><ele>91.19999999999999</ele><time>2026-03-22T16:54:28.999Z</time></trkpt><trkpt lat="47.27494888051786" lon="-0.19525824753053683"><ele>91.0</ele><time>2026-03-22T16:54:29.999Z</time></trkpt><trkpt lat="47.27498955976812" lon="-0.19538060850098052"><ele>91.0</ele><time>2026-03-22T16:54:30.999Z</time></trkpt><trkpt lat="47.275037194617354" lon="-0.1955177473224805"><ele>91.0</ele><time>2026-03-22T16:54:31.999Z</time></trkpt><trkpt lat="47.27509155095605" lon="-0.19565024493091457"><ele>91.0</ele><time>2026-03-22T16:54:32.999Z</time></trkpt><trkpt lat="47.27514364734817" lon="-0.19576754392294335"><ele>91.0</ele><time>2026-03-22T16:54:33.999Z</time></trkpt><trkpt lat="47.275169872417784" lon="-0.19586384486020245"><ele>91.0</ele><time>2026-03-22T16:54:34.999Z</time></trkpt><trkpt lat="47.275205489057484" lon="-0.19598786642351015"><ele>91.5</ele><time>2026-03-22T16:54:35.999Z</time></trkpt><trkpt lat="47.27525975423247" lon="-0.19615720255907565"><ele>92.0</ele><time>2026-03-22T16:54:36.999Z</time></trkpt><trkpt lat="47.27531004140198" lon="-0.1963278451835729"><ele>92.5</ele><time>2026-03-22T16:54:37.999Z</time></trkpt><trkpt lat="47.275360461641455" lon="-0.196494835184292"><ele>93.0</ele><time>2026-03-22T16:54:38.999Z</time></trkpt><trkpt lat="47.27539949317284" lon="-0.19661480923938685"><ele>93.0</ele><time>2026-03-22T16:54:39.999Z</time></trkpt><trkpt lat="47.27543510971983" lon="-0.19673534223521377"><ele>93.0</ele><time>2026-03-22T16:54:40.999Z</time></trkpt><trkpt lat="47.27547630035496" lon="-0.19687090082661113"><ele>93.0</ele><time>2026-03-22T16:54:41.999Z</time></trkpt><trkpt lat="47.275501946124905" lon="-0.19697588275137887"><ele>93.0</ele><time>2026-03-22T16:54:42.999Z</time></trkpt><trkpt lat="47.27552624753249" lon="-0.19707209049237379"><ele>93.0</ele><time>2026-03-22T16:54:43.999Z</time></trkpt><trkpt lat="47.275547975768504" lon="-0.19720859938117047"><ele>93.0</ele><time>2026-03-22T16:54:45.999Z</time></trkpt><trkpt lat="47.275571291450674" lon="-0.1973079947457671"><ele>92.80000000000001</ele><time>2026-03-22T16:54:47.999Z</time></trkpt><trkpt lat="47.27557861650143" lon="-0.19743319516472174"><ele>92.6</ele><time>2026-03-22T16:54:53.999Z</time></trkpt><trkpt lat="47.27550107707809" lon="-0.19756089072018174"><ele>92.4</ele><time>2026-03-22T16:54:55.999Z</time></trkpt><trkpt lat="47.27543866318133" lon="-0.19760670941233607"><ele>92.19999999999999</ele><time>2026-03-22T16:54:56.999Z</time></trkpt><trkpt lat="47.275365718903025" lon="-0.19766943414080845"><ele>92.0</ele><time>2026-03-22T16:54:57.999Z</time></trkpt><trkpt lat="47.275286986331494" lon="-0.19774534113051656"><ele>92.0</ele><time>2026-03-22T16:54:58.999Z</time></trkpt><trkpt lat="47.275200200945044" lon="-0.19782361179102842"><ele>92.0</ele><time>2026-03-22T16:54:59.999Z</time></trkpt><trkpt lat="47.27510356179106" lon="-0.19791553976503207"><ele>92.0</ele><time>2026-03-22T16:55:00.999Z</time></trkpt><trkpt lat="47.27499343398898" lon="-0.19802719401304267"><ele>92.0</ele><time>2026-03-22T16:55:01.999Z</time></trkpt><trkpt lat="47.274889357336725" lon="-0.19813466744367586"><ele>91.25</ele><time>2026-03-22T16:55:02.999Z</time></trkpt><trkpt lat="47.274769222353534" lon="-0.19824847634040174"><ele>90.5</ele><time>2026-03-22T16:55:03.999Z</time></trkpt><trkpt lat="47.274646970311906" lon="-0.1983612140377191"><ele>89.75</ele><time>2026-03-22T16:55:04.999Z</time></trkpt><trkpt lat="47.274528233574536" lon="-0.1984739755925815"><ele>89.0</ele><time>2026-03-22T16:55:05.999Z</time></trkpt><trkpt lat="47.27441899847216" lon="-0.1985788014021818"><ele>89.0</ele><time>2026-03-22T16:55:06.999Z</time></trkpt><trkpt lat="47.27431793851158" lon="-0.19867656168270897"><ele>89.0</ele><time>2026-03-22T16:55:08Z</time></trkpt><trkpt lat="47.27422230657571" lon="-0.1987617293346127"><ele>89.0</ele><time>2026-03-22T16:55:09Z</time></trkpt><trkpt lat="47.274131165937376" lon="-0.19884532196938773"><ele>89.0</ele><time>2026-03-22T16:55:10Z</time></trkpt><trkpt lat="47.274042541599634" lon="-0.19893375172051977"><ele>89.0</ele><time>2026-03-22T16:55:11Z</time></trkpt><trkpt lat="47.27395133343561" lon="-0.19902491407058961"><ele>88.5</ele><time>2026-03-22T16:55:12Z</time></trkpt><trkpt lat="47.273854616588224" lon="-0.19911295208621616"><ele>88.0</ele><time>2026-03-22T16:55:13Z</time></trkpt><trkpt lat="47.273751783148306" lon="-0.19920694187151491"><ele>87.5</ele><time>2026-03-22T16:55:14Z</time></trkpt><trkpt lat="47.273652619792195" lon="-0.19930406370627265"><ele>87.0</ele><time>2026-03-22T16:55:15Z</time></trkpt><trkpt lat="47.273551070006874" lon="-0.19941254950684198"><ele>87.0</ele><time>2026-03-22T16:55:16Z</time></trkpt><trkpt lat="47.27345437031607" lon="-0.19951286717053252"><ele>87.0</ele><time>2026-03-22T16:55:17Z</time></trkpt><trkpt lat="47.27335812542623" lon="-0.19959522934392682"><ele>87.0</ele><time>2026-03-22T16:55:18Z</time></trkpt><trkpt lat="47.273259126792055" lon="-0.19966312372931813"><ele>87.0</ele><time>2026-03-22T16:55:19Z</time></trkpt><trkpt lat="47.27315256964172" lon="-0.19971129782393726"><ele>86.75</ele><time>2026-03-22T16:55:20Z</time></trkpt><trkpt lat="47.27304503710287" lon="-0.19973243441738728"><ele>86.5</ele><time>2026-03-22T16:55:21Z</time></trkpt><trkpt lat="47.27292905774959" lon="-0.1997358441520318"><ele>86.25</ele><time>2026-03-22T16:55:22Z</time></trkpt><trkpt lat="47.27281081491809" lon="-0.19973175740365234"><ele>86.0</ele><time>2026-03-22T16:55:23Z</time></trkpt><trkpt lat="47.27268803955007" lon="-0.19973065550786534"><ele>86.0</ele><time>2026-03-22T16:55:24Z</time></trkpt><trkpt lat="47.272570968925464" lon="-0.1997373286499243"><ele>86.0</ele><time>2026-03-22T16:55:25Z</time></trkpt><trkpt lat="47.27245794993636" lon="-0.19975389630229332"><ele>86.0</ele><time>2026-03-22T16:55:26Z</time></trkpt><trkpt lat="47.27234171847165" lon="-0.19978823450071193"><ele>86.0</ele><time>2026-03-22T16:55:27Z</time></trkpt><trkpt lat="47.27222611940693" lon="-0.19984409372958312"><ele>85.75</ele><time>2026-03-22T16:55:28Z</time></trkpt><trkpt lat="47.27211270064985" lon="-0.1999205288860448"><ele>85.5</ele><time>2026-03-22T16:55:29Z</time></trkpt><trkpt lat="47.272003195768704" lon="-0.2000082091724737"><ele>85.25</ele><time>2026-03-22T16:55:30Z</time></trkpt><trkpt lat="47.27189255205874" lon="-0.20009938025202348"><ele>85.0</ele><time>2026-03-22T16:55:31Z</time></trkpt><trkpt lat="47.27178446789509" lon="-0.20018434658397197"><ele>85.0</ele><time>2026-03-22T16:55:32Z</time></trkpt><trkpt lat="47.27168329226626" lon="-0.20025663719166278"><ele>85.0</ele><time>2026-03-22T16:55:33Z</time></trkpt><trkpt lat="47.271590606797" lon="-0.20032437552340948"><ele>85.0</ele><time>2026-03-22T16:55:34Z</time></trkpt><trkpt lat="47.271497490945464" lon="-0.20039248034909957"><ele>85.0</ele><time>2026-03-22T16:55:35Z</time></trkpt><trkpt lat="47.27140608377908" lon="-0.20046094672658288"><ele>85.0</ele><time>2026-03-22T16:55:36Z</time></trkpt><trkpt lat="47.27131387177686" lon="-0.20052856161515653"><ele>85.2</ele><time>2026-03-22T16:55:37Z</time></trkpt><trkpt lat="47.27122530513134" lon="-0.20059382207543208"><ele>85.4</ele><time>2026-03-22T16:55:38Z</time></trkpt><trkpt lat="47.27113493088533" lon="-0.20065343402451655"><ele>85.6</ele><time>2026-03-22T16:55:39Z</time></trkpt><trkpt lat="47.27104817618017" lon="-0.20069983346168865"><ele>85.8</ele><time>2026-03-22T16:55:40Z</time></trkpt><trkpt lat="47.27095974798937" lon="-0.20071101871156544"><ele>86.0</ele><time>2026-03-22T16:55:41Z</time></trkpt><trkpt lat="47.270867056871445" lon="-0.20072614269898745"><ele>86.0</ele><time>2026-03-22T16:55:42Z</time></trkpt><trkpt lat="47.27076248325761" lon="-0.20064401342501248"><ele>86.0</ele><time>2026-03-22T16:55:43Z</time></trkpt><trkpt lat="47.27066682655501" lon="-0.20057987698929125"><ele>86.0</ele><time>2026-03-22T16:55:44Z</time></trkpt><trkpt lat="47.270583487869644" lon="-0.20055045999691995"><ele>86.0</ele><time>2026-03-22T16:55:45Z</time></trkpt><trkpt lat="47.27051535230875" lon="-0.20050878523439697"><ele>86.0</ele><time>2026-03-22T16:55:46Z</time></trkpt><trkpt lat="47.27045235317799" lon="-0.2004704729653656"><ele>85.66666666666667</ele><time>2026-03-22T16:55:47Z</time></trkpt><trkpt lat="47.27039387315385" lon="-0.20041852064471952"><ele>85.33333333333334</ele><time>2026-03-22T16:55:48Z</time></trkpt><trkpt lat="47.27032958555011" lon="-0.20039303672966763"><ele>85.0</ele><time>2026-03-22T16:55:49Z</time></trkpt><trkpt lat="47.27026440027421" lon="-0.200392870711221"><ele>84.66666666666667</ele><time>2026-03-22T16:55:50Z</time></trkpt><trkpt lat="47.270177921812625" lon="-0.20040578981051874"><ele>84.33333333333333</ele><time>2026-03-22T16:55:52Z</time></trkpt><trkpt lat="47.27010790409472" lon="-0.20019574673624854"><ele>84.0</ele><time>2026-03-22T16:55:53Z</time></trkpt><trkpt lat="47.270079416708576" lon="-0.20009789784647689"><ele>84.0</ele><time>2026-03-22T16:55:54Z</time></trkpt><trkpt lat="47.27005767175321" lon="-0.1999709541342763"><ele>84.0</ele><time>2026-03-22T16:55:55Z</time></trkpt><trkpt lat="47.27001963171561" lon="-0.19983192047196424"><ele>84.0</ele><time>2026-03-22T16:55:56Z</time></trkpt><trkpt lat="47.26996265966644" lon="-0.19968693432618387"><ele>84.0</ele><time>2026-03-22T16:55:57Z</time></trkpt><trkpt lat="47.2699136579109" lon="-0.19950924065381595"><ele>84.0</ele><time>2026-03-22T16:55:58Z</time></trkpt><trkpt lat="47.26986463032856" lon="-0.19931795020109125"><ele>84.25</ele><time>2026-03-22T16:55:59Z</time></trkpt><trkpt lat="47.26981512651598" lon="-0.19912094123270238"><ele>84.5</ele><time>2026-03-22T16:56:00Z</time></trkpt><trkpt lat="47.269767225545664" lon="-0.19893031113456083"><ele>84.75</ele><time>2026-03-22T16:56:01Z</time></trkpt><trkpt lat="47.269725072971525" lon="-0.19876255747353577"><ele>85.0</ele><time>2026-03-22T16:56:02Z</time></trkpt><trkpt lat="47.26968341554231" lon="-0.19859809679945117"><ele>84.8</ele><time>2026-03-22T16:56:03Z</time></trkpt><trkpt lat="47.269643276641" lon="-0.19844360814782983"><ele>84.6</ele><time>2026-03-22T16:56:04Z</time></trkpt><trkpt lat="47.26960542582021" lon="-0.1983021698500343"><ele>84.4</ele><time>2026-03-22T16:56:05Z</time></trkpt><trkpt lat="47.269571215835015" lon="-0.1981766236415941"><ele>84.2</ele><time>2026-03-22T16:56:06Z</time></trkpt><trkpt lat="47.26954057179309" lon="-0.1980640464701201"><ele>84.0</ele><time>2026-03-22T16:56:07Z</time></trkpt><trkpt lat="47.26949014102874" lon="-0.19790085274395403"><ele>84.0</ele><time>2026-03-22T16:56:09Z</time></trkpt><trkpt lat="47.26942542644452" lon="-0.19787017925162723"><ele>84.0</ele><time>2026-03-22T16:56:10Z</time></trkpt><trkpt lat="47.269344156567655" lon="-0.19788470391403792"><ele>84.0</ele><time>2026-03-22T16:56:11Z</time></trkpt><trkpt lat="47.26925688750127" lon="-0.19792099245833353"><ele>84.0</ele><time>2026-03-22T16:56:12Z</time></trkpt><trkpt lat="47.26915600721085" lon="-0.19797663447703504"><ele>84.0</ele><time>2026-03-22T16:56:13Z</time></trkpt><trkpt lat="47.26904233767293" lon="-0.19803352337694274"><ele>83.25</ele><time>2026-03-22T16:56:14Z</time></trkpt><trkpt lat="47.26892038444065" lon="-0.1980805901412995"><ele>82.5</ele><time>2026-03-22T16:56:15Z</time></trkpt><trkpt lat="47.26878701362082" lon="-0.19812718801186818"><ele>81.75</ele><time>2026-03-22T16:56:16Z</time></trkpt><trkpt lat="47.26865445354997" lon="-0.1981834612092988"><ele>81.0</ele><time>2026-03-22T16:56:17Z</time></trkpt><trkpt lat="47.26853725436513" lon="-0.1982317882204646"><ele>80.8</ele><time>2026-03-22T16:56:18Z</time></trkpt><trkpt lat="47.268426930959706" lon="-0.19827565993541554"><ele>80.6</ele><time>2026-03-22T16:56:19Z</time></trkpt><trkpt lat="47.26831768581704" lon="-0.19831833444476912"><ele>80.4</ele><time>2026-03-22T16:56:20Z</time></trkpt><trkpt lat="47.26821854875714" lon="-0.19835895886577365"><ele>80.2</ele><time>2026-03-22T16:56:21Z</time></trkpt><trkpt lat="47.26812020307207" lon="-0.19839827466425985"><ele>80.0</ele><time>2026-03-22T16:56:22Z</time></trkpt><trkpt lat="47.26802018262822" lon="-0.19843031657934082"><ele>79.5</ele><time>2026-03-22T16:56:23Z</time></trkpt><trkpt lat="47.267921526493645" lon="-0.1984465591100353"><ele>79.0</ele><time>2026-03-22T16:56:24Z</time></trkpt><trkpt lat="47.26782849469549" lon="-0.1984550105766883"><ele>78.5</ele><time>2026-03-22T16:56:25Z</time></trkpt><trkpt lat="47.267733551437836" lon="-0.19846033285804154"><ele>78.0</ele><time>2026-03-22T16:56:26Z</time></trkpt><trkpt lat="47.26765079054065" lon="-0.1984659379392925"><ele>77.5</ele><time>2026-03-22T16:56:27Z</time></trkpt><trkpt lat="47.267580569423814" lon="-0.1984705844681888"><ele>77.0</ele><time>2026-03-22T16:56:28Z</time></trkpt><trkpt lat="47.26748087986575" lon="-0.19847909328828847"><ele>77.0</ele><time>2026-03-22T16:56:30Z</time></trkpt><trkpt lat="47.26738970455375" lon="-0.19819230123416426"><ele>77.0</ele><time>2026-03-22T16:56:33Z</time></trkpt><trkpt lat="47.26737983962041" lon="-0.19804871639673158"><ele>77.0</ele><time>2026-03-22T16:56:34Z</time></trkpt><trkpt lat="47.267367020871454" lon="-0.19787677298646364"><ele>77.0</ele><time>2026-03-22T16:56:35Z</time></trkpt><trkpt lat="47.26736793900528" lon="-0.19768777535855486"><ele>77.0</ele><time>2026-03-22T16:56:36Z</time></trkpt><trkpt lat="47.267339065232136" lon="-0.19748867442824436"><ele>77.0</ele><time>2026-03-22T16:56:37Z</time></trkpt><trkpt lat="47.267324201247376" lon="-0.19727902926787536"><ele>77.0</ele><time>2026-03-22T16:56:37.999Z</time></trkpt><trkpt lat="47.26730890951413" lon="-0.19706335132102082"><ele>77.0</ele><time>2026-03-22T16:56:38.999Z</time></trkpt><trkpt lat="47.2673094291314" lon="-0.19683546662081103"><ele>77.0</ele><time>2026-03-22T16:56:39.999Z</time></trkpt><trkpt lat="47.26727664902158" lon="-0.19660834146353756"><ele>77.0</ele><time>2026-03-22T16:56:40.999Z</time></trkpt><trkpt lat="47.26725996779812" lon="-0.19637655882921393"><ele>77.0</ele><time>2026-03-22T16:56:41.999Z</time></trkpt><trkpt lat="47.267242838702586" lon="-0.19614051535604343"><ele>76.33333333333334</ele><time>2026-03-22T16:56:42.999Z</time></trkpt><trkpt lat="47.26722584361054" lon="-0.19590631829488525"><ele>75.66666666666667</ele><time>2026-03-22T16:56:43.999Z</time></trkpt><trkpt lat="47.26720867978984" lon="-0.19566979614216531"><ele>75.0</ele><time>2026-03-22T16:56:44.999Z</time></trkpt><trkpt lat="47.26719328362835" lon="-0.19545763280677522"><ele>74.75</ele><time>2026-03-22T16:56:45.999Z</time></trkpt><trkpt lat="47.267178363235814" lon="-0.1952419384582351"><ele>74.5</ele><time>2026-03-22T16:56:46.999Z</time></trkpt><trkpt lat="47.267163993552344" lon="-0.19503212147003926"><ele>74.25</ele><time>2026-03-22T16:56:47.999Z</time></trkpt><trkpt lat="47.267149797066324" lon="-0.19482483350109894"><ele>74.0</ele><time>2026-03-22T16:56:48.999Z</time></trkpt><trkpt lat="47.267135353058336" lon="-0.19461393125617812"><ele>74.33333333333334</ele><time>2026-03-22T16:56:49.999Z</time></trkpt><trkpt lat="47.26712110962743" lon="-0.19440595777120234"><ele>74.66666666666667</ele><time>2026-03-22T16:56:50.999Z</time></trkpt><trkpt lat="47.2671049328656" lon="-0.19416975508959586"><ele>75.0</ele><time>2026-03-22T16:56:51.999Z</time></trkpt><trkpt lat="47.26708989561732" lon="-0.19395019064841412"><ele>75.0</ele><time>2026-03-22T16:56:52.999Z</time></trkpt><trkpt lat="47.267075087202" lon="-0.1937339676427561"><ele>75.0</ele><time>2026-03-22T16:56:53.999Z</time></trkpt><trkpt lat="47.26705996396425" lon="-0.19351998302387088"><ele>75.0</ele><time>2026-03-22T16:56:54.999Z</time></trkpt><trkpt lat="47.267045376658416" lon="-0.19332644569476298"><ele>75.0</ele><time>2026-03-22T16:56:55.999Z</time></trkpt><trkpt lat="47.267028787146224" lon="-0.193125863456767"><ele>75.0</ele><time>2026-03-22T16:56:56.999Z</time></trkpt><trkpt lat="47.26700855053776" lon="-0.1929132690952758"><ele>75.0</ele><time>2026-03-22T16:56:57.999Z</time></trkpt><trkpt lat="47.26698155002705" lon="-0.19270505924240197"><ele>75.0</ele><time>2026-03-22T16:56:58.999Z</time></trkpt><trkpt lat="47.266948826831914" lon="-0.19250478788616662"><ele>75.0</ele><time>2026-03-22T16:56:59.999Z</time></trkpt><trkpt lat="47.2669103402352" lon="-0.19228628982259857"><ele>75.0</ele><time>2026-03-22T16:57:00.999Z</time></trkpt><trkpt lat="47.26687251999969" lon="-0.19207331639586403"><ele>75.0</ele><time>2026-03-22T16:57:01.999Z</time></trkpt><trkpt lat="47.26684292239827" lon="-0.19188186688569864"><ele>75.0</ele><time>2026-03-22T16:57:02.999Z</time></trkpt><trkpt lat="47.26684407366055" lon="-0.19169604429429254"><ele>75.0</ele><time>2026-03-22T16:57:03.999Z</time></trkpt><trkpt lat="47.26683307900337" lon="-0.1915246071808441"><ele>75.0</ele><time>2026-03-22T16:57:04.999Z</time></trkpt><trkpt lat="47.26681686405198" lon="-0.19133896725948615"><ele>75.0</ele><time>2026-03-22T16:57:05.999Z</time></trkpt><trkpt lat="47.26679435954466" lon="-0.19112884406142924"><ele>75.0</ele><time>2026-03-22T16:57:06.999Z</time></trkpt><trkpt lat="47.26676614560055" lon="-0.19091947726757225"><ele>75.0</ele><time>2026-03-22T16:57:07.999Z</time></trkpt><trkpt lat="47.26673671130413" lon="-0.19073199127208848"><ele>74.75</ele><time>2026-03-22T16:57:08.999Z</time></trkpt><trkpt lat="47.266706774450455" lon="-0.19054803852664243"><ele>74.5</ele><time>2026-03-22T16:57:09.999Z</time></trkpt><trkpt lat="47.26667857870107" lon="-0.19037871444535293"><ele>74.25</ele><time>2026-03-22T16:57:10.999Z</time></trkpt><trkpt lat="47.26665011880918" lon="-0.19022052146879995"><ele>74.0</ele><time>2026-03-22T16:57:11.999Z</time></trkpt><trkpt lat="47.26664685579808" lon="-0.1900711539665429"><ele>74.0</ele><time>2026-03-22T16:57:12.999Z</time></trkpt><trkpt lat="47.26664022442068" lon="-0.18992115485769137"><ele>74.0</ele><time>2026-03-22T16:57:14Z</time></trkpt><trkpt lat="47.266654057281364" lon="-0.18975800650675115"><ele>74.0</ele><time>2026-03-22T16:57:15Z</time></trkpt><trkpt lat="47.266679280123036" lon="-0.18958055369298882"><ele>74.0</ele><time>2026-03-22T16:57:16Z</time></trkpt><trkpt lat="47.266698766724396" lon="-0.18937692439513473"><ele>74.0</ele><time>2026-03-22T16:57:17Z</time></trkpt><trkpt lat="47.26672848910543" lon="-0.18915906960136958"><ele>74.0</ele><time>2026-03-22T16:57:18Z</time></trkpt><trkpt lat="47.26675364214378" lon="-0.1889609171831005"><ele>74.0</ele><time>2026-03-22T16:57:19Z</time></trkpt><trkpt lat="47.26677442621707" lon="-0.18877625781832275"><ele>74.0</ele><time>2026-03-22T16:57:20Z</time></trkpt><trkpt lat="47.26678238806862" lon="-0.1885969908760921"><ele>74.0</ele><time>2026-03-22T16:57:21Z</time></trkpt><trkpt lat="47.26678437253552" lon="-0.18839043855866322"><ele>74.0</ele><time>2026-03-22T16:57:22Z</time></trkpt><trkpt lat="47.266796465908826" lon="-0.18819430627934294"><ele>74.0</ele><time>2026-03-22T16:57:23Z</time></trkpt><trkpt lat="47.26678313602832" lon="-0.18802330368831788"><ele>74.0</ele><time>2026-03-22T16:57:24Z</time></trkpt><trkpt lat="47.2667817388928" lon="-0.1878715273828547"><ele>74.2</ele><time>2026-03-22T16:57:25Z</time></trkpt><trkpt lat="47.26677922451634" lon="-0.18773532435084286"><ele>74.4</ele><time>2026-03-22T16:57:26Z</time></trkpt><trkpt lat="47.26677612472123" lon="-0.1876313881806705"><ele>74.6</ele><time>2026-03-22T16:57:27Z</time></trkpt><trkpt lat="47.266772122237974" lon="-0.18749718489390968"><ele>74.8</ele><time>2026-03-22T16:57:29Z</time></trkpt><trkpt lat="47.26663931100284" lon="-0.1874761439065526"><ele>75.0</ele><time>2026-03-22T16:57:32Z</time></trkpt><trkpt lat="47.26655312855352" lon="-0.1874724972687801"><ele>75.0</ele><time>2026-03-22T16:57:33Z</time></trkpt><trkpt lat="47.2664502682608" lon="-0.187504149661159"><ele>75.0</ele><time>2026-03-22T16:57:34Z</time></trkpt><trkpt lat="47.26632265210489" lon="-0.18752254807867366"><ele>75.0</ele><time>2026-03-22T16:57:35Z</time></trkpt><trkpt lat="47.26616877178719" lon="-0.18753715996365664"><ele>75.0</ele><time>2026-03-22T16:57:36Z</time></trkpt><trkpt lat="47.26601327478159" lon="-0.18756973767469723"><ele>76.0</ele><time>2026-03-22T16:57:37Z</time></trkpt><trkpt lat="47.26585865732915" lon="-0.18761701109440657"><ele>77.0</ele><time>2026-03-22T16:57:38Z</time></trkpt><trkpt lat="47.26575230931643" lon="-0.18760921270260011"><ele>78.0</ele><time>2026-03-22T16:57:39Z</time></trkpt><trkpt lat="47.26563647214521" lon="-0.18762848399384802"><ele>79.0</ele><time>2026-03-22T16:57:40Z</time></trkpt><trkpt lat="47.26553163280682" lon="-0.18765235068135624"><ele>79.4</ele><time>2026-03-22T16:57:41Z</time></trkpt><trkpt lat="47.26543570118145" lon="-0.18767804145846573"><ele>79.80000000000001</ele><time>2026-03-22T16:57:42Z</time></trkpt><trkpt lat="47.26534236006814" lon="-0.18769808957517894"><ele>80.19999999999999</ele><time>2026-03-22T16:57:43Z</time></trkpt><trkpt lat="47.265266983900695" lon="-0.18777548905701405"><ele>80.6</ele><time>2026-03-22T16:57:44Z</time></trkpt><trkpt lat="47.26519899607022" lon="-0.18781790142657515"><ele>81.0</ele><time>2026-03-22T16:57:45Z</time></trkpt><trkpt lat="47.26510432910882" lon="-0.18790755913966273"><ele>81.0</ele><time>2026-03-22T16:57:47Z</time></trkpt><trkpt lat="47.264826561650295" lon="-0.18751366947150963"><ele>81.0</ele><time>2026-03-22T16:57:48Z</time></trkpt><trkpt lat="47.264685597733106" lon="-0.18744419623508388"><ele>80.33333333333333</ele><time>2026-03-22T16:57:49Z</time></trkpt><trkpt lat="47.264535589818756" lon="-0.187366080058241"><ele>79.66666666666666</ele><time>2026-03-22T16:57:50Z</time></trkpt><trkpt lat="47.264374364343865" lon="-0.18727875234101451"><ele>79.0</ele><time>2026-03-22T16:57:51Z</time></trkpt><trkpt lat="47.26421602116358" lon="-0.1871936275351287"><ele>80.0</ele><time>2026-03-22T16:57:52Z</time></trkpt><trkpt lat="47.264055768461176" lon="-0.18711442854022262"><ele>81.0</ele><time>2026-03-22T16:57:53Z</time></trkpt><trkpt lat="47.26389524549479" lon="-0.18703999028630847"><ele>82.0</ele><time>2026-03-22T16:57:54Z</time></trkpt><trkpt lat="47.26374110992761" lon="-0.18696601804987525"><ele>82.0</ele><time>2026-03-22T16:57:55Z</time></trkpt><trkpt lat="47.26360177372637" lon="-0.18690559512012553"><ele>82.0</ele><time>2026-03-22T16:57:56Z</time></trkpt><trkpt lat="47.26347755136261" lon="-0.18684688423166984"><ele>82.0</ele><time>2026-03-22T16:57:57Z</time></trkpt><trkpt lat="47.26336119058622" lon="-0.18678664983863394"><ele>82.0</ele><time>2026-03-22T16:57:58Z</time></trkpt><trkpt lat="47.263245263764674" lon="-0.18670285747568716"><ele>82.0</ele><time>2026-03-22T16:57:59Z</time></trkpt><trkpt lat="47.26314352166771" lon="-0.18661107546926659"><ele>82.0</ele><time>2026-03-22T16:58:00Z</time></trkpt><trkpt lat="47.263044926360884" lon="-0.18652390393104426"><ele>82.0</ele><time>2026-03-22T16:58:01Z</time></trkpt><trkpt lat="47.2629549325984" lon="-0.18642525253620632"><ele>82.0</ele><time>2026-03-22T16:58:02Z</time></trkpt><trkpt lat="47.26284988427248" lon="-0.18633413481126807"><ele>82.0</ele><time>2026-03-22T16:58:03Z</time></trkpt><trkpt lat="47.26275319069004" lon="-0.1862442584537742"><ele>82.0</ele><time>2026-03-22T16:58:04Z</time></trkpt><trkpt lat="47.26266323267865" lon="-0.1861639647440641"><ele>82.0</ele><time>2026-03-22T16:58:05Z</time></trkpt><trkpt lat="47.262581269910406" lon="-0.1860865083934678"><ele>82.0</ele><time>2026-03-22T16:58:06Z</time></trkpt><trkpt lat="47.26249133563013" lon="-0.18600783948678945"><ele>82.0</ele><time>2026-03-22T16:58:07Z</time></trkpt><trkpt lat="47.26238965240579" lon="-0.1859204865582749"><ele>82.0</ele><time>2026-03-22T16:58:08Z</time></trkpt><trkpt lat="47.26228610588994" lon="-0.1858272197481888"><ele>82.0</ele><time>2026-03-22T16:58:09Z</time></trkpt><trkpt lat="47.262176154821915" lon="-0.18570994813977315"><ele>82.0</ele><time>2026-03-22T16:58:10Z</time></trkpt><trkpt lat="47.262067557837796" lon="-0.1855703942785984"><ele>82.0</ele><time>2026-03-22T16:58:11Z</time></trkpt><trkpt lat="47.26195984497625" lon="-0.18544968196743583"><ele>80.8</ele><time>2026-03-22T16:58:12Z</time></trkpt><trkpt lat="47.261862228915696" lon="-0.1853484930730755"><ele>79.6</ele><time>2026-03-22T16:58:13Z</time></trkpt><trkpt lat="47.26178272510656" lon="-0.18524817701454535"><ele>78.39999999999999</ele><time>2026-03-22T16:58:14Z</time></trkpt><trkpt lat="47.261712479883045" lon="-0.18515615956180773"><ele>77.19999999999999</ele><time>2026-03-22T16:58:15Z</time></trkpt><trkpt lat="47.26165230121054" lon="-0.18509738801515915"><ele>76.0</ele><time>2026-03-22T16:58:16Z</time></trkpt><trkpt lat="47.26157923255505" lon="-0.18506878076773037"><ele>76.0</ele><time>2026-03-22T16:58:17Z</time></trkpt><trkpt lat="47.26149259587252" lon="-0.18506919650315534"><ele>76.0</ele><time>2026-03-22T16:58:18Z</time></trkpt><trkpt lat="47.26138015747578" lon="-0.18506044930881838"><ele>76.0</ele><time>2026-03-22T16:58:19Z</time></trkpt><trkpt lat="47.2612479591661" lon="-0.18499491821958883"><ele>76.0</ele><time>2026-03-22T16:58:20Z</time></trkpt><trkpt lat="47.26112897315181" lon="-0.1849234098208011"><ele>76.25</ele><time>2026-03-22T16:58:21Z</time></trkpt><trkpt lat="47.26099488831818" lon="-0.1848663209687712"><ele>76.5</ele><time>2026-03-22T16:58:22Z</time></trkpt><trkpt lat="47.26084414403653" lon="-0.18482258250142483"><ele>76.75</ele><time>2026-03-22T16:58:23Z</time></trkpt><trkpt lat="47.26069214409048" lon="-0.18478310041983131"><ele>77.0</ele><time>2026-03-22T16:58:24Z</time></trkpt><trkpt lat="47.260558663236054" lon="-0.18473962301492686"><ele>77.0</ele><time>2026-03-22T16:58:25Z</time></trkpt><trkpt lat="47.260436435760255" lon="-0.18470075668974625"><ele>77.0</ele><time>2026-03-22T16:58:26Z</time></trkpt><trkpt lat="47.26032125667187" lon="-0.18467003523285522"><ele>77.0</ele><time>2026-03-22T16:58:27Z</time></trkpt><trkpt lat="47.26020373026346" lon="-0.18467986619106133"><ele>77.0</ele><time>2026-03-22T16:58:28Z</time></trkpt><trkpt lat="47.26008056793074" lon="-0.18473164798453953"><ele>77.0</ele><time>2026-03-22T16:58:29Z</time></trkpt><trkpt lat="47.259934736239316" lon="-0.1847890234459799"><ele>77.0</ele><time>2026-03-22T16:58:30Z</time></trkpt><trkpt lat="47.25978726560884" lon="-0.18482806992483602"><ele>77.0</ele><time>2026-03-22T16:58:31Z</time></trkpt><trkpt lat="47.25964850197162" lon="-0.1848658520769876"><ele>77.0</ele><time>2026-03-22T16:58:32Z</time></trkpt><trkpt lat="47.25951856558183" lon="-0.18489516956611243"><ele>76.8</ele><time>2026-03-22T16:58:33Z</time></trkpt><trkpt lat="47.259403270049965" lon="-0.1849198004467463"><ele>76.6</ele><time>2026-03-22T16:58:34Z</time></trkpt><trkpt lat="47.25930115235063" lon="-0.18494777143354243"><ele>76.39999999999999</ele><time>2026-03-22T16:58:35Z</time></trkpt><trkpt lat="47.259231236914346" lon="-0.18498500727359662"><ele>76.2</ele><time>2026-03-22T16:58:36Z</time></trkpt><trkpt lat="47.259134231595446" lon="-0.18495962374475053"><ele>76.0</ele><time>2026-03-22T16:58:38Z</time></trkpt><trkpt lat="47.25907055477489" lon="-0.18477410368881633"><ele>76.0</ele><time>2026-03-22T16:58:40Z</time></trkpt><trkpt lat="47.25902676390763" lon="-0.18460178360845142"><ele>76.0</ele><time>2026-03-22T16:58:41Z</time></trkpt><trkpt lat="47.25896022445202" lon="-0.1843936758884891"><ele>76.0</ele><time>2026-03-22T16:58:42Z</time></trkpt><trkpt lat="47.25888936838591" lon="-0.184162681260342"><ele>75.0</ele><time>2026-03-22T16:58:43Z</time></trkpt><trkpt lat="47.258818856241454" lon="-0.18393413002831996"><ele>74.0</ele><time>2026-03-22T16:58:43.999Z</time></trkpt><trkpt lat="47.25875540430769" lon="-0.1837386428853917"><ele>73.0</ele><time>2026-03-22T16:58:44.999Z</time></trkpt><trkpt lat="47.258697377784664" lon="-0.18355739524047393"><ele>73.0</ele><time>2026-03-22T16:58:45.999Z</time></trkpt><trkpt lat="47.2586427047622" lon="-0.183400854340021"><ele>73.0</ele><time>2026-03-22T16:58:46.999Z</time></trkpt><trkpt lat="47.258598343173674" lon="-0.18326398341594333"><ele>73.0</ele><time>2026-03-22T16:58:47.999Z</time></trkpt><trkpt lat="47.25856610814227" lon="-0.18315330508157468"><ele>73.0</ele><time>2026-03-22T16:58:48.999Z</time></trkpt><trkpt lat="47.258502074324085" lon="-0.18302217777535298"><ele>73.0</ele><time>2026-03-22T16:58:50.999Z</time></trkpt><trkpt lat="47.25836500235106" lon="-0.1830419155444528"><ele>72.75</ele><time>2026-03-22T16:58:52.999Z</time></trkpt><trkpt lat="47.25827514946301" lon="-0.1830959279313545"><ele>72.5</ele><time>2026-03-22T16:58:53.999Z</time></trkpt><trkpt lat="47.25815341158559" lon="-0.183172544054242"><ele>72.25</ele><time>2026-03-22T16:58:54.999Z</time></trkpt><trkpt lat="47.25800714524314" lon="-0.18324168555258907"><ele>72.0</ele><time>2026-03-22T16:58:55.999Z</time></trkpt><trkpt lat="47.25786225404884" lon="-0.1833119657848474"><ele>73.33333333333333</ele><time>2026-03-22T16:58:56.999Z</time></trkpt><trkpt lat="47.257720274046534" lon="-0.18338525634808325"><ele>74.66666666666666</ele><time>2026-03-22T16:58:57.999Z</time></trkpt><trkpt lat="47.2575869041708" lon="-0.1834662609100848"><ele>76.0</ele><time>2026-03-22T16:58:58.999Z</time></trkpt><trkpt lat="47.25743953719213" lon="-0.18354965891488187"><ele>77.33333333333333</ele><time>2026-03-22T16:58:59.999Z</time></trkpt><trkpt lat="47.257283745841974" lon="-0.18363275995467016"><ele>78.66666666666667</ele><time>2026-03-22T16:59:00.999Z</time></trkpt><trkpt lat="47.25712273009766" lon="-0.18372097180237384"><ele>80.0</ele><time>2026-03-22T16:59:01.999Z</time></trkpt><trkpt lat="47.25697023911425" lon="-0.18379225044621067"><ele>80.0</ele><time>2026-03-22T16:59:02.999Z</time></trkpt><trkpt lat="47.256837141849076" lon="-0.18385832696732718"><ele>80.0</ele><time>2026-03-22T16:59:03.999Z</time></trkpt><trkpt lat="47.25671690465597" lon="-0.1839348354166919"><ele>80.0</ele><time>2026-03-22T16:59:04.999Z</time></trkpt><trkpt lat="47.256595344990075" lon="-0.18400470729505194"><ele>80.0</ele><time>2026-03-22T16:59:05.999Z</time></trkpt><trkpt lat="47.25649269019951" lon="-0.18406526813066726"><ele>80.5</ele><time>2026-03-22T16:59:06.999Z</time></trkpt><trkpt lat="47.25639831650147" lon="-0.18411912794961546"><ele>81.0</ele><time>2026-03-22T16:59:07.999Z</time></trkpt><trkpt lat="47.256316725067215" lon="-0.18416117385743985"><ele>81.5</ele><time>2026-03-22T16:59:08.999Z</time></trkpt><trkpt lat="47.256248620085046" lon="-0.18418987180237686"><ele>82.0</ele><time>2026-03-22T16:59:09.999Z</time></trkpt><trkpt lat="47.256177551524495" lon="-0.18426979519284511"><ele>82.5</ele><time>2026-03-22T16:59:11.999Z</time></trkpt><trkpt lat="47.25611905651612" lon="-0.1842048503982012"><ele>83.0</ele><time>2026-03-22T16:59:13.999Z</time></trkpt><trkpt lat="47.2561473885757" lon="-0.18407755394889933"><ele>83.80000000000001</ele><time>2026-03-22T16:59:15.999Z</time></trkpt><trkpt lat="47.25618928027705" lon="-0.18399318100996978"><ele>84.6</ele><time>2026-03-22T16:59:16.999Z</time></trkpt><trkpt lat="47.25624220950202" lon="-0.18389005819277596"><ele>85.4</ele><time>2026-03-22T16:59:17.999Z</time></trkpt><trkpt lat="47.256294378558344" lon="-0.18375603651233"><ele>86.19999999999999</ele><time>2026-03-22T16:59:18.999Z</time></trkpt><trkpt lat="47.25635255239656" lon="-0.18361775322150647"><ele>87.0</ele><time>2026-03-22T16:59:20Z</time></trkpt><trkpt lat="47.25641898026742" lon="-0.18347912793190205"><ele>85.8</ele><time>2026-03-22T16:59:21Z</time></trkpt><trkpt lat="47.25647631263986" lon="-0.18334770181294197"><ele>84.6</ele><time>2026-03-22T16:59:22Z</time></trkpt><trkpt lat="47.256523998364344" lon="-0.1832175398447714"><ele>83.39999999999999</ele><time>2026-03-22T16:59:23Z</time></trkpt><trkpt lat="47.2565577415277" lon="-0.18308142551985732"><ele>82.19999999999999</ele><time>2026-03-22T16:59:24Z</time></trkpt><trkpt lat="47.256583747934236" lon="-0.18292587796501275"><ele>81.0</ele><time>2026-03-22T16:59:25Z</time></trkpt><trkpt lat="47.25660929568514" lon="-0.182758811491959"><ele>81.0</ele><time>2026-03-22T16:59:26Z</time></trkpt><trkpt lat="47.256644234925275" lon="-0.1826256414968345"><ele>81.0</ele><time>2026-03-22T16:59:27Z</time></trkpt><trkpt lat="47.2566775090622" lon="-0.18249980664058"><ele>81.0</ele><time>2026-03-22T16:59:28Z</time></trkpt><trkpt lat="47.256701895023866" lon="-0.18233709284525076"><ele>81.0</ele><time>2026-03-22T16:59:29Z</time></trkpt><trkpt lat="47.256720536303476" lon="-0.18215647334159743"><ele>81.0</ele><time>2026-03-22T16:59:30Z</time></trkpt><trkpt lat="47.256734858032566" lon="-0.18199140412309464"><ele>79.75</ele><time>2026-03-22T16:59:31Z</time></trkpt><trkpt lat="47.25673201590012" lon="-0.1818292211026532"><ele>78.5</ele><time>2026-03-22T16:59:32Z</time></trkpt><trkpt lat="47.256727261814554" lon="-0.18166561128220143"><ele>77.25</ele><time>2026-03-22T16:59:33Z</time></trkpt><trkpt lat="47.2567240371467" lon="-0.18150893272488342"><ele>76.0</ele><time>2026-03-22T16:59:34Z</time></trkpt><trkpt lat="47.25670837483204" lon="-0.18124337451967068"><ele>75.75</ele><time>2026-03-22T16:59:35Z</time></trkpt><trkpt lat="47.25669805956511" lon="-0.18101565012418552"><ele>75.5</ele><time>2026-03-22T16:59:36Z</time></trkpt><trkpt lat="47.25670079278545" lon="-0.18081984781093605"><ele>75.25</ele><time>2026-03-22T16:59:37Z</time></trkpt><trkpt lat="47.25669820860582" lon="-0.18063748483083342"><ele>75.0</ele><time>2026-03-22T16:59:38Z</time></trkpt><trkpt lat="47.25670041149823" lon="-0.1804629086202014"><ele>74.25</ele><time>2026-03-22T16:59:39Z</time></trkpt><trkpt lat="47.25669946800264" lon="-0.18029399147636035"><ele>73.5</ele><time>2026-03-22T16:59:40Z</time></trkpt><trkpt lat="47.256704264255156" lon="-0.18013878064690814"><ele>72.75</ele><time>2026-03-22T16:59:41Z</time></trkpt><trkpt lat="47.25672357551442" lon="-0.17999367509687197"><ele>72.0</ele><time>2026-03-22T16:59:42Z</time></trkpt><trkpt lat="47.25676549857302" lon="-0.17981287409264973"><ele>72.0</ele><time>2026-03-22T16:59:43Z</time></trkpt><trkpt lat="47.256803365189725" lon="-0.17960874016202255"><ele>72.0</ele><time>2026-03-22T16:59:44Z</time></trkpt><trkpt lat="47.25682995804523" lon="-0.17941852434551106"><ele>72.0</ele><time>2026-03-22T16:59:45Z</time></trkpt><trkpt lat="47.256861250638146" lon="-0.17925846762739917"><ele>72.0</ele><time>2026-03-22T16:59:46Z</time></trkpt><trkpt lat="47.256893567946896" lon="-0.17911620217340507"><ele>71.8</ele><time>2026-03-22T16:59:47Z</time></trkpt><trkpt lat="47.256934559207906" lon="-0.1789894454384171"><ele>71.6</ele><time>2026-03-22T16:59:48Z</time></trkpt><trkpt lat="47.256981314380326" lon="-0.17886601252442488"><ele>71.39999999999999</ele><time>2026-03-22T16:59:49Z</time></trkpt><trkpt lat="47.25700843068924" lon="-0.17872698954112978"><ele>71.2</ele><time>2026-03-22T16:59:50Z</time></trkpt><trkpt lat="47.257035226442596" lon="-0.17855786701496482"><ele>71.0</ele><time>2026-03-22T16:59:51Z</time></trkpt><trkpt lat="47.257081472109356" lon="-0.17838855486031602"><ele>71.0</ele><time>2026-03-22T16:59:52Z</time></trkpt><trkpt lat="47.257117462821626" lon="-0.17824296828631767"><ele>71.0</ele><time>2026-03-22T16:59:53Z</time></trkpt><trkpt lat="47.25715999148924" lon="-0.17808414844990697"><ele>71.0</ele><time>2026-03-22T16:59:54Z</time></trkpt><trkpt lat="47.257200605558026" lon="-0.17790289639098797"><ele>71.0</ele><time>2026-03-22T16:59:55Z</time></trkpt><trkpt lat="47.257245381129565" lon="-0.177721292978522"><ele>70.8</ele><time>2026-03-22T16:59:56Z</time></trkpt><trkpt lat="47.25726043190182" lon="-0.17754808560786897"><ele>70.6</ele><time>2026-03-22T16:59:57Z</time></trkpt><trkpt lat="47.25727635456964" lon="-0.17738008278415274"><ele>70.4</ele><time>2026-03-22T16:59:58Z</time></trkpt><trkpt lat="47.257296547476784" lon="-0.17722451592190946"><ele>70.2</ele><time>2026-03-22T16:59:59Z</time></trkpt><trkpt lat="47.25731477107398" lon="-0.17707197665270394"><ele>70.0</ele><time>2026-03-22T17:00:00Z</time></trkpt><trkpt lat="47.257318158735636" lon="-0.17689838594263962"><ele>70.0</ele><time>2026-03-22T17:00:01Z</time></trkpt><trkpt lat="47.25730739770592" lon="-0.17671587059143795"><ele>70.0</ele><time>2026-03-22T17:00:02Z</time></trkpt><trkpt lat="47.25729410563182" lon="-0.17652641325950283"><ele>70.0</ele><time>2026-03-22T17:00:03Z</time></trkpt><trkpt lat="47.25728016372384" lon="-0.17634080029758017"><ele>70.0</ele><time>2026-03-22T17:00:04Z</time></trkpt><trkpt lat="47.25725629999501" lon="-0.17616517292719"><ele>69.5</ele><time>2026-03-22T17:00:05Z</time></trkpt><trkpt lat="47.2572428790673" lon="-0.17597222782938157"><ele>69.0</ele><time>2026-03-22T17:00:06Z</time></trkpt><trkpt lat="47.25723615202369" lon="-0.1757726913459864"><ele>68.5</ele><time>2026-03-22T17:00:07Z</time></trkpt><trkpt lat="47.257224077313126" lon="-0.17558264374553997"><ele>68.0</ele><time>2026-03-22T17:00:08Z</time></trkpt><trkpt lat="47.257213747510825" lon="-0.17541965150254665"><ele>68.0</ele><time>2026-03-22T17:00:09Z</time></trkpt><trkpt lat="47.25720732005973" lon="-0.17526737396496972"><ele>68.0</ele><time>2026-03-22T17:00:10Z</time></trkpt><trkpt lat="47.257216385586375" lon="-0.17515360243911834"><ele>68.0</ele><time>2026-03-22T17:00:11Z</time></trkpt><trkpt lat="47.25720134617858" lon="-0.17501882046529885"><ele>68.0</ele><time>2026-03-22T17:00:12Z</time></trkpt><trkpt lat="47.25717654058084" lon="-0.17490234622303866"><ele>68.0</ele><time>2026-03-22T17:00:13Z</time></trkpt><trkpt lat="47.25715337587972" lon="-0.17473750782444017"><ele>68.4</ele><time>2026-03-22T17:00:14Z</time></trkpt><trkpt lat="47.25713077394284" lon="-0.17453969687417517"><ele>68.8</ele><time>2026-03-22T17:00:15Z</time></trkpt><trkpt lat="47.25710844136968" lon="-0.1743788287995393"><ele>69.2</ele><time>2026-03-22T17:00:16Z</time></trkpt><trkpt lat="47.257080865945106" lon="-0.17424437948034888"><ele>69.6</ele><time>2026-03-22T17:00:17Z</time></trkpt><trkpt lat="47.257044906889334" lon="-0.17415304503265394"><ele>70.0</ele><time>2026-03-22T17:00:18Z</time></trkpt><trkpt lat="47.256966471779045" lon="-0.17408029200188066"><ele>70.5</ele><time>2026-03-22T17:00:19Z</time></trkpt><trkpt lat="47.25686936685273" lon="-0.17399766387590723"><ele>71.0</ele><time>2026-03-22T17:00:20Z</time></trkpt><trkpt lat="47.25673566527308" lon="-0.17387591616249612"><ele>71.5</ele><time>2026-03-22T17:00:21Z</time></trkpt><trkpt lat="47.25659661820682" lon="-0.1737414741336051"><ele>72.0</ele><time>2026-03-22T17:00:22Z</time></trkpt><trkpt lat="47.25648762715802" lon="-0.1736315395679985"><ele>71.8</ele><time>2026-03-22T17:00:23Z</time></trkpt><trkpt lat="47.256399591887764" lon="-0.17352879873608654"><ele>71.6</ele><time>2026-03-22T17:00:24Z</time></trkpt><trkpt lat="47.25632661674881" lon="-0.1734389035317701"><ele>71.39999999999999</ele><time>2026-03-22T17:00:25Z</time></trkpt><trkpt lat="47.25626237187214" lon="-0.17335325722631748"><ele>71.2</ele><time>2026-03-22T17:00:26Z</time></trkpt><trkpt lat="47.256202515467216" lon="-0.173249205080177"><ele>71.0</ele><time>2026-03-22T17:00:27Z</time></trkpt><trkpt lat="47.25613744096057" lon="-0.17309769751367868"><ele>71.0</ele><time>2026-03-22T17:00:28Z</time></trkpt><trkpt lat="47.25605918003025" lon="-0.17294993035912748"><ele>71.0</ele><time>2026-03-22T17:00:29Z</time></trkpt><trkpt lat="47.255960318836856" lon="-0.17277130305029903"><ele>71.0</ele><time>2026-03-22T17:00:30Z</time></trkpt><trkpt lat="47.255874422179474" lon="-0.17261723069719861"><ele>71.0</ele><time>2026-03-22T17:00:31Z</time></trkpt><trkpt lat="47.255794397603516" lon="-0.17247640379353477"><ele>71.2</ele><time>2026-03-22T17:00:32Z</time></trkpt><trkpt lat="47.25571785068425" lon="-0.17233189344192495"><ele>71.39999999999999</ele><time>2026-03-22T17:00:33Z</time></trkpt><trkpt lat="47.2556422231927" lon="-0.1721989145551043"><ele>71.6</ele><time>2026-03-22T17:00:34Z</time></trkpt><trkpt lat="47.2555828141352" lon="-0.17207121620907936"><ele>71.8</ele><time>2026-03-22T17:00:35Z</time></trkpt><trkpt lat="47.255527807797264" lon="-0.17194538902214265"><ele>72.0</ele><time>2026-03-22T17:00:36Z</time></trkpt><trkpt lat="47.25546813285744" lon="-0.17178957968833214"><ele>72.0</ele><time>2026-03-22T17:00:37Z</time></trkpt><trkpt lat="47.25540640338524" lon="-0.17161663358858234"><ele>72.0</ele><time>2026-03-22T17:00:38Z</time></trkpt><trkpt lat="47.25533675957084" lon="-0.17143829217945744"><ele>72.0</ele><time>2026-03-22T17:00:39Z</time></trkpt><trkpt lat="47.255299705878535" lon="-0.17124970172674267"><ele>72.0</ele><time>2026-03-22T17:00:40Z</time></trkpt><trkpt lat="47.25525744445132" lon="-0.17107703144574293"><ele>72.0</ele><time>2026-03-22T17:00:41Z</time></trkpt><trkpt lat="47.25520986154401" lon="-0.17088814362279225"><ele>72.0</ele><time>2026-03-22T17:00:42Z</time></trkpt><trkpt lat="47.255175333821015" lon="-0.17070571103519316"><ele>72.0</ele><time>2026-03-22T17:00:43Z</time></trkpt><trkpt lat="47.255143490701016" lon="-0.17051212676423125"><ele>72.0</ele><time>2026-03-22T17:00:44Z</time></trkpt><trkpt lat="47.255109954233795" lon="-0.1703178458441535"><ele>72.0</ele><time>2026-03-22T17:00:45Z</time></trkpt><trkpt lat="47.25508006098818" lon="-0.17014229301747263"><ele>72.0</ele><time>2026-03-22T17:00:46Z</time></trkpt><trkpt lat="47.25504926792078" lon="-0.16995909646852525"><ele>72.0</ele><time>2026-03-22T17:00:47Z</time></trkpt><trkpt lat="47.25501465967901" lon="-0.16977948082073074"><ele>72.0</ele><time>2026-03-22T17:00:48Z</time></trkpt><trkpt lat="47.25498745635222" lon="-0.1696136486215931"><ele>71.6</ele><time>2026-03-22T17:00:49Z</time></trkpt><trkpt lat="47.254962079015556" lon="-0.16945343941790317"><ele>71.2</ele><time>2026-03-22T17:00:50Z</time></trkpt><trkpt lat="47.25493297230312" lon="-0.16930168305638008"><ele>70.8</ele><time>2026-03-22T17:00:51Z</time></trkpt><trkpt lat="47.25491295594924" lon="-0.16915614728596798"><ele>70.4</ele><time>2026-03-22T17:00:52Z</time></trkpt><trkpt lat="47.25490176860831" lon="-0.16898743540566497"><ele>70.0</ele><time>2026-03-22T17:00:53Z</time></trkpt><trkpt lat="47.25488626890428" lon="-0.16881229343112908"><ele>70.0</ele><time>2026-03-22T17:00:54Z</time></trkpt><trkpt lat="47.2548606693585" lon="-0.16863945434134855"><ele>70.0</ele><time>2026-03-22T17:00:54.999Z</time></trkpt><trkpt lat="47.25484275413925" lon="-0.16849522046132154"><ele>70.0</ele><time>2026-03-22T17:00:55.999Z</time></trkpt><trkpt lat="47.25483462308211" lon="-0.1683654244387106"><ele>70.0</ele><time>2026-03-22T17:00:56.999Z</time></trkpt><trkpt lat="47.25483701650961" lon="-0.16821051988319585"><ele>70.0</ele><time>2026-03-22T17:00:57.999Z</time></trkpt><trkpt lat="47.254847642766194" lon="-0.16804027833922908"><ele>70.5</ele><time>2026-03-22T17:00:58.999Z</time></trkpt><trkpt lat="47.25486277634418" lon="-0.16786540584191106"><ele>71.0</ele><time>2026-03-22T17:00:59.999Z</time></trkpt><trkpt lat="47.254879609571766" lon="-0.1676782136435487"><ele>71.5</ele><time>2026-03-22T17:01:00.999Z</time></trkpt><trkpt lat="47.25488894321764" lon="-0.16750425162469032"><ele>72.0</ele><time>2026-03-22T17:01:01.999Z</time></trkpt><trkpt lat="47.25490145395653" lon="-0.1673636629417577"><ele>72.83333333333333</ele><time>2026-03-22T17:01:02.999Z</time></trkpt><trkpt lat="47.25490693382315" lon="-0.16723415138243555"><ele>73.66666666666667</ele><time>2026-03-22T17:01:03.999Z</time></trkpt><trkpt lat="47.25490756459465" lon="-0.16711579748039115"><ele>74.5</ele><time>2026-03-22T17:01:04.999Z</time></trkpt><trkpt lat="47.2549023445782" lon="-0.16700640319920498"><ele>75.33333333333334</ele><time>2026-03-22T17:01:05.999Z</time></trkpt><trkpt lat="47.254908694532396" lon="-0.16690239458463896"><ele>76.16666666666667</ele><time>2026-03-22T17:01:06.999Z</time></trkpt><trkpt lat="47.25491240260774" lon="-0.16679634575446373"><ele>77.0</ele><time>2026-03-22T17:01:07.999Z</time></trkpt><trkpt lat="47.25491020173226" lon="-0.16666463080592536"><ele>77.0</ele><time>2026-03-22T17:01:08.999Z</time></trkpt><trkpt lat="47.254913051459845" lon="-0.16655399023228246"><ele>77.0</ele><time>2026-03-22T17:01:09.999Z</time></trkpt><trkpt lat="47.25494112967697" lon="-0.16645922875443211"><ele>77.0</ele><time>2026-03-22T17:01:10.999Z</time></trkpt><trkpt lat="47.25498044698059" lon="-0.1663073240516059"><ele>77.0</ele><time>2026-03-22T17:01:12.999Z</time></trkpt><trkpt lat="47.2549657869897" lon="-0.16618833903613775"><ele>77.0</ele><time>2026-03-22T17:01:23.999Z</time></trkpt><trkpt lat="47.25497897586487" lon="-0.16604115755157908"><ele>77.0</ele><time>2026-03-22T17:01:26Z</time></trkpt><trkpt lat="47.25498567480837" lon="-0.16594034744933395"><ele>76.6</ele><time>2026-03-22T17:01:27Z</time></trkpt><trkpt lat="47.25499096066556" lon="-0.16582309832811828"><ele>76.2</ele><time>2026-03-22T17:01:28Z</time></trkpt><trkpt lat="47.25499494014113" lon="-0.1656989445514472"><ele>75.8</ele><time>2026-03-22T17:01:29Z</time></trkpt><trkpt lat="47.25499885021757" lon="-0.1655746263688502"><ele>75.4</ele><time>2026-03-22T17:01:30Z</time></trkpt><trkpt lat="47.25500136670184" lon="-0.1654298777424071"><ele>75.0</ele><time>2026-03-22T17:01:31Z</time></trkpt><trkpt lat="47.255004229667286" lon="-0.16526168952391732"><ele>74.6</ele><time>2026-03-22T17:01:32Z</time></trkpt><trkpt lat="47.25500581639423" lon="-0.1650973757580923"><ele>74.2</ele><time>2026-03-22T17:01:33Z</time></trkpt><trkpt lat="47.25500319753538" lon="-0.16496878999248113"><ele>73.8</ele><time>2026-03-22T17:01:34Z</time></trkpt><trkpt lat="47.25499879315299" lon="-0.1648327826347854"><ele>73.4</ele><time>2026-03-22T17:01:35Z</time></trkpt><trkpt lat="47.2549927636473" lon="-0.16468610922245563"><ele>73.0</ele><time>2026-03-22T17:01:36Z</time></trkpt><trkpt lat="47.254984760339056" lon="-0.1645253974754233"><ele>72.8</ele><time>2026-03-22T17:01:37Z</time></trkpt><trkpt lat="47.25497536458769" lon="-0.16436625941635002"><ele>72.6</ele><time>2026-03-22T17:01:38Z</time></trkpt><trkpt lat="47.25496662629023" lon="-0.1642182566125694"><ele>72.4</ele><time>2026-03-22T17:01:39Z</time></trkpt><trkpt lat="47.25496826632561" lon="-0.16409224119949786"><ele>72.2</ele><time>2026-03-22T17:01:40Z</time></trkpt><trkpt lat="47.25495278144563" lon="-0.16395278038755848"><ele>72.0</ele><time>2026-03-22T17:01:41Z</time></trkpt><trkpt lat="47.25496119928523" lon="-0.16380337869055764"><ele>72.4</ele><time>2026-03-22T17:01:42Z</time></trkpt><trkpt lat="47.254944799838306" lon="-0.16364408121066296"><ele>72.80000000000001</ele><time>2026-03-22T17:01:43Z</time></trkpt><trkpt lat="47.254957467984894" lon="-0.1634854400701798"><ele>73.2</ele><time>2026-03-22T17:01:44Z</time></trkpt><trkpt lat="47.25494888092835" lon="-0.16334396309479107"><ele>73.60000000000001</ele><time>2026-03-22T17:01:45Z</time></trkpt><trkpt lat="47.25496790564699" lon="-0.16321686450990952"><ele>74.0</ele><time>2026-03-22T17:01:46Z</time></trkpt><trkpt lat="47.254957635988816" lon="-0.16308642982905946"><ele>74.25</ele><time>2026-03-22T17:01:47Z</time></trkpt><trkpt lat="47.25496304935909" lon="-0.16293347861170135"><ele>74.5</ele><time>2026-03-22T17:01:48Z</time></trkpt><trkpt lat="47.25496937111594" lon="-0.16275486192508493"><ele>74.75</ele><time>2026-03-22T17:01:49Z</time></trkpt><trkpt lat="47.25497580120022" lon="-0.1625731844315046"><ele>75.0</ele><time>2026-03-22T17:01:50Z</time></trkpt><trkpt lat="47.25499611765551" lon="-0.16242694473507394"><ele>74.66666666666667</ele><time>2026-03-22T17:01:51Z</time></trkpt><trkpt lat="47.254988239346005" lon="-0.16228497506794343"><ele>74.33333333333333</ele><time>2026-03-22T17:01:52Z</time></trkpt><trkpt lat="47.255006882438856" lon="-0.16215657986729892"><ele>74.0</ele><time>2026-03-22T17:01:53Z</time></trkpt><trkpt lat="47.255001099468785" lon="-0.16203934317950702"><ele>73.66666666666666</ele><time>2026-03-22T17:01:54Z</time></trkpt><trkpt lat="47.25500780455536" lon="-0.16192890576797447"><ele>73.33333333333333</ele><time>2026-03-22T17:01:55Z</time></trkpt><trkpt lat="47.255016927832195" lon="-0.161813391390768"><ele>73.0</ele><time>2026-03-22T17:01:56Z</time></trkpt><trkpt lat="47.25502583239969" lon="-0.1617036529207677"><ele>73.0</ele><time>2026-03-22T17:01:57Z</time></trkpt><trkpt lat="47.25505022763993" lon="-0.1615830021053786"><ele>73.0</ele><time>2026-03-22T17:01:58Z</time></trkpt><trkpt lat="47.25505495067489" lon="-0.16145908572228743"><ele>73.0</ele><time>2026-03-22T17:01:59Z</time></trkpt><trkpt lat="47.25506928661681" lon="-0.16132030005300596"><ele>73.0</ele><time>2026-03-22T17:02:00Z</time></trkpt><trkpt lat="47.255091194668935" lon="-0.1611567958325334"><ele>73.0</ele><time>2026-03-22T17:02:01Z</time></trkpt><trkpt lat="47.25509851787094" lon="-0.16099876095588583"><ele>72.6</ele><time>2026-03-22T17:02:02Z</time></trkpt><trkpt lat="47.255139105884545" lon="-0.16084278146380887"><ele>72.19999999999999</ele><time>2026-03-22T17:02:03Z</time></trkpt><trkpt lat="47.25516739916007" lon="-0.16070825701170513"><ele>71.8</ele><time>2026-03-22T17:02:04Z</time></trkpt><trkpt lat="47.25519131743208" lon="-0.16056434080275592"><ele>71.39999999999999</ele><time>2026-03-22T17:02:05Z</time></trkpt><trkpt lat="47.25521811909277" lon="-0.1604487536310416"><ele>71.0</ele><time>2026-03-22T17:02:06Z</time></trkpt><trkpt lat="47.255233910809025" lon="-0.1603430099643491"><ele>70.85714285714286</ele><time>2026-03-22T17:02:07Z</time></trkpt><trkpt lat="47.25524590061192" lon="-0.16024826566491232"><ele>70.71428571428571</ele><time>2026-03-22T17:02:07.999Z</time></trkpt><trkpt lat="47.255267758101496" lon="-0.16010332879807457"><ele>70.57142857142857</ele><time>2026-03-22T17:02:09.999Z</time></trkpt><trkpt lat="47.25526331920542" lon="-0.16000003851321262"><ele>70.42857142857143</ele><time>2026-03-22T17:02:12.999Z</time></trkpt><trkpt lat="47.25528837083896" lon="-0.15991453135667613"><ele>70.28571428571428</ele><time>2026-03-22T17:02:14.999Z</time></trkpt><trkpt lat="47.25529556969023" lon="-0.16001527102516028"><ele>70.14285714285714</ele><time>2026-03-22T17:02:16.999Z</time></trkpt><trkpt lat="47.2553023430632" lon="-0.16012603428214978"><ele>70.0</ele><time>2026-03-22T17:02:17.999Z</time></trkpt><trkpt lat="47.255290596059616" lon="-0.16025450343128733"><ele>70.0</ele><time>2026-03-22T17:02:18.999Z</time></trkpt><trkpt lat="47.255272970671115" lon="-0.1603482842960941"><ele>70.0</ele><time>2026-03-22T17:02:19.999Z</time></trkpt><trkpt lat="47.25524040739011" lon="-0.1604793538036412"><ele>70.0</ele><time>2026-03-22T17:02:21.999Z</time></trkpt><trkpt lat="47.25514835294643" lon="-0.16052595794117266"><ele>70.0</ele><time>2026-03-22T17:02:23.999Z</time></trkpt><trkpt lat="47.255031705802224" lon="-0.16051800450226097"><ele>70.0</ele><time>2026-03-22T17:02:25.999Z</time></trkpt><trkpt lat="47.25496013920649" lon="-0.1605353862620499"><ele>70.0</ele><time>2026-03-22T17:02:26.999Z</time></trkpt><trkpt lat="47.254897763365534" lon="-0.16055160482499856"><ele>70.0</ele><time>2026-03-22T17:02:27.999Z</time></trkpt><trkpt lat="47.254787313841845" lon="-0.16057908275077076"><ele>70.0</ele><time>2026-03-22T17:02:29.999Z</time></trkpt><trkpt lat="47.254706861115004" lon="-0.1605828670069163"><ele>70.0</ele><time>2026-03-22T17:02:30.999Z</time></trkpt><trkpt lat="47.254631643244025" lon="-0.16061071071816213"><ele>70.0</ele><time>2026-03-22T17:02:31.999Z</time></trkpt><trkpt lat="47.2545220672758" lon="-0.16064003967218995"><ele>70.0</ele><time>2026-03-22T17:02:33.999Z</time></trkpt><trkpt lat="47.25442782577305" lon="-0.16061382156098214"><ele>70.0</ele><time>2026-03-22T17:02:35.999Z</time></trkpt><trkpt lat="47.254390161106976" lon="-0.16052127793877563"><ele>70.0</ele><time>2026-03-22T17:02:37.999Z</time></trkpt><trkpt lat="47.254377741790314" lon="-0.1603943508408475"><ele>70.0</ele><time>2026-03-22T17:02:38.999Z</time></trkpt><trkpt lat="47.25433890327882" lon="-0.1602702063310612"><ele>70.0</ele><time>2026-03-22T17:02:39.999Z</time></trkpt><trkpt lat="47.25427780374162" lon="-0.160165098671664"><ele>70.0</ele><time>2026-03-22T17:02:40.999Z</time></trkpt><trkpt lat="47.25420588297945" lon="-0.1600475029526889"><ele>70.0</ele><time>2026-03-22T17:02:41.999Z</time></trkpt><trkpt lat="47.25415155293612" lon="-0.1599282457642658"><ele>70.0</ele><time>2026-03-22T17:02:42.999Z</time></trkpt><trkpt lat="47.254119517005776" lon="-0.15980586157154952"><ele>70.0</ele><time>2026-03-22T17:02:43.999Z</time></trkpt><trkpt lat="47.254089759876415" lon="-0.15967391986497873"><ele>70.0</ele><time>2026-03-22T17:02:44.999Z</time></trkpt><trkpt lat="47.25405944827244" lon="-0.15956416375676066"><ele>70.0</ele><time>2026-03-22T17:02:45.999Z</time></trkpt><trkpt lat="47.25403977353229" lon="-0.15944489296684333"><ele>70.0</ele><time>2026-03-22T17:02:46.999Z</time></trkpt><trkpt lat="47.25403069905739" lon="-0.15929876520080638"><ele>70.5</ele><time>2026-03-22T17:02:47.999Z</time></trkpt><trkpt lat="47.254032970720125" lon="-0.15913449756261477"><ele>71.0</ele><time>2026-03-22T17:02:48.999Z</time></trkpt><trkpt lat="47.254031165132055" lon="-0.15894660086500717"><ele>71.5</ele><time>2026-03-22T17:02:49.999Z</time></trkpt><trkpt lat="47.25403013941875" lon="-0.15875348580100046"><ele>72.0</ele><time>2026-03-22T17:02:50.999Z</time></trkpt><trkpt lat="47.25402477050213" lon="-0.15859935764517105"><ele>72.0</ele><time>2026-03-22T17:02:51.999Z</time></trkpt><trkpt lat="47.254017443770024" lon="-0.15846890971677477"><ele>72.0</ele><time>2026-03-22T17:02:52.999Z</time></trkpt><trkpt lat="47.25400429660787" lon="-0.1583485232619906"><ele>72.0</ele><time>2026-03-22T17:02:53.999Z</time></trkpt><trkpt lat="47.25398128554144" lon="-0.15823154706516468"><ele>72.0</ele><time>2026-03-22T17:02:54.999Z</time></trkpt><trkpt lat="47.253957154969" lon="-0.15812542385825276"><ele>72.0</ele><time>2026-03-22T17:02:55.999Z</time></trkpt><trkpt lat="47.25393462368577" lon="-0.15802663990009272"><ele>72.0</ele><time>2026-03-22T17:02:56.999Z</time></trkpt><trkpt lat="47.253891279449505" lon="-0.1579340032499997"><ele>72.2</ele><time>2026-03-22T17:02:57.999Z</time></trkpt><trkpt lat="47.25382701841386" lon="-0.15787041902828736"><ele>72.4</ele><time>2026-03-22T17:02:58.999Z</time></trkpt><trkpt lat="47.25373690495443" lon="-0.15778488865753884"><ele>72.6</ele><time>2026-03-22T17:02:59.998Z</time></trkpt><trkpt lat="47.25364747428565" lon="-0.15771633179648958"><ele>72.8</ele><time>2026-03-22T17:03:00.998Z</time></trkpt><trkpt lat="47.253560313685114" lon="-0.15767060535672284"><ele>73.0</ele><time>2026-03-22T17:03:01.998Z</time></trkpt><trkpt lat="47.25346705015052" lon="-0.1576123470285741"><ele>73.0</ele><time>2026-03-22T17:03:02.998Z</time></trkpt><trkpt lat="47.25335649848425" lon="-0.15754911339190605"><ele>73.0</ele><time>2026-03-22T17:03:03.998Z</time></trkpt><trkpt lat="47.25324940951528" lon="-0.15748320459260423"><ele>73.0</ele><time>2026-03-22T17:03:04.998Z</time></trkpt><trkpt lat="47.2531512259003" lon="-0.15740909092596544"><ele>73.0</ele><time>2026-03-22T17:03:05.998Z</time></trkpt><trkpt lat="47.25306718741727" lon="-0.157341256025988"><ele>73.0</ele><time>2026-03-22T17:03:06.998Z</time></trkpt><trkpt lat="47.25297521395067" lon="-0.15727232309938177"><ele>72.66666666666666</ele><time>2026-03-22T17:03:07.998Z</time></trkpt><trkpt lat="47.2528870128351" lon="-0.15719625507790547"><ele>72.33333333333333</ele><time>2026-03-22T17:03:08.998Z</time></trkpt><trkpt lat="47.25280880004708" lon="-0.15713885493685428"><ele>72.0</ele><time>2026-03-22T17:03:09.998Z</time></trkpt><trkpt lat="47.252737877010624" lon="-0.15709182069456748"><ele>71.66666666666667</ele><time>2026-03-22T17:03:10.998Z</time></trkpt><trkpt lat="47.252668453198744" lon="-0.15703879357247869"><ele>71.33333333333334</ele><time>2026-03-22T17:03:11.998Z</time></trkpt><trkpt lat="47.25261239162794" lon="-0.1569617348593181"><ele>71.0</ele><time>2026-03-22T17:03:12.998Z</time></trkpt><trkpt lat="47.252559330012176" lon="-0.15686156931013884"><ele>71.0</ele><time>2026-03-22T17:03:13.998Z</time></trkpt><trkpt lat="47.25250022650226" lon="-0.15672396026571903"><ele>71.0</ele><time>2026-03-22T17:03:14.998Z</time></trkpt><trkpt lat="47.25244465891647" lon="-0.15658252439396275"><ele>71.0</ele><time>2026-03-22T17:03:15.998Z</time></trkpt><trkpt lat="47.252401751170225" lon="-0.15646288731296085"><ele>71.0</ele><time>2026-03-22T17:03:16.998Z</time></trkpt><trkpt lat="47.25236053485634" lon="-0.15636946225050913"><ele>71.0</ele><time>2026-03-22T17:03:17.998Z</time></trkpt><trkpt lat="47.25231087568009" lon="-0.15628752687800626"><ele>70.42857142857143</ele><time>2026-03-22T17:03:18.998Z</time></trkpt><trkpt lat="47.25225363685827" lon="-0.1562036472208944"><ele>69.85714285714285</ele><time>2026-03-22T17:03:19.998Z</time></trkpt><trkpt lat="47.25219419753127" lon="-0.15613036717448547"><ele>69.28571428571428</ele><time>2026-03-22T17:03:20.998Z</time></trkpt><trkpt lat="47.25214003605134" lon="-0.15607179367338725"><ele>68.71428571428571</ele><time>2026-03-22T17:03:21.998Z</time></trkpt><trkpt lat="47.25207614840122" lon="-0.15602805774812736"><ele>68.14285714285714</ele><time>2026-03-22T17:03:22.998Z</time></trkpt><trkpt lat="47.252011034721846" lon="-0.1559854650224879"><ele>67.57142857142857</ele><time>2026-03-22T17:03:23.998Z</time></trkpt><trkpt lat="47.25194828706465" lon="-0.15597242769719546"><ele>67.0</ele><time>2026-03-22T17:03:24.998Z</time></trkpt><trkpt lat="47.25188335696455" lon="-0.155964552026038"><ele>67.0</ele><time>2026-03-22T17:03:25.998Z</time></trkpt><trkpt lat="47.251762124686984" lon="-0.1559947412923353"><ele>67.0</ele><time>2026-03-22T17:03:27.998Z</time></trkpt><trkpt lat="47.25170169559168" lon="-0.15608894106498386"><ele>67.0</ele><time>2026-03-22T17:03:29.998Z</time></trkpt><trkpt lat="47.25166980463132" lon="-0.1561907665147446"><ele>67.0</ele><time>2026-03-22T17:03:31.999Z</time></trkpt><trkpt lat="47.25159937188213" lon="-0.1561386719792341"><ele>67.0</ele><time>2026-03-22T17:03:33.999Z</time></trkpt><trkpt lat="47.25164132900209" lon="-0.15602317262456314"><ele>67.0</ele><time>2026-03-22T17:03:36Z</time></trkpt><trkpt lat="47.25170799333846" lon="-0.15600234952315847"><ele>67.0</ele><time>2026-03-22T17:03:37Z</time></trkpt><trkpt lat="47.25179228338579" lon="-0.1559881423378751"><ele>67.0</ele><time>2026-03-22T17:03:38Z</time></trkpt><trkpt lat="47.251888197198475" lon="-0.15596886459644738"><ele>67.0</ele><time>2026-03-22T17:03:39Z</time></trkpt><trkpt lat="47.251981292240394" lon="-0.15597059006828384"><ele>67.0</ele><time>2026-03-22T17:03:40Z</time></trkpt><trkpt lat="47.25205868723993" lon="-0.15600359523428378"><ele>67.0</ele><time>2026-03-22T17:03:41Z</time></trkpt><trkpt lat="47.25212097748169" lon="-0.15607251748819534"><ele>67.0</ele><time>2026-03-22T17:03:42Z</time></trkpt><trkpt lat="47.25219048263243" lon="-0.15616403654275715"><ele>67.0</ele><time>2026-03-22T17:03:43Z</time></trkpt><trkpt lat="47.252264860482306" lon="-0.15627185844434188"><ele>67.0</ele><time>2026-03-22T17:03:44Z</time></trkpt><trkpt lat="47.25233411882353" lon="-0.15639246485729436"><ele>67.0</ele><time>2026-03-22T17:03:45Z</time></trkpt><trkpt lat="47.252401877846836" lon="-0.15652411002526753"><ele>67.0</ele><time>2026-03-22T17:03:46Z</time></trkpt><trkpt lat="47.252463620939984" lon="-0.1566798816989701"><ele>68.0</ele><time>2026-03-22T17:03:47Z</time></trkpt><trkpt lat="47.25252169583504" lon="-0.15684828138753293"><ele>69.0</ele><time>2026-03-22T17:03:47.999Z</time></trkpt><trkpt lat="47.25259681587806" lon="-0.15699112122489386"><ele>70.0</ele><time>2026-03-22T17:03:48.999Z</time></trkpt><trkpt lat="47.25267724130463" lon="-0.15708829448093226"><ele>71.0</ele><time>2026-03-22T17:03:49.999Z</time></trkpt><trkpt lat="47.252775805561974" lon="-0.15717408889862103"><ele>71.0</ele><time>2026-03-22T17:03:50.999Z</time></trkpt><trkpt lat="47.25288373994496" lon="-0.15724511897311902"><ele>71.0</ele><time>2026-03-22T17:03:51.999Z</time></trkpt><trkpt lat="47.25300592390939" lon="-0.15731655282823975"><ele>71.0</ele><time>2026-03-22T17:03:52.999Z</time></trkpt><trkpt lat="47.253137302727055" lon="-0.15742132577379225"><ele>71.0</ele><time>2026-03-22T17:03:53.999Z</time></trkpt><trkpt lat="47.25325589136035" lon="-0.15751178647349065"><ele>71.39999999999999</ele><time>2026-03-22T17:03:54.999Z</time></trkpt><trkpt lat="47.253354213585425" lon="-0.15758298244237723"><ele>71.8</ele><time>2026-03-22T17:03:55.999Z</time></trkpt><trkpt lat="47.25345267578884" lon="-0.15764949584665494"><ele>72.19999999999999</ele><time>2026-03-22T17:03:56.999Z</time></trkpt><trkpt lat="47.253561073035115" lon="-0.15770465667149847"><ele>72.6</ele><time>2026-03-22T17:03:57.999Z</time></trkpt><trkpt lat="47.25366015872812" lon="-0.15776333948299576"><ele>73.0</ele><time>2026-03-22T17:03:58.999Z</time></trkpt><trkpt lat="47.25374921082597" lon="-0.1578315210768805"><ele>73.0</ele><time>2026-03-22T17:03:59.999Z</time></trkpt><trkpt lat="47.253824316490274" lon="-0.15790928411762425"><ele>73.0</ele><time>2026-03-22T17:04:00.999Z</time></trkpt><trkpt lat="47.25388538873977" lon="-0.15798456971209116"><ele>73.0</ele><time>2026-03-22T17:04:01.999Z</time></trkpt><trkpt lat="47.25393570412428" lon="-0.15806336068427643"><ele>73.0</ele><time>2026-03-22T17:04:02.999Z</time></trkpt><trkpt lat="47.253955825414884" lon="-0.15816269171166955"><ele>73.0</ele><time>2026-03-22T17:04:03.999Z</time></trkpt><trkpt lat="47.25397036905219" lon="-0.15829038113434654"><ele>73.0</ele><time>2026-03-22T17:04:04.999Z</time></trkpt><trkpt lat="47.25399450739905" lon="-0.1584526178632113"><ele>73.0</ele><time>2026-03-22T17:04:05.999Z</time></trkpt><trkpt lat="47.25400708489529" lon="-0.15861463728769737"><ele>73.0</ele><time>2026-03-22T17:04:06.999Z</time></trkpt><trkpt lat="47.25401136419537" lon="-0.15881299192300274"><ele>73.0</ele><time>2026-03-22T17:04:07.999Z</time></trkpt><trkpt lat="47.25401284684295" lon="-0.15898697702409834"><ele>73.0</ele><time>2026-03-22T17:04:08.999Z</time></trkpt><trkpt lat="47.25401534827869" lon="-0.15913571534388424"><ele>73.0</ele><time>2026-03-22T17:04:09.999Z</time></trkpt><trkpt lat="47.25401200915416" lon="-0.15924199312120604"><ele>73.0</ele><time>2026-03-22T17:04:10.999Z</time></trkpt><trkpt lat="47.2540088049974" lon="-0.1593935143708978"><ele>73.0</ele><time>2026-03-22T17:04:11.999Z</time></trkpt><trkpt lat="47.25401580242989" lon="-0.15953102197171037"><ele>73.0</ele><time>2026-03-22T17:04:12.999Z</time></trkpt><trkpt lat="47.254029975565125" lon="-0.1596374000712801"><ele>73.0</ele><time>2026-03-22T17:04:13.999Z</time></trkpt><trkpt lat="47.254075864726794" lon="-0.15975965712422618"><ele>73.0</ele><time>2026-03-22T17:04:14.999Z</time></trkpt><trkpt lat="47.25412097117905" lon="-0.15988171174261698"><ele>72.4</ele><time>2026-03-22T17:04:15.999Z</time></trkpt><trkpt lat="47.25414572274355" lon="-0.16000473717533242"><ele>71.8</ele><time>2026-03-22T17:04:16.999Z</time></trkpt><trkpt lat="47.25419118880198" lon="-0.1601298454270622"><ele>71.2</ele><time>2026-03-22T17:04:17.999Z</time></trkpt><trkpt lat="47.25426128094363" lon="-0.16025397615715423"><ele>70.6</ele><time>2026-03-22T17:04:18.999Z</time></trkpt><trkpt lat="47.25432900540768" lon="-0.16034426667018437"><ele>70.0</ele><time>2026-03-22T17:04:19.999Z</time></trkpt><trkpt lat="47.254372407965846" lon="-0.16043593664669695"><ele>70.0</ele><time>2026-03-22T17:04:20.999Z</time></trkpt><trkpt lat="47.254383759884746" lon="-0.16058602335372613"><ele>70.0</ele><time>2026-03-22T17:04:22.999Z</time></trkpt><trkpt lat="47.25447223496101" lon="-0.16065822528261467"><ele>70.0</ele><time>2026-03-22T17:04:25.999Z</time></trkpt><trkpt lat="47.254608092751255" lon="-0.1606280064646377"><ele>70.0</ele><time>2026-03-22T17:04:27.999Z</time></trkpt><trkpt lat="47.25471439321246" lon="-0.16059233009471158"><ele>70.0</ele><time>2026-03-22T17:04:28.999Z</time></trkpt><trkpt lat="47.254812078073904" lon="-0.1605707673329925"><ele>70.0</ele><time>2026-03-22T17:04:29.999Z</time></trkpt><trkpt lat="47.25489146646888" lon="-0.16054997389896708"><ele>70.0</ele><time>2026-03-22T17:04:30.999Z</time></trkpt><trkpt lat="47.255013397961434" lon="-0.16053058307637505"><ele>70.0</ele><time>2026-03-22T17:04:32.999Z</time></trkpt><trkpt lat="47.25508308295119" lon="-0.1605209815187344"><ele>70.0</ele><time>2026-03-22T17:04:33.999Z</time></trkpt><trkpt lat="47.25515024874215" lon="-0.16051490762301285"><ele>70.0</ele><time>2026-03-22T17:04:34.999Z</time></trkpt><trkpt lat="47.255229239268964" lon="-0.16047470187891996"><ele>70.0</ele><time>2026-03-22T17:04:36.999Z</time></trkpt><trkpt lat="47.2552674269758" lon="-0.16028017534711275"><ele>70.0</ele><time>2026-03-22T17:04:38.999Z</time></trkpt><trkpt lat="47.2552786487518" lon="-0.16013924790023648"><ele>70.0</ele><time>2026-03-22T17:04:39.999Z</time></trkpt><trkpt lat="47.255288421962405" lon="-0.16000722759333091"><ele>70.0</ele><time>2026-03-22T17:04:40.999Z</time></trkpt><trkpt lat="47.2553109531508" lon="-0.15984847244543834"><ele>70.0</ele><time>2026-03-22T17:04:41.999Z</time></trkpt><trkpt lat="47.255327964076706" lon="-0.15966791972294553"><ele>70.25</ele><time>2026-03-22T17:04:42.999Z</time></trkpt><trkpt lat="47.25535834444602" lon="-0.15949073819991602"><ele>70.5</ele><time>2026-03-22T17:04:43.999Z</time></trkpt><trkpt lat="47.25539127196217" lon="-0.1592998277999477"><ele>70.75</ele><time>2026-03-22T17:04:44.999Z</time></trkpt><trkpt lat="47.25544175033107" lon="-0.15909819153096658"><ele>71.0</ele><time>2026-03-22T17:04:45.999Z</time></trkpt><trkpt lat="47.2554583896923" lon="-0.15889450078758183"><ele>71.0</ele><time>2026-03-22T17:04:46.999Z</time></trkpt><trkpt lat="47.25549115645865" lon="-0.15867978700656607"><ele>71.0</ele><time>2026-03-22T17:04:47.999Z</time></trkpt><trkpt lat="47.2555318094946" lon="-0.15851919073727233"><ele>71.0</ele><time>2026-03-22T17:04:48.999Z</time></trkpt><trkpt lat="47.25553911818305" lon="-0.15835236900833488"><ele>71.0</ele><time>2026-03-22T17:04:49.999Z</time></trkpt><trkpt lat="47.25556297082474" lon="-0.15818754841982288"><ele>70.75</ele><time>2026-03-22T17:04:50.999Z</time></trkpt><trkpt lat="47.2555879313351" lon="-0.15801507305246948"><ele>70.5</ele><time>2026-03-22T17:04:51.999Z</time></trkpt><trkpt lat="47.255613016184064" lon="-0.15784304778378266"><ele>70.25</ele><time>2026-03-22T17:04:52.999Z</time></trkpt><trkpt lat="47.255636089889975" lon="-0.15768559976205943"><ele>70.0</ele><time>2026-03-22T17:04:53.999Z</time></trkpt><trkpt lat="47.25566093315121" lon="-0.15751607634716572"><ele>70.0</ele><time>2026-03-22T17:04:54.999Z</time></trkpt><trkpt lat="47.255700623718475" lon="-0.1573581997714818"><ele>70.0</ele><time>2026-03-22T17:04:55.999Z</time></trkpt><trkpt lat="47.25571191706022" lon="-0.15721136203453234"><ele>70.0</ele><time>2026-03-22T17:04:56.999Z</time></trkpt><trkpt lat="47.25573670936719" lon="-0.157071940308906"><ele>70.0</ele><time>2026-03-22T17:04:57.999Z</time></trkpt><trkpt lat="47.25575322797589" lon="-0.15694978973037438"><ele>70.0</ele><time>2026-03-22T17:04:58.999Z</time></trkpt><trkpt lat="47.25575959359915" lon="-0.15684202657976162"><ele>70.0</ele><time>2026-03-22T17:04:59.999Z</time></trkpt><trkpt lat="47.25575961422624" lon="-0.1567295639163404"><ele>70.0</ele><time>2026-03-22T17:05:00.999Z</time></trkpt><trkpt lat="47.255772337653646" lon="-0.15661119814625396"><ele>70.0</ele><time>2026-03-22T17:05:01.999Z</time></trkpt><trkpt lat="47.25576671978578" lon="-0.15649116967978371"><ele>70.0</ele><time>2026-03-22T17:05:02.999Z</time></trkpt><trkpt lat="47.255777246968165" lon="-0.15634691921541774"><ele>70.0</ele><time>2026-03-22T17:05:03.999Z</time></trkpt><trkpt lat="47.25572380149599" lon="-0.15618831608537628"><ele>69.5</ele><time>2026-03-22T17:05:04.999Z</time></trkpt><trkpt lat="47.25567832522626" lon="-0.1560163445377136"><ele>69.0</ele><time>2026-03-22T17:05:05.999Z</time></trkpt><trkpt lat="47.25563949085153" lon="-0.155848626379639"><ele>68.5</ele><time>2026-03-22T17:05:06.999Z</time></trkpt><trkpt lat="47.255614963134306" lon="-0.15568920708505915"><ele>68.0</ele><time>2026-03-22T17:05:07.999Z</time></trkpt><trkpt lat="47.255594151534446" lon="-0.15555168835275177"><ele>67.16666666666667</ele><time>2026-03-22T17:05:08.998Z</time></trkpt><trkpt lat="47.25557204594181" lon="-0.1554275545419502"><ele>66.33333333333334</ele><time>2026-03-22T17:05:09.998Z</time></trkpt><trkpt lat="47.25554752183118" lon="-0.15530738466496485"><ele>65.5</ele><time>2026-03-22T17:05:10.998Z</time></trkpt><trkpt lat="47.25552883677479" lon="-0.15520448451076657"><ele>64.66666666666667</ele><time>2026-03-22T17:05:11.998Z</time></trkpt><trkpt lat="47.2555086633693" lon="-0.15510286001597287"><ele>63.833333333333336</ele><time>2026-03-22T17:05:12.998Z</time></trkpt><trkpt lat="47.25548078168971" lon="-0.15501291850320975"><ele>63.0</ele><time>2026-03-22T17:05:13.998Z</time></trkpt><trkpt lat="47.255451955805945" lon="-0.15488247383211684"><ele>63.0</ele><time>2026-03-22T17:05:15.998Z</time></trkpt><trkpt lat="47.25573173044759" lon="-0.15465066177299241"><ele>63.0</ele><time>2026-03-22T17:05:18.998Z</time></trkpt><trkpt lat="47.25583677027605" lon="-0.15457966370614012"><ele>63.0</ele><time>2026-03-22T17:05:19.998Z</time></trkpt><trkpt lat="47.25592239786986" lon="-0.15452300381377193"><ele>63.0</ele><time>2026-03-22T17:05:20.998Z</time></trkpt><trkpt lat="47.255983548899344" lon="-0.15446200429161933"><ele>63.0</ele><time>2026-03-22T17:05:21.998Z</time></trkpt><trkpt lat="47.25602501988888" lon="-0.15436557576497714"><ele>63.0</ele><time>2026-03-22T17:05:22.998Z</time></trkpt><trkpt lat="47.2560897549938" lon="-0.15422905625572164"><ele>63.0</ele><time>2026-03-22T17:05:23.998Z</time></trkpt><trkpt lat="47.256167418779405" lon="-0.15408942733590383"><ele>63.0</ele><time>2026-03-22T17:05:24.998Z</time></trkpt><trkpt lat="47.25624252245324" lon="-0.15396110734753843"><ele>63.0</ele><time>2026-03-22T17:05:25.998Z</time></trkpt><trkpt lat="47.256308783711106" lon="-0.1538470301185877"><ele>63.0</ele><time>2026-03-22T17:05:26.998Z</time></trkpt><trkpt lat="47.25636908401017" lon="-0.15375290083372473"><ele>63.0</ele><time>2026-03-22T17:05:27.998Z</time></trkpt><trkpt lat="47.2564264206099" lon="-0.15366362526082722"><ele>63.0</ele><time>2026-03-22T17:05:28.998Z</time></trkpt><trkpt lat="47.25647958286077" lon="-0.15358253698171478"><ele>63.0</ele><time>2026-03-22T17:05:29.998Z</time></trkpt><trkpt lat="47.25654523672473" lon="-0.1535208819040742"><ele>63.0</ele><time>2026-03-22T17:05:30.998Z</time></trkpt><trkpt lat="47.256607422859524" lon="-0.15346848391850812"><ele>63.2</ele><time>2026-03-22T17:05:31.998Z</time></trkpt><trkpt lat="47.256673243260124" lon="-0.1534562352535719"><ele>63.4</ele><time>2026-03-22T17:05:32.998Z</time></trkpt><trkpt lat="47.25675420394994" lon="-0.15349787646290694"><ele>63.60000000000001</ele><time>2026-03-22T17:05:33.998Z</time></trkpt><trkpt lat="47.25684186899937" lon="-0.1535626165557177"><ele>63.800000000000004</ele><time>2026-03-22T17:05:34.998Z</time></trkpt><trkpt lat="47.25695931615056" lon="-0.15363476090629302"><ele>64.0</ele><time>2026-03-22T17:05:35.998Z</time></trkpt><trkpt lat="47.25707785242299" lon="-0.15368803433063782"><ele>64.0</ele><time>2026-03-22T17:05:37Z</time></trkpt><trkpt lat="47.257194789739394" lon="-0.15373793316251455"><ele>64.0</ele><time>2026-03-22T17:05:38Z</time></trkpt><trkpt lat="47.25728724358624" lon="-0.15372961874863617"><ele>64.0</ele><time>2026-03-22T17:05:39Z</time></trkpt><trkpt lat="47.25740731822496" lon="-0.15372320861754754"><ele>64.0</ele><time>2026-03-22T17:05:40Z</time></trkpt><trkpt lat="47.257535882599235" lon="-0.153737177815898"><ele>64.4</ele><time>2026-03-22T17:05:41Z</time></trkpt><trkpt lat="47.25765426402172" lon="-0.15373814184073067"><ele>64.80000000000001</ele><time>2026-03-22T17:05:42Z</time></trkpt><trkpt lat="47.25775607060056" lon="-0.15372458370632947"><ele>65.19999999999999</ele><time>2026-03-22T17:05:43Z</time></trkpt><trkpt lat="47.257860481601554" lon="-0.1537078464035777"><ele>65.6</ele><time>2026-03-22T17:05:44Z</time></trkpt><trkpt lat="47.25795927488052" lon="-0.1536759849428021"><ele>66.0</ele><time>2026-03-22T17:05:45Z</time></trkpt><trkpt lat="47.258066292477686" lon="-0.1535973536340421"><ele>65.75</ele><time>2026-03-22T17:05:46Z</time></trkpt><trkpt lat="47.25817447221042" lon="-0.15350488409660898"><ele>65.5</ele><time>2026-03-22T17:05:47Z</time></trkpt><trkpt lat="47.25829963557491" lon="-0.15343331397743426"><ele>65.25</ele><time>2026-03-22T17:05:48Z</time></trkpt><trkpt lat="47.25841291960527" lon="-0.15338852043903403"><ele>65.0</ele><time>2026-03-22T17:05:49Z</time></trkpt><trkpt lat="47.25852406213205" lon="-0.15337626133157387"><ele>65.0</ele><time>2026-03-22T17:05:50Z</time></trkpt><trkpt lat="47.25864738069732" lon="-0.1533772273842776"><ele>65.0</ele><time>2026-03-22T17:05:51Z</time></trkpt><trkpt lat="47.258791081414" lon="-0.15337280707834855"><ele>65.0</ele><time>2026-03-22T17:05:52Z</time></trkpt><trkpt lat="47.25891650029605" lon="-0.15335935102014814"><ele>65.0</ele><time>2026-03-22T17:05:53Z</time></trkpt><trkpt lat="47.25902320647811" lon="-0.15332889796626312"><ele>65.0</ele><time>2026-03-22T17:05:54Z</time></trkpt><trkpt lat="47.25911708775329" lon="-0.15329518854211105"><ele>65.0</ele><time>2026-03-22T17:05:54.999Z</time></trkpt><trkpt lat="47.25919375770413" lon="-0.15326506894322256"><ele>65.0</ele><time>2026-03-22T17:05:55.999Z</time></trkpt><trkpt lat="47.25927397841444" lon="-0.15322919021113715"><ele>65.0</ele><time>2026-03-22T17:05:56.999Z</time></trkpt><trkpt lat="47.25935243795644" lon="-0.15317806779217175"><ele>65.0</ele><time>2026-03-22T17:05:57.999Z</time></trkpt><trkpt lat="47.25944062141822" lon="-0.15311468328476616"><ele>65.0</ele><time>2026-03-22T17:05:58.999Z</time></trkpt><trkpt lat="47.25954583335187" lon="-0.15303516995794922"><ele>65.25</ele><time>2026-03-22T17:05:59.999Z</time></trkpt><trkpt lat="47.259660827337704" lon="-0.15291924649546487"><ele>65.5</ele><time>2026-03-22T17:06:00.999Z</time></trkpt><trkpt lat="47.25978504214648" lon="-0.1527886382403754"><ele>65.75</ele><time>2026-03-22T17:06:01.999Z</time></trkpt><trkpt lat="47.25988654138067" lon="-0.15267330795324527"><ele>66.0</ele><time>2026-03-22T17:06:02.999Z</time></trkpt><trkpt lat="47.259969380306146" lon="-0.15256687023227986"><ele>66.0</ele><time>2026-03-22T17:06:03.999Z</time></trkpt><trkpt lat="47.26004625863248" lon="-0.1524657442086507"><ele>66.0</ele><time>2026-03-22T17:06:04.999Z</time></trkpt><trkpt lat="47.26012029987554" lon="-0.15236714194714515"><ele>66.0</ele><time>2026-03-22T17:06:05.999Z</time></trkpt><trkpt lat="47.26021601611814" lon="-0.15226123373658434"><ele>66.0</ele><time>2026-03-22T17:06:06.999Z</time></trkpt><trkpt lat="47.260312361745456" lon="-0.1521411479238696"><ele>66.0</ele><time>2026-03-22T17:06:07.999Z</time></trkpt><trkpt lat="47.260420909525855" lon="-0.15199188764867444"><ele>65.75</ele><time>2026-03-22T17:06:08.999Z</time></trkpt><trkpt lat="47.260525794461586" lon="-0.15184626903961573"><ele>65.5</ele><time>2026-03-22T17:06:09.999Z</time></trkpt><trkpt lat="47.26061950106277" lon="-0.1517238049779439"><ele>65.25</ele><time>2026-03-22T17:06:10.999Z</time></trkpt><trkpt lat="47.26070087036156" lon="-0.15161629485566835"><ele>65.0</ele><time>2026-03-22T17:06:11.999Z</time></trkpt><trkpt lat="47.260798284863135" lon="-0.1514996955294958"><ele>66.0</ele><time>2026-03-22T17:06:12.999Z</time></trkpt><trkpt lat="47.26088360446334" lon="-0.15138741517511478"><ele>67.0</ele><time>2026-03-22T17:06:13.999Z</time></trkpt><trkpt lat="47.2609727469082" lon="-0.15127534445827887"><ele>68.0</ele><time>2026-03-22T17:06:14.999Z</time></trkpt><trkpt lat="47.261068567680454" lon="-0.15116503901196343"><ele>69.0</ele><time>2026-03-22T17:06:15.999Z</time></trkpt><trkpt lat="47.261160496306154" lon="-0.151083183448733"><ele>69.0</ele><time>2026-03-22T17:06:16.999Z</time></trkpt><trkpt lat="47.26125282501724" lon="-0.15099255635363576"><ele>69.0</ele><time>2026-03-22T17:06:17.999Z</time></trkpt><trkpt lat="47.26132247887371" lon="-0.15091654214443995"><ele>69.0</ele><time>2026-03-22T17:06:18.999Z</time></trkpt><trkpt lat="47.26139326193332" lon="-0.15084643542788964"><ele>69.0</ele><time>2026-03-22T17:06:19.999Z</time></trkpt><trkpt lat="47.261501388275356" lon="-0.1507674646398952"><ele>69.0</ele><time>2026-03-22T17:06:20.999Z</time></trkpt><trkpt lat="47.261630145945475" lon="-0.1506832600108115"><ele>68.4</ele><time>2026-03-22T17:06:21.999Z</time></trkpt><trkpt lat="47.26175162199945" lon="-0.1506171668542839"><ele>67.80000000000001</ele><time>2026-03-22T17:06:22.999Z</time></trkpt><trkpt lat="47.26185813958279" lon="-0.15055168471109337"><ele>67.19999999999999</ele><time>2026-03-22T17:06:23.999Z</time></trkpt><trkpt lat="47.26194923599335" lon="-0.15049796555466427"><ele>66.6</ele><time>2026-03-22T17:06:24.999Z</time></trkpt><trkpt lat="47.26202875376968" lon="-0.15044443110700004"><ele>66.0</ele><time>2026-03-22T17:06:25.999Z</time></trkpt><trkpt lat="47.262110222606786" lon="-0.15038741333322125"><ele>66.0</ele><time>2026-03-22T17:06:26.999Z</time></trkpt><trkpt lat="47.26216803426167" lon="-0.15032558196409868"><ele>66.0</ele><time>2026-03-22T17:06:27.999Z</time></trkpt><trkpt lat="47.26223525173879" lon="-0.15024253959359646"><ele>66.0</ele><time>2026-03-22T17:06:28.999Z</time></trkpt><trkpt lat="47.262323213603196" lon="-0.15012080031302685"><ele>66.0</ele><time>2026-03-22T17:06:29.999Z</time></trkpt><trkpt lat="47.262402603978586" lon="-0.14999668674260852"><ele>66.0</ele><time>2026-03-22T17:06:30.999Z</time></trkpt><trkpt lat="47.26247903162185" lon="-0.1498935045830272"><ele>68.0</ele><time>2026-03-22T17:06:31.999Z</time></trkpt><trkpt lat="47.26254897390175" lon="-0.14981755248426765"><ele>70.0</ele><time>2026-03-22T17:06:32.999Z</time></trkpt><trkpt lat="47.262634245021125" lon="-0.14974700201364305"><ele>72.0</ele><time>2026-03-22T17:06:33.999Z</time></trkpt><trkpt lat="47.262703042294994" lon="-0.14965803798939087"><ele>74.0</ele><time>2026-03-22T17:06:34.999Z</time></trkpt><trkpt lat="47.262776876880274" lon="-0.14956679212940288"><ele>76.0</ele><time>2026-03-22T17:06:35.999Z</time></trkpt><trkpt lat="47.26286576251942" lon="-0.14950382582033309"><ele>76.0</ele><time>2026-03-22T17:06:36.999Z</time></trkpt><trkpt lat="47.262958306765135" lon="-0.14941697084926941"><ele>76.0</ele><time>2026-03-22T17:06:37.999Z</time></trkpt><trkpt lat="47.263037055983446" lon="-0.1493522716803221"><ele>76.0</ele><time>2026-03-22T17:06:38.999Z</time></trkpt><trkpt lat="47.263110563864416" lon="-0.1492759415147562"><ele>76.0</ele><time>2026-03-22T17:06:39.999Z</time></trkpt><trkpt lat="47.26316621192744" lon="-0.1491984761408563"><ele>76.0</ele><time>2026-03-22T17:06:40.999Z</time></trkpt><trkpt lat="47.26323811733266" lon="-0.1491355323269968"><ele>77.0</ele><time>2026-03-22T17:06:41.999Z</time></trkpt><trkpt lat="47.26332583125087" lon="-0.1490851428171954"><ele>78.0</ele><time>2026-03-22T17:06:42.999Z</time></trkpt><trkpt lat="47.26340046065244" lon="-0.14898132474263634"><ele>79.0</ele><time>2026-03-22T17:06:43.999Z</time></trkpt><trkpt lat="47.263459672162654" lon="-0.14885265753983162"><ele>80.0</ele><time>2026-03-22T17:06:44.999Z</time></trkpt><trkpt lat="47.26352913029433" lon="-0.14874431801055019"><ele>81.0</ele><time>2026-03-22T17:06:45.999Z</time></trkpt><trkpt lat="47.263603405612706" lon="-0.14867112661821832"><ele>81.4</ele><time>2026-03-22T17:06:46.999Z</time></trkpt><trkpt lat="47.26365995442592" lon="-0.14860115574341404"><ele>81.8</ele><time>2026-03-22T17:06:47.999Z</time></trkpt><trkpt lat="47.26373807349634" lon="-0.1485094361884944"><ele>82.2</ele><time>2026-03-22T17:06:48.999Z</time></trkpt><trkpt lat="47.26379004580575" lon="-0.1484499633183574"><ele>82.60000000000001</ele><time>2026-03-22T17:06:49.999Z</time></trkpt><trkpt lat="47.26389413724087" lon="-0.14833008399639794"><ele>83.0</ele><time>2026-03-22T17:06:51.999Z</time></trkpt><trkpt lat="47.26396102264221" lon="-0.14826662484757314"><ele>84.60000000000001</ele><time>2026-03-22T17:06:52.999Z</time></trkpt><trkpt lat="47.264053061474804" lon="-0.14819237773460806"><ele>86.2</ele><time>2026-03-22T17:06:54.999Z</time></trkpt><trkpt lat="47.264103227656015" lon="-0.14805086133789147"><ele>87.8</ele><time>2026-03-22T17:06:56.999Z</time></trkpt><trkpt lat="47.26414609845833" lon="-0.14792661137834562"><ele>89.4</ele><time>2026-03-22T17:06:57.999Z</time></trkpt><trkpt lat="47.26417638444165" lon="-0.14783482212964147"><ele>91.0</ele><time>2026-03-22T17:06:58.999Z</time></trkpt><trkpt lat="47.264265928349026" lon="-0.14775556802362164"><ele>91.0</ele><time>2026-03-22T17:07:00.999Z</time></trkpt><trkpt lat="47.264312936275005" lon="-0.14769326486927375"><ele>91.0</ele><time>2026-03-22T17:07:01.999Z</time></trkpt><trkpt lat="47.26434979620892" lon="-0.14761242748963335"><ele>91.0</ele><time>2026-03-22T17:07:02.999Z</time></trkpt><trkpt lat="47.26444031185285" lon="-0.14752512722141065"><ele>91.0</ele><time>2026-03-22T17:07:04.999Z</time></trkpt><trkpt lat="47.26453970420948" lon="-0.14751604680863903"><ele>91.0</ele><time>2026-03-22T17:07:06.999Z</time></trkpt><trkpt lat="47.26462219222343" lon="-0.14751954483327798"><ele>91.0</ele><time>2026-03-22T17:07:10.999Z</time></trkpt><trkpt lat="47.26470518445577" lon="-0.14749276579898912"><ele>91.0</ele><time>2026-03-22T17:07:12.999Z</time></trkpt><trkpt lat="47.26473886762168" lon="-0.1473894614616902"><ele>91.0</ele><time>2026-03-22T17:07:14.999Z</time></trkpt><trkpt lat="47.264782688290275" lon="-0.14724605565829574"><ele>91.0</ele><time>2026-03-22T17:07:16.998Z</time></trkpt><trkpt lat="47.26485052519151" lon="-0.147165041968571"><ele>91.0</ele><time>2026-03-22T17:07:18.998Z</time></trkpt><trkpt lat="47.264819424058736" lon="-0.147083575154035"><ele>91.0</ele><time>2026-03-22T17:07:21.998Z</time></trkpt><trkpt lat="47.26469800168314" lon="-0.1471163686915044"><ele>91.4</ele><time>2026-03-22T17:07:24.998Z</time></trkpt><trkpt lat="47.26460462358262" lon="-0.1471605779093686"><ele>91.8</ele><time>2026-03-22T17:07:25.998Z</time></trkpt><trkpt lat="47.26450901278783" lon="-0.14718978143125813"><ele>92.2</ele><time>2026-03-22T17:07:26.998Z</time></trkpt><trkpt lat="47.264399818359664" lon="-0.1472255948033362"><ele>92.60000000000001</ele><time>2026-03-22T17:07:27.998Z</time></trkpt><trkpt lat="47.26428608936733" lon="-0.14728202900071052"><ele>93.0</ele><time>2026-03-22T17:07:28.998Z</time></trkpt><trkpt lat="47.26415549086645" lon="-0.14734383306214255"><ele>92.60000000000001</ele><time>2026-03-22T17:07:29.998Z</time></trkpt><trkpt lat="47.264037802763234" lon="-0.14739501421178824"><ele>92.2</ele><time>2026-03-22T17:07:30.998Z</time></trkpt><trkpt lat="47.26393632730519" lon="-0.1474377716061886"><ele>91.8</ele><time>2026-03-22T17:07:31.998Z</time></trkpt><trkpt lat="47.263863145548115" lon="-0.1474609837276287"><ele>91.4</ele><time>2026-03-22T17:07:32.998Z</time></trkpt><trkpt lat="47.263793103571516" lon="-0.14742290053012488"><ele>91.0</ele><time>2026-03-22T17:07:34.998Z</time></trkpt><trkpt lat="47.263758323472665" lon="-0.14728275392449164"><ele>90.4</ele><time>2026-03-22T17:07:36.998Z</time></trkpt><trkpt lat="47.26370585967412" lon="-0.1471507696910503"><ele>89.8</ele><time>2026-03-22T17:07:38.998Z</time></trkpt><trkpt lat="47.26366100951277" lon="-0.14700681200265195"><ele>89.2</ele><time>2026-03-22T17:07:39.998Z</time></trkpt><trkpt lat="47.26363063813371" lon="-0.14687571120634488"><ele>88.60000000000001</ele><time>2026-03-22T17:07:40.998Z</time></trkpt><trkpt lat="47.263563937928375" lon="-0.14682714322369475"><ele>88.0</ele><time>2026-03-22T17:07:43Z</time></trkpt><trkpt lat="47.26345283853265" lon="-0.1469034733647164"><ele>88.0</ele><time>2026-03-22T17:07:45Z</time></trkpt><trkpt lat="47.26340533477734" lon="-0.14696481936591163"><ele>88.0</ele><time>2026-03-22T17:07:46Z</time></trkpt><trkpt lat="47.26329608887055" lon="-0.14702831346260078"><ele>88.0</ele><time>2026-03-22T17:07:48Z</time></trkpt><trkpt lat="47.26319612362782" lon="-0.14707898752306922"><ele>88.0</ele><time>2026-03-22T17:07:50Z</time></trkpt><trkpt lat="47.26313636896293" lon="-0.14712368637218684"><ele>88.0</ele><time>2026-03-22T17:07:52Z</time></trkpt><trkpt lat="47.2630668777371" lon="-0.14715872150302028"><ele>88.0</ele><time>2026-03-22T17:07:55Z</time></trkpt><trkpt lat="47.262993174174966" lon="-0.14711119328021785"><ele>87.0</ele><time>2026-03-22T17:08:00Z</time></trkpt><trkpt lat="47.26292765279169" lon="-0.1471440024869941"><ele>86.0</ele><time>2026-03-22T17:08:05.999Z</time></trkpt><trkpt lat="47.262895432048374" lon="-0.14726389978492538"><ele>85.0</ele><time>2026-03-22T17:08:08.999Z</time></trkpt><trkpt lat="47.26282653497979" lon="-0.14728827632380165"><ele>84.0</ele><time>2026-03-22T17:08:10.999Z</time></trkpt><trkpt lat="47.262754837731755" lon="-0.14718114334691995"><ele>83.0</ele><time>2026-03-22T17:08:12.999Z</time></trkpt><trkpt lat="47.262689978787975" lon="-0.14698764070290654"><ele>83.0</ele><time>2026-03-22T17:08:14.999Z</time></trkpt><trkpt lat="47.262679393001896" lon="-0.14685744807488296"><ele>83.0</ele><time>2026-03-22T17:08:15.999Z</time></trkpt><trkpt lat="47.26266172931114" lon="-0.14671044532610872"><ele>83.0</ele><time>2026-03-22T17:08:16.999Z</time></trkpt><trkpt lat="47.262626994655484" lon="-0.14660620190204063"><ele>83.0</ele><time>2026-03-22T17:08:17.999Z</time></trkpt><trkpt lat="47.26257960604741" lon="-0.1465251532222972"><ele>83.0</ele><time>2026-03-22T17:08:19.999Z</time></trkpt><trkpt lat="47.26258848176109" lon="-0.14641582569503572"><ele>83.0</ele><time>2026-03-22T17:08:24.999Z</time></trkpt><trkpt lat="47.26264744967008" lon="-0.14636563358799395"><ele>83.33333333333334</ele><time>2026-03-22T17:08:26.999Z</time></trkpt><trkpt lat="47.262712898472074" lon="-0.14633419051875554"><ele>83.66666666666667</ele><time>2026-03-22T17:08:27.999Z</time></trkpt><trkpt lat="47.2627795528534" lon="-0.14626641447657351"><ele>84.0</ele><time>2026-03-22T17:08:28.999Z</time></trkpt><trkpt lat="47.262861996422494" lon="-0.14619226227057022"><ele>84.33333333333333</ele><time>2026-03-22T17:08:29.999Z</time></trkpt><trkpt lat="47.262930409572455" lon="-0.14614757954941543"><ele>84.66666666666666</ele><time>2026-03-22T17:08:30.999Z</time></trkpt><trkpt lat="47.263002072593856" lon="-0.14609631942195514"><ele>85.0</ele><time>2026-03-22T17:08:31.999Z</time></trkpt><trkpt lat="47.26309164138534" lon="-0.14603757250491045"><ele>85.6</ele><time>2026-03-22T17:08:32.999Z</time></trkpt><trkpt lat="47.26319654664775" lon="-0.1459752206885967"><ele>86.2</ele><time>2026-03-22T17:08:33.999Z</time></trkpt><trkpt lat="47.26329500210458" lon="-0.1459252092649723"><ele>86.80000000000001</ele><time>2026-03-22T17:08:34.999Z</time></trkpt><trkpt lat="47.26339048880678" lon="-0.14585841231290406"><ele>87.4</ele><time>2026-03-22T17:08:35.999Z</time></trkpt><trkpt lat="47.26348253128362" lon="-0.14578393280535573"><ele>88.0</ele><time>2026-03-22T17:08:36.999Z</time></trkpt><trkpt lat="47.263571030659556" lon="-0.14572085949798197"><ele>87.4</ele><time>2026-03-22T17:08:37.999Z</time></trkpt><trkpt lat="47.2636459579125" lon="-0.14568286031036462"><ele>86.80000000000001</ele><time>2026-03-22T17:08:38.999Z</time></trkpt><trkpt lat="47.2637197838497" lon="-0.145624048619602"><ele>86.2</ele><time>2026-03-22T17:08:39.999Z</time></trkpt><trkpt lat="47.26378846459324" lon="-0.14557421356696526"><ele>85.6</ele><time>2026-03-22T17:08:40.999Z</time></trkpt><trkpt lat="47.26389756920848" lon="-0.14551235621828798"><ele>85.0</ele><time>2026-03-22T17:08:42.999Z</time></trkpt><trkpt lat="47.26400022388287" lon="-0.14538905110534914"><ele>85.0</ele><time>2026-03-22T17:08:44.999Z</time></trkpt><trkpt lat="47.26404684324444" lon="-0.14531542260341127"><ele>85.0</ele><time>2026-03-22T17:08:45.999Z</time></trkpt><trkpt lat="47.26407103746658" lon="-0.145208532343606"><ele>85.0</ele><time>2026-03-22T17:08:47.999Z</time></trkpt><trkpt lat="47.26402473660884" lon="-0.1451419329324919"><ele>85.0</ele><time>2026-03-22T17:08:48.999Z</time></trkpt><trkpt lat="47.263980725595296" lon="-0.14503013820733604"><ele>85.0</ele><time>2026-03-22T17:08:49.999Z</time></trkpt><trkpt lat="47.26394529037353" lon="-0.144922614269432"><ele>85.0</ele><time>2026-03-22T17:08:50.999Z</time></trkpt><trkpt lat="47.263931377860196" lon="-0.1448255525569403"><ele>85.0</ele><time>2026-03-22T17:08:51.999Z</time></trkpt><trkpt lat="47.2639134461727" lon="-0.14466908328085348"><ele>86.0</ele><time>2026-03-22T17:08:53.999Z</time></trkpt><trkpt lat="47.2639565204372" lon="-0.1445640438712653"><ele>87.0</ele><time>2026-03-22T17:08:55.999Z</time></trkpt><trkpt lat="47.264063409535275" lon="-0.1444434337303581"><ele>88.0</ele><time>2026-03-22T17:08:57.999Z</time></trkpt><trkpt lat="47.26414255066905" lon="-0.14436836806035397"><ele>89.0</ele><time>2026-03-22T17:08:58.999Z</time></trkpt><trkpt lat="47.26420343456811" lon="-0.14428796929723584"><ele>90.0</ele><time>2026-03-22T17:08:59.999Z</time></trkpt><trkpt lat="47.26424768787665" lon="-0.1442131215913416"><ele>90.0</ele><time>2026-03-22T17:09:00.999Z</time></trkpt><trkpt lat="47.264317291083735" lon="-0.14408847576892236"><ele>90.0</ele><time>2026-03-22T17:09:02.999Z</time></trkpt><trkpt lat="47.26438420711585" lon="-0.14405801327483916"><ele>90.0</ele><time>2026-03-22T17:09:03.999Z</time></trkpt><trkpt lat="47.264477866613035" lon="-0.14400381954183233"><ele>90.0</ele><time>2026-03-22T17:09:04.999Z</time></trkpt><trkpt lat="47.264566147115225" lon="-0.143953635272592"><ele>90.0</ele><time>2026-03-22T17:09:05.999Z</time></trkpt><trkpt lat="47.26464400343359" lon="-0.14390279295359237"><ele>90.0</ele><time>2026-03-22T17:09:06.999Z</time></trkpt><trkpt lat="47.264703359943255" lon="-0.14384829154789242"><ele>90.0</ele><time>2026-03-22T17:09:07.999Z</time></trkpt><trkpt lat="47.264809479292374" lon="-0.14378325909698184"><ele>90.0</ele><time>2026-03-22T17:09:09.999Z</time></trkpt><trkpt lat="47.26487271442399" lon="-0.14376984089353523"><ele>90.0</ele><time>2026-03-22T17:09:11.999Z</time></trkpt><trkpt lat="47.26487495214858" lon="-0.1436653559332705"><ele>90.0</ele><time>2026-03-22T17:09:13.999Z</time></trkpt><trkpt lat="47.26486472627872" lon="-0.14357059869382902"><ele>90.0</ele><time>2026-03-22T17:09:14.999Z</time></trkpt><trkpt lat="47.26486889333233" lon="-0.14347543488284573"><ele>90.0</ele><time>2026-03-22T17:09:15.999Z</time></trkpt><trkpt lat="47.26492702885014" lon="-0.14337391036717026"><ele>90.0</ele><time>2026-03-22T17:09:17.999Z</time></trkpt><trkpt lat="47.264995092509906" lon="-0.14337378291149758"><ele>90.0</ele><time>2026-03-22T17:09:18.999Z</time></trkpt><trkpt lat="47.26507863430368" lon="-0.14333119380487905"><ele>90.0</ele><time>2026-03-22T17:09:19.999Z</time></trkpt><trkpt lat="47.2651648628988" lon="-0.14328532328667387"><ele>90.0</ele><time>2026-03-22T17:09:20.999Z</time></trkpt><trkpt lat="47.26524924541026" lon="-0.14322970024646048"><ele>90.0</ele><time>2026-03-22T17:09:21.999Z</time></trkpt><trkpt lat="47.26535731407579" lon="-0.14317046477041245"><ele>89.16666666666667</ele><time>2026-03-22T17:09:23.999Z</time></trkpt><trkpt lat="47.26539685471589" lon="-0.14305253720001748"><ele>88.33333333333333</ele><time>2026-03-22T17:09:25.998Z</time></trkpt><trkpt lat="47.26537579673303" lon="-0.14294010685183772"><ele>87.5</ele><time>2026-03-22T17:09:26.998Z</time></trkpt><trkpt lat="47.26536007362267" lon="-0.14282596338783646"><ele>86.66666666666666</ele><time>2026-03-22T17:09:27.998Z</time></trkpt><trkpt lat="47.265391201843094" lon="-0.1427309674174169"><ele>85.83333333333333</ele><time>2026-03-22T17:09:29.998Z</time></trkpt><trkpt lat="47.2655058381448" lon="-0.14270852139045476"><ele>85.0</ele><time>2026-03-22T17:09:31.998Z</time></trkpt><trkpt lat="47.26560446406859" lon="-0.14265911227491807"><ele>85.33333333333333</ele><time>2026-03-22T17:09:32.998Z</time></trkpt><trkpt lat="47.26569020049358" lon="-0.14261730282414026"><ele>85.66666666666666</ele><time>2026-03-22T17:09:33.998Z</time></trkpt><trkpt lat="47.26576450525356" lon="-0.1426088979570837"><ele>86.0</ele><time>2026-03-22T17:09:34.998Z</time></trkpt><trkpt lat="47.26584391695519" lon="-0.14257588788712558"><ele>86.33333333333333</ele><time>2026-03-22T17:09:35.998Z</time></trkpt><trkpt lat="47.26593759608508" lon="-0.14251756677435268"><ele>86.66666666666667</ele><time>2026-03-22T17:09:36.998Z</time></trkpt><trkpt lat="47.26602947224442" lon="-0.1424985983865289"><ele>87.0</ele><time>2026-03-22T17:09:37.998Z</time></trkpt><trkpt lat="47.266104551613836" lon="-0.14248520416097946"><ele>87.0</ele><time>2026-03-22T17:09:38.998Z</time></trkpt><trkpt lat="47.26616876400563" lon="-0.1424741421066683"><ele>87.0</ele><time>2026-03-22T17:09:39.998Z</time></trkpt><trkpt lat="47.266238715008974" lon="-0.14246245563902268"><ele>87.0</ele><time>2026-03-22T17:09:40.998Z</time></trkpt><trkpt lat="47.26634960112565" lon="-0.1424294423073772"><ele>87.0</ele><time>2026-03-22T17:09:42.998Z</time></trkpt><trkpt lat="47.26639587209182" lon="-0.14232836819136016"><ele>87.0</ele><time>2026-03-22T17:09:45.998Z</time></trkpt><trkpt lat="47.26631110689935" lon="-0.14217175496710283"><ele>86.39999999999999</ele><time>2026-03-22T17:09:48Z</time></trkpt><trkpt lat="47.2662571172908" lon="-0.1420659449513752"><ele>85.8</ele><time>2026-03-22T17:09:49Z</time></trkpt><trkpt lat="47.26621689496423" lon="-0.1419374919720999"><ele>85.2</ele><time>2026-03-22T17:09:50Z</time></trkpt><trkpt lat="47.26617743916046" lon="-0.1417757991775038"><ele>84.6</ele><time>2026-03-22T17:09:51Z</time></trkpt><trkpt lat="47.26611408034952" lon="-0.14161420136568556"><ele>84.0</ele><time>2026-03-22T17:09:52Z</time></trkpt><trkpt lat="47.26604575831895" lon="-0.14146532631090405"><ele>83.80000000000001</ele><time>2026-03-22T17:09:53Z</time></trkpt><trkpt lat="47.26597729928372" lon="-0.14134379421495633"><ele>83.60000000000001</ele><time>2026-03-22T17:09:54Z</time></trkpt><trkpt lat="47.26592083931449" lon="-0.14122613089914224"><ele>83.4</ele><time>2026-03-22T17:09:55Z</time></trkpt><trkpt lat="47.26589216361929" lon="-0.14110860961595642"><ele>83.2</ele><time>2026-03-22T17:09:56Z</time></trkpt><trkpt lat="47.265868907159216" lon="-0.1409483569869111"><ele>83.0</ele><time>2026-03-22T17:09:57Z</time></trkpt><trkpt lat="47.2658539086747" lon="-0.14078544615585156"><ele>82.75</ele><time>2026-03-22T17:09:58Z</time></trkpt><trkpt lat="47.265712105498295" lon="-0.1406267343839405"><ele>82.5</ele><time>2026-03-22T17:09:59Z</time></trkpt><trkpt lat="47.26569735141649" lon="-0.1404775100218404"><ele>82.25</ele><time>2026-03-22T17:10:00Z</time></trkpt><trkpt lat="47.265670451690376" lon="-0.14029203962349324"><ele>82.0</ele><time>2026-03-22T17:10:01Z</time></trkpt><trkpt lat="47.265638808936025" lon="-0.14009318612279034"><ele>81.0</ele><time>2026-03-22T17:10:02Z</time></trkpt><trkpt lat="47.26560775320955" lon="-0.13989554727490944"><ele>80.0</ele><time>2026-03-22T17:10:03Z</time></trkpt><trkpt lat="47.26558038755102" lon="-0.13971658944931112"><ele>79.0</ele><time>2026-03-22T17:10:04Z</time></trkpt><trkpt lat="47.2655534208571" lon="-0.13953501969029278"><ele>78.0</ele><time>2026-03-22T17:10:05Z</time></trkpt><trkpt lat="47.26552757185531" lon="-0.1393609754259844"><ele>78.0</ele><time>2026-03-22T17:10:06Z</time></trkpt><trkpt lat="47.26550122056417" lon="-0.13918354922721968"><ele>78.0</ele><time>2026-03-22T17:10:07Z</time></trkpt><trkpt lat="47.26547483461995" lon="-0.1390058896990838"><ele>78.0</ele><time>2026-03-22T17:10:08Z</time></trkpt><trkpt lat="47.265447001087665" lon="-0.13881848338635858"><ele>78.0</ele><time>2026-03-22T17:10:09Z</time></trkpt><trkpt lat="47.26541871116584" lon="-0.1386293344456675"><ele>77.75</ele><time>2026-03-22T17:10:10Z</time></trkpt><trkpt lat="47.26539182825477" lon="-0.13845049142556992"><ele>77.5</ele><time>2026-03-22T17:10:11Z</time></trkpt><trkpt lat="47.265364068075414" lon="-0.13826581222878173"><ele>77.25</ele><time>2026-03-22T17:10:11.999Z</time></trkpt><trkpt lat="47.26533669558223" lon="-0.13808371217137388"><ele>77.0</ele><time>2026-03-22T17:10:12.999Z</time></trkpt><trkpt lat="47.265307974250796" lon="-0.13789263904398127"><ele>77.0</ele><time>2026-03-22T17:10:13.999Z</time></trkpt><trkpt lat="47.26528249632424" lon="-0.13772006943411844"><ele>77.0</ele><time>2026-03-22T17:10:14.999Z</time></trkpt><trkpt lat="47.26525477770426" lon="-0.13753113315622845"><ele>77.0</ele><time>2026-03-22T17:10:15.999Z</time></trkpt><trkpt lat="47.26523144875298" lon="-0.1373668839644845"><ele>77.0</ele><time>2026-03-22T17:10:16.999Z</time></trkpt><trkpt lat="47.265208177181215" lon="-0.13719549724105468"><ele>77.25</ele><time>2026-03-22T17:10:17.999Z</time></trkpt><trkpt lat="47.265184600490365" lon="-0.13701224365133832"><ele>77.5</ele><time>2026-03-22T17:10:18.999Z</time></trkpt><trkpt lat="47.26516091396469" lon="-0.1368281363501419"><ele>77.75</ele><time>2026-03-22T17:10:19.999Z</time></trkpt><trkpt lat="47.26513610650072" lon="-0.1366466446164"><ele>78.0</ele><time>2026-03-22T17:10:20.999Z</time></trkpt><trkpt lat="47.265108692530035" lon="-0.13646056900728276"><ele>78.0</ele><time>2026-03-22T17:10:21.999Z</time></trkpt><trkpt lat="47.26507994265841" lon="-0.13627707154686544"><ele>78.0</ele><time>2026-03-22T17:10:22.999Z</time></trkpt><trkpt lat="47.265051045818204" lon="-0.136096211320887"><ele>78.0</ele><time>2026-03-22T17:10:23.999Z</time></trkpt><trkpt lat="47.2650215806718" lon="-0.1359158235464895"><ele>78.0</ele><time>2026-03-22T17:10:24.999Z</time></trkpt><trkpt lat="47.26499411017641" lon="-0.13574779195375308"><ele>78.5</ele><time>2026-03-22T17:10:25.999Z</time></trkpt><trkpt lat="47.26496136843716" lon="-0.13555884111269006"><ele>79.0</ele><time>2026-03-22T17:10:26.999Z</time></trkpt><trkpt lat="47.26492644482767" lon="-0.13535990761950129"><ele>79.5</ele><time>2026-03-22T17:10:27.999Z</time></trkpt><trkpt lat="47.26488866274897" lon="-0.13514904075476875"><ele>80.0</ele><time>2026-03-22T17:10:28.999Z</time></trkpt><trkpt lat="47.264848630087585" lon="-0.1349675426177167"><ele>80.0</ele><time>2026-03-22T17:10:29.999Z</time></trkpt><trkpt lat="47.26481053233186" lon="-0.13481531114272818"><ele>80.0</ele><time>2026-03-22T17:10:30.999Z</time></trkpt><trkpt lat="47.264769531091964" lon="-0.13465617972688584"><ele>80.0</ele><time>2026-03-22T17:10:31.999Z</time></trkpt><trkpt lat="47.26472720549742" lon="-0.1344999588815131"><ele>80.0</ele><time>2026-03-22T17:10:32.999Z</time></trkpt><trkpt lat="47.26468221229621" lon="-0.13433571589881105"><ele>80.0</ele><time>2026-03-22T17:10:33.999Z</time></trkpt><trkpt lat="47.2646344813814" lon="-0.13416332306939088"><ele>80.0</ele><time>2026-03-22T17:10:34.999Z</time></trkpt><trkpt lat="47.26458834400988" lon="-0.13399759644739878"><ele>80.0</ele><time>2026-03-22T17:10:35.999Z</time></trkpt><trkpt lat="47.26461713898312" lon="-0.13376575381784325"><ele>80.0</ele><time>2026-03-22T17:10:36.999Z</time></trkpt><trkpt lat="47.2645746207676" lon="-0.13360847632530998"><ele>79.5</ele><time>2026-03-22T17:10:37.999Z</time></trkpt><trkpt lat="47.26450311280786" lon="-0.13336244685920864"><ele>79.0</ele><time>2026-03-22T17:10:38.999Z</time></trkpt><trkpt lat="47.26453144421181" lon="-0.13325910407473443"><ele>78.5</ele><time>2026-03-22T17:10:39.999Z</time></trkpt><trkpt lat="47.26451274277191" lon="-0.13311444186774907"><ele>78.0</ele><time>2026-03-22T17:10:40.999Z</time></trkpt><trkpt lat="47.26447866611433" lon="-0.13296893372716015"><ele>77.4</ele><time>2026-03-22T17:10:41.999Z</time></trkpt><trkpt lat="47.264435914905" lon="-0.1328091059648348"><ele>76.8</ele><time>2026-03-22T17:10:42.999Z</time></trkpt><trkpt lat="47.26439439567202" lon="-0.13265388399451014"><ele>76.2</ele><time>2026-03-22T17:10:43.999Z</time></trkpt><trkpt lat="47.26435960321671" lon="-0.132528275908973"><ele>75.6</ele><time>2026-03-22T17:10:44.999Z</time></trkpt><trkpt lat="47.264323722147495" lon="-0.13239893715648712"><ele>75.0</ele><time>2026-03-22T17:10:45.999Z</time></trkpt><trkpt lat="47.264286826070276" lon="-0.13226784073743697"><ele>74.83333333333333</ele><time>2026-03-22T17:10:46.999Z</time></trkpt><trkpt lat="47.264253729094605" lon="-0.13215133170865967"><ele>74.66666666666667</ele><time>2026-03-22T17:10:47.999Z</time></trkpt><trkpt lat="47.26422294473454" lon="-0.13204296358451678"><ele>74.5</ele><time>2026-03-22T17:10:48.999Z</time></trkpt><trkpt lat="47.264194569002434" lon="-0.13194234684042433"><ele>74.33333333333334</ele><time>2026-03-22T17:10:49.999Z</time></trkpt><trkpt lat="47.264210225585735" lon="-0.13180442219745317"><ele>74.16666666666667</ele><time>2026-03-22T17:10:50.999Z</time></trkpt><trkpt lat="47.264161261008994" lon="-0.13170960928711484"><ele>74.0</ele><time>2026-03-22T17:10:51.999Z</time></trkpt><trkpt lat="47.26411591177161" lon="-0.13162826788433798"><ele>74.0</ele><time>2026-03-22T17:10:52.999Z</time></trkpt><trkpt lat="47.264062648129396" lon="-0.1315597069605532"><ele>74.0</ele><time>2026-03-22T17:10:53.999Z</time></trkpt><trkpt lat="47.26402672350963" lon="-0.13144563231114426"><ele>74.0</ele><time>2026-03-22T17:10:55.999Z</time></trkpt><trkpt lat="47.263996125889946" lon="-0.13134821398118868"><ele>74.0</ele><time>2026-03-22T17:10:56.999Z</time></trkpt><trkpt lat="47.26395968867923" lon="-0.13123220334160637"><ele>74.0</ele><time>2026-03-22T17:10:57.999Z</time></trkpt><trkpt lat="47.26391538195966" lon="-0.1310905387937478"><ele>74.0</ele><time>2026-03-22T17:10:58.999Z</time></trkpt><trkpt lat="47.26386437003053" lon="-0.1309248927444165"><ele>73.8</ele><time>2026-03-22T17:10:59.999Z</time></trkpt><trkpt lat="47.26381276874251" lon="-0.13075971618343152"><ele>73.60000000000001</ele><time>2026-03-22T17:11:00.999Z</time></trkpt><trkpt lat="47.26376745332959" lon="-0.13061887312496875"><ele>73.4</ele><time>2026-03-22T17:11:01.999Z</time></trkpt><trkpt lat="47.26372462343546" lon="-0.13047833974853146"><ele>73.2</ele><time>2026-03-22T17:11:02.999Z</time></trkpt><trkpt lat="47.26368534501444" lon="-0.13034761852566587"><ele>73.0</ele><time>2026-03-22T17:11:03.999Z</time></trkpt><trkpt lat="47.26365093965842" lon="-0.1302271603483904"><ele>72.5</ele><time>2026-03-22T17:11:04.999Z</time></trkpt><trkpt lat="47.263624283447236" lon="-0.13012895319851275"><ele>72.0</ele><time>2026-03-22T17:11:05.999Z</time></trkpt><trkpt lat="47.263590973402145" lon="-0.12998493473593672"><ele>71.5</ele><time>2026-03-22T17:11:07.999Z</time></trkpt><trkpt lat="47.26355395436356" lon="-0.12982002278680052"><ele>71.0</ele><time>2026-03-22T17:11:09.999Z</time></trkpt><trkpt lat="47.26317654438949" lon="-0.1298562269991193"><ele>71.75</ele><time>2026-03-22T17:11:10.999Z</time></trkpt><trkpt lat="47.2630526188928" lon="-0.12978290114496704"><ele>72.5</ele><time>2026-03-22T17:11:11.999Z</time></trkpt><trkpt lat="47.262926259345896" lon="-0.12971378047138135"><ele>73.25</ele><time>2026-03-22T17:11:12.999Z</time></trkpt><trkpt lat="47.26280431956106" lon="-0.129654336757947"><ele>74.0</ele><time>2026-03-22T17:11:13.999Z</time></trkpt><trkpt lat="47.262667678357126" lon="-0.12958698960582313"><ele>74.0</ele><time>2026-03-22T17:11:14.999Z</time></trkpt><trkpt lat="47.26254830757707" lon="-0.12948118713978873"><ele>74.0</ele><time>2026-03-22T17:11:15.999Z</time></trkpt><trkpt lat="47.26243305253113" lon="-0.12937697101377293"><ele>74.0</ele><time>2026-03-22T17:11:16.999Z</time></trkpt><trkpt lat="47.26231577420453" lon="-0.12930106878729958"><ele>74.0</ele><time>2026-03-22T17:11:17.999Z</time></trkpt><trkpt lat="47.26219536333076" lon="-0.1292146734718441"><ele>73.75</ele><time>2026-03-22T17:11:18.999Z</time></trkpt><trkpt lat="47.26206358671605" lon="-0.12911985107448562"><ele>73.5</ele><time>2026-03-22T17:11:19.999Z</time></trkpt><trkpt lat="47.26193829406976" lon="-0.12903254229842492"><ele>73.25</ele><time>2026-03-22T17:11:20.999Z</time></trkpt><trkpt lat="47.2618302543606" lon="-0.12896107154392034"><ele>73.0</ele><time>2026-03-22T17:11:21.999Z</time></trkpt><trkpt lat="47.261729676134095" lon="-0.12887838609994479"><ele>73.0</ele><time>2026-03-22T17:11:22.999Z</time></trkpt><trkpt lat="47.2616334862381" lon="-0.1288227387490047"><ele>73.0</ele><time>2026-03-22T17:11:23.999Z</time></trkpt><trkpt lat="47.26154877807116" lon="-0.12876104649105896"><ele>73.0</ele><time>2026-03-22T17:11:24.999Z</time></trkpt><trkpt lat="47.26148686546206" lon="-0.1287073825274569"><ele>73.0</ele><time>2026-03-22T17:11:25.999Z</time></trkpt><trkpt lat="47.26141164842872" lon="-0.12862236611629838"><ele>73.0</ele><time>2026-03-22T17:11:27.999Z</time></trkpt><trkpt lat="47.261349966053835" lon="-0.12859596364206724"><ele>73.0</ele><time>2026-03-22T17:11:30.999Z</time></trkpt><trkpt lat="47.26128712317272" lon="-0.12853093433587492"><ele>71.5</ele><time>2026-03-22T17:11:32.999Z</time></trkpt><trkpt lat="47.261172463892315" lon="-0.12847802503823852"><ele>70.0</ele><time>2026-03-22T17:11:34.999Z</time></trkpt><trkpt lat="47.26106721596389" lon="-0.1283579306457994"><ele>68.5</ele><time>2026-03-22T17:11:36.999Z</time></trkpt><trkpt lat="47.26103723302603" lon="-0.1282537684649067"><ele>67.0</ele><time>2026-03-22T17:11:37.999Z</time></trkpt><trkpt lat="47.26097722555463" lon="-0.12808900614328284"><ele>67.0</ele><time>2026-03-22T17:11:39.998Z</time></trkpt><trkpt lat="47.260880996443056" lon="-0.128009983908263"><ele>67.0</ele><time>2026-03-22T17:11:40.998Z</time></trkpt><trkpt lat="47.26078985788068" lon="-0.12796945386201009"><ele>67.0</ele><time>2026-03-22T17:11:41.998Z</time></trkpt><trkpt lat="47.260707297895785" lon="-0.12793334573530202"><ele>67.0</ele><time>2026-03-22T17:11:42.998Z</time></trkpt><trkpt lat="47.26062725065573" lon="-0.12789254558715463"><ele>67.0</ele><time>2026-03-22T17:11:43.998Z</time></trkpt><trkpt lat="47.26054558862252" lon="-0.12783184878357162"><ele>66.16666666666666</ele><time>2026-03-22T17:11:44.998Z</time></trkpt><trkpt lat="47.26045259156821" lon="-0.12776257618181697"><ele>65.33333333333333</ele><time>2026-03-22T17:11:45.998Z</time></trkpt><trkpt lat="47.260366769559376" lon="-0.12770393587889248"><ele>64.5</ele><time>2026-03-22T17:11:46.998Z</time></trkpt><trkpt lat="47.260279570343535" lon="-0.12764538434341635"><ele>63.66666666666667</ele><time>2026-03-22T17:11:47.998Z</time></trkpt><trkpt lat="47.26021064009393" lon="-0.12761157187337002"><ele>62.833333333333336</ele><time>2026-03-22T17:11:48.998Z</time></trkpt><trkpt lat="47.2601463086986" lon="-0.12760811755492882"><ele>62.0</ele><time>2026-03-22T17:11:49.998Z</time></trkpt><trkpt lat="47.26007718896281" lon="-0.12760345404563414"><ele>62.00000000000001</ele><time>2026-03-22T17:11:50.998Z</time></trkpt><trkpt lat="47.25999779564848" lon="-0.12757541964940977"><ele>62.0</ele><time>2026-03-22T17:11:51.998Z</time></trkpt><trkpt lat="47.25992636699161" lon="-0.12751509585228313"><ele>62.0</ele><time>2026-03-22T17:11:52.998Z</time></trkpt><trkpt lat="47.259816260649764" lon="-0.12746374984484618"><ele>62.0</ele><time>2026-03-22T17:11:55Z</time></trkpt><trkpt lat="47.259778876893385" lon="-0.12737513977804285"><ele>62.00000000000001</ele><time>2026-03-22T17:11:56Z</time></trkpt><trkpt lat="47.25973909123774" lon="-0.12728459431992908"><ele>62.0</ele><time>2026-03-22T17:11:57Z</time></trkpt><trkpt lat="47.25964329963294" lon="-0.12719974417703972"><ele>61.8</ele><time>2026-03-22T17:11:59Z</time></trkpt><trkpt lat="47.25959720297451" lon="-0.12703126563197964"><ele>61.6</ele><time>2026-03-22T17:12:01Z</time></trkpt><trkpt lat="47.259528903151406" lon="-0.12688881030397062"><ele>61.39999999999999</ele><time>2026-03-22T17:12:03Z</time></trkpt><trkpt lat="47.259472635924034" lon="-0.12680465414319972"><ele>61.199999999999996</ele><time>2026-03-22T17:12:04Z</time></trkpt><trkpt lat="47.259430631667456" lon="-0.12668150870796593"><ele>61.0</ele><time>2026-03-22T17:12:05Z</time></trkpt><trkpt lat="47.259384608596584" lon="-0.12652330677695386"><ele>60.99999999999999</ele><time>2026-03-22T17:12:07Z</time></trkpt><trkpt lat="47.25940483280153" lon="-0.12641738677747846"><ele>61.0</ele><time>2026-03-22T17:12:08Z</time></trkpt><trkpt lat="47.25943947663424" lon="-0.12631447495206533"><ele>61.0</ele><time>2026-03-22T17:12:09Z</time></trkpt><trkpt lat="47.25944863059502" lon="-0.12619640724217612"><ele>61.0</ele><time>2026-03-22T17:12:10Z</time></trkpt><trkpt lat="47.259401869032764" lon="-0.1260581827627108"><ele>60.99999999999999</ele><time>2026-03-22T17:12:12Z</time></trkpt><trkpt lat="47.25935133300724" lon="-0.12599048236151367"><ele>61.0</ele><time>2026-03-22T17:12:13Z</time></trkpt><trkpt lat="47.259285812913966" lon="-0.1259492210986735"><ele>61.0</ele><time>2026-03-22T17:12:14Z</time></trkpt><trkpt lat="47.25918161647102" lon="-0.12589077299898532"><ele>60.99999999999999</ele><time>2026-03-22T17:12:16Z</time></trkpt><trkpt lat="47.25909160277135" lon="-0.12596383719401788"><ele>60.99999999999999</ele><time>2026-03-22T17:12:17.999Z</time></trkpt><trkpt lat="47.259046008210895" lon="-0.1260987486244242"><ele>61.0</ele><time>2026-03-22T17:12:18.999Z</time></trkpt><trkpt lat="47.25900511366811" lon="-0.1262396229835002"><ele>61.0</ele><time>2026-03-22T17:12:19.999Z</time></trkpt><trkpt lat="47.25895162196511" lon="-0.12638533880382294"><ele>62.0</ele><time>2026-03-22T17:12:20.999Z</time></trkpt><trkpt lat="47.258827781927764" lon="-0.12644733856800205"><ele>62.99999999999999</ele><time>2026-03-22T17:12:21.999Z</time></trkpt><trkpt lat="47.25876575385283" lon="-0.12656753656379105"><ele>63.99999999999999</ele><time>2026-03-22T17:12:22.999Z</time></trkpt><trkpt lat="47.258700892431584" lon="-0.12668649151166392"><ele>65.0</ele><time>2026-03-22T17:12:23.999Z</time></trkpt><trkpt lat="47.25863735776967" lon="-0.1267941626402502"><ele>66.0</ele><time>2026-03-22T17:12:24.999Z</time></trkpt><trkpt lat="47.25857092413292" lon="-0.1268999778980244"><ele>66.0</ele><time>2026-03-22T17:12:25.999Z</time></trkpt><trkpt lat="47.25849267051455" lon="-0.12702241088105726"><ele>66.0</ele><time>2026-03-22T17:12:26.999Z</time></trkpt><trkpt lat="47.25841198148385" lon="-0.12713273288343221"><ele>66.0</ele><time>2026-03-22T17:12:27.999Z</time></trkpt><trkpt lat="47.25833431775021" lon="-0.12723480810982843"><ele>66.0</ele><time>2026-03-22T17:12:28.999Z</time></trkpt><trkpt lat="47.25825603953204" lon="-0.12733499120451885"><ele>66.0</ele><time>2026-03-22T17:12:29.999Z</time></trkpt><trkpt lat="47.25819270437351" lon="-0.12741322622186588"><ele>66.39999999999999</ele><time>2026-03-22T17:12:30.999Z</time></trkpt><trkpt lat="47.25813850636832" lon="-0.12749563652009713"><ele>66.8</ele><time>2026-03-22T17:12:31.999Z</time></trkpt><trkpt lat="47.25806300656507" lon="-0.12752535997507308"><ele>67.19999999999999</ele><time>2026-03-22T17:12:32.999Z</time></trkpt><trkpt lat="47.25799910772439" lon="-0.12759898698645109"><ele>67.6</ele><time>2026-03-22T17:12:33.999Z</time></trkpt><trkpt lat="47.25792052348409" lon="-0.1276941161443646"><ele>68.0</ele><time>2026-03-22T17:12:34.999Z</time></trkpt><trkpt lat="47.25783012663581" lon="-0.12780402389775197"><ele>68.0</ele><time>2026-03-22T17:12:35.999Z</time></trkpt><trkpt lat="47.257734760628395" lon="-0.1279184779871053"><ele>68.0</ele><time>2026-03-22T17:12:36.999Z</time></trkpt><trkpt lat="47.2576335558756" lon="-0.12803606651996297"><ele>68.0</ele><time>2026-03-22T17:12:37.999Z</time></trkpt><trkpt lat="47.257537273582756" lon="-0.12815129860155403"><ele>68.0</ele><time>2026-03-22T17:12:38.999Z</time></trkpt><trkpt lat="47.257453103048825" lon="-0.12824570543328062"><ele>67.83333333333334</ele><time>2026-03-22T17:12:39.999Z</time></trkpt><trkpt lat="47.257383567461716" lon="-0.12832652525103208"><ele>67.66666666666667</ele><time>2026-03-22T17:12:40.999Z</time></trkpt><trkpt lat="47.257317952088606" lon="-0.12840034191328026"><ele>67.5</ele><time>2026-03-22T17:12:41.999Z</time></trkpt><trkpt lat="47.25724735434122" lon="-0.12848648109389593"><ele>67.33333333333333</ele><time>2026-03-22T17:12:42.999Z</time></trkpt><trkpt lat="47.2571788497959" lon="-0.12856331664042076"><ele>67.16666666666666</ele><time>2026-03-22T17:12:43.999Z</time></trkpt><trkpt lat="47.257110941964555" lon="-0.12864563012171318"><ele>67.0</ele><time>2026-03-22T17:12:44.999Z</time></trkpt><trkpt lat="47.25703619161295" lon="-0.12873487622566596"><ele>67.0</ele><time>2026-03-22T17:12:45.999Z</time></trkpt><trkpt lat="47.25695856701351" lon="-0.1288244174411767"><ele>67.0</ele><time>2026-03-22T17:12:46.999Z</time></trkpt><trkpt lat="47.25689241987742" lon="-0.1289036615305251"><ele>67.0</ele><time>2026-03-22T17:12:47.999Z</time></trkpt><trkpt lat="47.25682798012192" lon="-0.1289808490351949"><ele>67.0</ele><time>2026-03-22T17:12:48.999Z</time></trkpt><trkpt lat="47.2567679236577" lon="-0.12905493022789"><ele>67.0</ele><time>2026-03-22T17:12:49.999Z</time></trkpt><trkpt lat="47.25670114579228" lon="-0.12914079263376696"><ele>67.0</ele><time>2026-03-22T17:12:50.999Z</time></trkpt><trkpt lat="47.25662955760676" lon="-0.129255390501756"><ele>67.0</ele><time>2026-03-22T17:12:51.999Z</time></trkpt><trkpt lat="47.256575964967496" lon="-0.1293536439393212"><ele>67.0</ele><time>2026-03-22T17:12:52.999Z</time></trkpt><trkpt lat="47.256524583179164" lon="-0.12945239249339327"><ele>67.0</ele><time>2026-03-22T17:12:53.999Z</time></trkpt><trkpt lat="47.256463741648005" lon="-0.12955593052917358"><ele>67.0</ele><time>2026-03-22T17:12:54.999Z</time></trkpt><trkpt lat="47.25643002513012" lon="-0.12965346863125188"><ele>67.0</ele><time>2026-03-22T17:12:55.999Z</time></trkpt><trkpt lat="47.25637276233806" lon="-0.12974646447972846"><ele>67.0</ele><time>2026-03-22T17:12:57.999Z</time></trkpt><trkpt lat="47.256189831432096" lon="-0.12958963728337283"><ele>67.0</ele><time>2026-03-22T17:12:58.999Z</time></trkpt><trkpt lat="47.2561406321916" lon="-0.12951056431519514"><ele>67.0</ele><time>2026-03-22T17:12:59.999Z</time></trkpt><trkpt lat="47.2560888155152" lon="-0.12942406012928262"><ele>67.0</ele><time>2026-03-22T17:13:00.999Z</time></trkpt><trkpt lat="47.256067509915" lon="-0.12928811375034469"><ele>67.0</ele><time>2026-03-22T17:13:01.999Z</time></trkpt><trkpt lat="47.25604134302106" lon="-0.1291655904219302"><ele>67.0</ele><time>2026-03-22T17:13:02.999Z</time></trkpt><trkpt lat="47.25601974529869" lon="-0.12906207940153389"><ele>67.0</ele><time>2026-03-22T17:13:03.999Z</time></trkpt><trkpt lat="47.255997899620546" lon="-0.12895737997281398"><ele>67.5</ele><time>2026-03-22T17:13:04.999Z</time></trkpt><trkpt lat="47.2559741655875" lon="-0.12884340484629492"><ele>68.0</ele><time>2026-03-22T17:13:05.999Z</time></trkpt><trkpt lat="47.25595595186571" lon="-0.12875150076675987"><ele>68.5</ele><time>2026-03-22T17:13:06.999Z</time></trkpt><trkpt lat="47.255928089733295" lon="-0.1286123453715243"><ele>69.0</ele><time>2026-03-22T17:13:08.999Z</time></trkpt><trkpt lat="47.25590534954278" lon="-0.12850204622991185"><ele>69.5</ele><time>2026-03-22T17:13:10.999Z</time></trkpt><trkpt lat="47.255886087472206" lon="-0.1284111047754653"><ele>70.0</ele><time>2026-03-22T17:13:12.999Z</time></trkpt><trkpt lat="47.25585014038875" lon="-0.12824419912296242"><ele>69.6</ele><time>2026-03-22T17:13:14.999Z</time></trkpt><trkpt lat="47.25582065095497" lon="-0.12810842626211927"><ele>69.2</ele><time>2026-03-22T17:13:15.999Z</time></trkpt><trkpt lat="47.25578963252046" lon="-0.12796561368260964"><ele>68.8</ele><time>2026-03-22T17:13:16.999Z</time></trkpt><trkpt lat="47.25577106317411" lon="-0.12782332948481237"><ele>68.4</ele><time>2026-03-22T17:13:17.999Z</time></trkpt><trkpt lat="47.25573753166682" lon="-0.1277033125150071"><ele>68.0</ele><time>2026-03-22T17:13:18.999Z</time></trkpt><trkpt lat="47.25570546326468" lon="-0.12760278059629965"><ele>68.0</ele><time>2026-03-22T17:13:19.999Z</time></trkpt><trkpt lat="47.25566988962752" lon="-0.12749906431138203"><ele>68.0</ele><time>2026-03-22T17:13:20.999Z</time></trkpt><trkpt lat="47.25563444526562" lon="-0.1274129294407285"><ele>68.0</ele><time>2026-03-22T17:13:21.999Z</time></trkpt><trkpt lat="47.2555780999956" lon="-0.12728575334857295"><ele>68.0</ele><time>2026-03-22T17:13:23.999Z</time></trkpt><trkpt lat="47.25551011982494" lon="-0.1272412848116909"><ele>68.0</ele><time>2026-03-22T17:13:26.999Z</time></trkpt><trkpt lat="47.255560086111615" lon="-0.12737513553450713"><ele>68.0</ele><time>2026-03-22T17:13:30.999Z</time></trkpt><trkpt lat="47.25550613348151" lon="-0.12759915065463073"><ele>68.0</ele><time>2026-03-22T17:13:31.999Z</time></trkpt><trkpt lat="47.25553986349039" lon="-0.12769864343549514"><ele>68.0</ele><time>2026-03-22T17:13:32.999Z</time></trkpt><trkpt lat="47.255591364168154" lon="-0.12779072851466486"><ele>68.0</ele><time>2026-03-22T17:13:33.999Z</time></trkpt><trkpt lat="47.25564022447013" lon="-0.12788027129751592"><ele>68.0</ele><time>2026-03-22T17:13:34.999Z</time></trkpt><trkpt lat="47.255679495628506" lon="-0.1279882574821374"><ele>68.0</ele><time>2026-03-22T17:13:35.999Z</time></trkpt><trkpt lat="47.25583948968686" lon="-0.12803432698542863"><ele>68.0</ele><time>2026-03-22T17:13:36.999Z</time></trkpt><trkpt lat="47.25586295170155" lon="-0.12814234892219134"><ele>68.0</ele><time>2026-03-22T17:13:37.999Z</time></trkpt><trkpt lat="47.25588664499574" lon="-0.12825143566378533"><ele>68.0</ele><time>2026-03-22T17:13:38.999Z</time></trkpt><trkpt lat="47.255908339574844" lon="-0.1283513200133589"><ele>68.0</ele><time>2026-03-22T17:13:39.998Z</time></trkpt><trkpt lat="47.255930044241005" lon="-0.12845408286886476"><ele>68.0</ele><time>2026-03-22T17:13:40.998Z</time></trkpt><trkpt lat="47.25595793351427" lon="-0.12858824476168682"><ele>68.0</ele><time>2026-03-22T17:13:41.998Z</time></trkpt><trkpt lat="47.25598039587746" lon="-0.12869994381868174"><ele>67.83333333333334</ele><time>2026-03-22T17:13:42.998Z</time></trkpt><trkpt lat="47.25600213240173" lon="-0.12880962354237072"><ele>67.66666666666667</ele><time>2026-03-22T17:13:43.998Z</time></trkpt><trkpt lat="47.25602462470979" lon="-0.12891864036151218"><ele>67.5</ele><time>2026-03-22T17:13:44.998Z</time></trkpt><trkpt lat="47.25604381864852" lon="-0.12901063078897965"><ele>67.33333333333333</ele><time>2026-03-22T17:13:45.998Z</time></trkpt><trkpt lat="47.256065274992665" lon="-0.12911346423176487"><ele>67.16666666666666</ele><time>2026-03-22T17:13:46.998Z</time></trkpt><trkpt lat="47.25608952625369" lon="-0.12922950973156783"><ele>67.0</ele><time>2026-03-22T17:13:47.998Z</time></trkpt><trkpt lat="47.25611653279719" lon="-0.1293514324556023"><ele>67.0</ele><time>2026-03-22T17:13:48.998Z</time></trkpt><trkpt lat="47.2561472018981" lon="-0.12946424519741526"><ele>67.0</ele><time>2026-03-22T17:13:49.998Z</time></trkpt><trkpt lat="47.25618345929928" lon="-0.12956734305825998"><ele>67.0</ele><time>2026-03-22T17:13:50.998Z</time></trkpt><trkpt lat="47.2562151263334" lon="-0.12966041282469695"><ele>67.0</ele><time>2026-03-22T17:13:51.998Z</time></trkpt><trkpt lat="47.256287949350174" lon="-0.13007680221187357"><ele>67.0</ele><time>2026-03-22T17:13:53.998Z</time></trkpt><trkpt lat="47.25626070524897" lon="-0.13018122912935942"><ele>67.0</ele><time>2026-03-22T17:13:55.998Z</time></trkpt><trkpt lat="47.256237272264656" lon="-0.1302851529508478"><ele>67.0</ele><time>2026-03-22T17:13:57.998Z</time></trkpt><trkpt lat="47.25621805171077" lon="-0.13038355017652048"><ele>67.0</ele><time>2026-03-22T17:14:00Z</time></trkpt><trkpt lat="47.25619684789253" lon="-0.1305131863791216"><ele>67.0</ele><time>2026-03-22T17:14:03Z</time></trkpt><trkpt lat="47.25618132923916" lon="-0.13062479070939192"><ele>67.0</ele><time>2026-03-22T17:14:06Z</time></trkpt><trkpt lat="47.25616582850327" lon="-0.13075283990370898"><ele>67.0</ele><time>2026-03-22T17:14:08Z</time></trkpt><trkpt lat="47.25615445096744" lon="-0.13085438545992226"><ele>67.0</ele><time>2026-03-22T17:14:10Z</time></trkpt><trkpt lat="47.25614258626724" lon="-0.13096027902668292"><ele>67.0</ele><time>2026-03-22T17:14:12Z</time></trkpt><trkpt lat="47.25612842071543" lon="-0.13108670791684102"><ele>67.0</ele><time>2026-03-22T17:14:15Z</time></trkpt><trkpt lat="47.256117028252305" lon="-0.1311883867121655"><ele>67.0</ele><time>2026-03-22T17:14:18Z</time></trkpt><trkpt lat="47.255904871533" lon="-0.13107881775536182"><ele>67.0</ele><time>2026-03-22T17:14:22Z</time></trkpt><trkpt lat="47.25593814436843" lon="-0.13095828466212847"><ele>67.0</ele><time>2026-03-22T17:14:27.999Z</time></trkpt><trkpt lat="47.25606943741095" lon="-0.13093583252086222"><ele>67.0</ele><time>2026-03-22T17:14:28.999Z</time></trkpt><trkpt lat="47.256081879703" lon="-0.13082478389559973"><ele>67.0</ele><time>2026-03-22T17:14:30.999Z</time></trkpt><trkpt lat="47.25609744729711" lon="-0.13068345885197694"><ele>67.0</ele><time>2026-03-22T17:14:32.999Z</time></trkpt><trkpt lat="47.256120955705796" lon="-0.13050757080026193"><ele>67.0</ele><time>2026-03-22T17:14:34.999Z</time></trkpt><trkpt lat="47.25614153840834" lon="-0.1303782100796569"><ele>67.0</ele><time>2026-03-22T17:14:36.999Z</time></trkpt><trkpt lat="47.256169195925864" lon="-0.13023624499905795"><ele>67.0</ele><time>2026-03-22T17:14:38.999Z</time></trkpt><trkpt lat="47.25619858145588" lon="-0.13010889153633196"><ele>67.0</ele><time>2026-03-22T17:14:40.999Z</time></trkpt><trkpt lat="47.2562069740403" lon="-0.1300040604159876"><ele>67.0</ele><time>2026-03-22T17:14:49.999Z</time></trkpt><trkpt lat="47.25616166720527" lon="-0.12965204536477185"><ele>67.5</ele><time>2026-03-22T17:14:50.999Z</time></trkpt><trkpt lat="47.25623986947168" lon="-0.12995696840203613"><ele>68.0</ele><time>2026-03-22T17:14:52.999Z</time></trkpt><trkpt lat="47.256091150413276" lon="-0.1299553209655089"><ele>68.5</ele><time>2026-03-22T17:14:56.999Z</time></trkpt><trkpt lat="47.25604520923784" lon="-0.13002298310204735"><ele>69.0</ele><time>2026-03-22T17:14:58.999Z</time></trkpt><trkpt lat="47.25597732793521" lon="-0.13004783402173645"><ele>69.0</ele><time>2026-03-22T17:15:00.999Z</time></trkpt><trkpt lat="47.255868437223064" lon="-0.1300977555436511"><ele>69.0</ele><time>2026-03-22T17:15:02.999Z</time></trkpt><trkpt lat="47.2557845048653" lon="-0.13010945379524497"><ele>69.0</ele><time>2026-03-22T17:15:04.999Z</time></trkpt><trkpt lat="47.255717545521165" lon="-0.1300501458963267"><ele>69.0</ele><time>2026-03-22T17:15:06.999Z</time></trkpt><trkpt lat="47.25565151006404" lon="-0.12997978055812454"><ele>69.0</ele><time>2026-03-22T17:15:08.999Z</time></trkpt><trkpt lat="47.25560870737467" lon="-0.12988728917503178"><ele>69.0</ele><time>2026-03-22T17:15:10.999Z</time></trkpt><trkpt lat="47.25553616942088" lon="-0.1298258016574164"><ele>69.85714285714286</ele><time>2026-03-22T17:15:12.999Z</time></trkpt><trkpt lat="47.25550057665241" lon="-0.12974796351094345"><ele>70.71428571428572</ele><time>2026-03-22T17:15:31.999Z</time></trkpt><trkpt lat="47.25546444551736" lon="-0.1296691187157519"><ele>71.57142857142857</ele><time>2026-03-22T17:16:13Z</time></trkpt><trkpt lat="47.255430501193054" lon="-0.12958518296143784"><ele>72.42857142857143</ele><time>2026-03-22T17:16:16Z</time></trkpt><trkpt lat="47.25537975770315" lon="-0.12951711836044758"><ele>73.28571428571428</ele><time>2026-03-22T17:16:21Z</time></trkpt><trkpt lat="47.25531690271331" lon="-0.12955914862111045"><ele>74.14285714285714</ele><time>2026-03-22T17:16:24Z</time></trkpt><trkpt lat="47.255251464063626" lon="-0.12954294921370407"><ele>75.0</ele><time>2026-03-22T17:16:27Z</time></trkpt><trkpt lat="47.25519320696416" lon="-0.12949560539695903"><ele>75.0</ele><time>2026-03-22T17:16:32Z</time></trkpt><trkpt lat="47.255166274214886" lon="-0.12960429675064905"><ele>75.0</ele><time>2026-03-22T17:16:39.999Z</time></trkpt><trkpt lat="47.25510795540969" lon="-0.1296982571978908"><ele>75.0</ele><time>2026-03-22T17:16:42.999Z</time></trkpt><trkpt lat="47.255043084853256" lon="-0.1297324333763531"><ele>75.0</ele><time>2026-03-22T17:16:45.999Z</time></trkpt><trkpt lat="47.25495683076789" lon="-0.12977393654899136"><ele>75.0</ele><time>2026-03-22T17:16:48.999Z</time></trkpt><trkpt lat="47.25486613481596" lon="-0.12978106537211773"><ele>75.0</ele><time>2026-03-22T17:16:51.999Z</time></trkpt><trkpt lat="47.254802136796954" lon="-0.12981087867841856"><ele>75.16666666666667</ele><time>2026-03-22T17:16:53.999Z</time></trkpt><trkpt lat="47.25472492366191" lon="-0.12983945479355796"><ele>75.33333333333333</ele><time>2026-03-22T17:16:56.999Z</time></trkpt><trkpt lat="47.254647208372376" lon="-0.1299050904186359"><ele>75.5</ele><time>2026-03-22T17:16:59.999Z</time></trkpt><trkpt lat="47.25457040592933" lon="-0.12993997397394294"><ele>75.66666666666666</ele><time>2026-03-22T17:17:02.999Z</time></trkpt><trkpt lat="47.254496788430984" lon="-0.12980527774246584"><ele>75.83333333333333</ele><time>2026-03-22T17:17:09.999Z</time></trkpt><trkpt lat="47.25446970018329" lon="-0.12970924528343827"><ele>76.0</ele><time>2026-03-22T17:17:10.999Z</time></trkpt><trkpt lat="47.25443853362412" lon="-0.1296025979261395"><ele>76.0</ele><time>2026-03-22T17:17:11.999Z</time></trkpt><trkpt lat="47.254422385224856" lon="-0.1294824347453205"><ele>76.0</ele><time>2026-03-22T17:17:12.999Z</time></trkpt><trkpt lat="47.25441777586624" lon="-0.12937473736989233"><ele>76.0</ele><time>2026-03-22T17:17:14.999Z</time></trkpt><trkpt lat="47.25441571358866" lon="-0.12926199944644762"><ele>76.0</ele><time>2026-03-22T17:17:17.999Z</time></trkpt><trkpt lat="47.25443563592856" lon="-0.12916758274993317"><ele>76.0</ele><time>2026-03-22T17:17:18.999Z</time></trkpt><trkpt lat="47.25444794689168" lon="-0.12905656530043103"><ele>76.0</ele><time>2026-03-22T17:17:19.999Z</time></trkpt><trkpt lat="47.25441807749751" lon="-0.12889065948420364"><ele>75.83333333333333</ele><time>2026-03-22T17:17:21.999Z</time></trkpt><trkpt lat="47.254380467175956" lon="-0.12880942408395593"><ele>75.66666666666666</ele><time>2026-03-22T17:17:22.999Z</time></trkpt><trkpt lat="47.25431440983649" lon="-0.12871237724398252"><ele>75.5</ele><time>2026-03-22T17:17:23.999Z</time></trkpt><trkpt lat="47.2542422497085" lon="-0.12861158700500122"><ele>75.33333333333333</ele><time>2026-03-22T17:17:24.999Z</time></trkpt><trkpt lat="47.25418082691512" lon="-0.1285128103280264"><ele>75.16666666666667</ele><time>2026-03-22T17:17:25.999Z</time></trkpt><trkpt lat="47.25412302014055" lon="-0.12843215723052331"><ele>75.0</ele><time>2026-03-22T17:17:26.999Z</time></trkpt><trkpt lat="47.25407736322688" lon="-0.12832264366820115"><ele>75.0</ele><time>2026-03-22T17:17:27.999Z</time></trkpt><trkpt lat="47.2540307806315" lon="-0.12820824522769553"><ele>75.0</ele><time>2026-03-22T17:17:28.999Z</time></trkpt><trkpt lat="47.25397841252676" lon="-0.12811249975251554"><ele>75.0</ele><time>2026-03-22T17:17:29.999Z</time></trkpt><trkpt lat="47.25392247941802" lon="-0.12802028512559308"><ele>75.0</ele><time>2026-03-22T17:17:30.999Z</time></trkpt><trkpt lat="47.25387802467731" lon="-0.12793771746369248"><ele>75.0</ele><time>2026-03-22T17:17:31.999Z</time></trkpt><trkpt lat="47.25382391989935" lon="-0.1278633948310158"><ele>75.0</ele><time>2026-03-22T17:17:32.999Z</time></trkpt><trkpt lat="47.25376964986966" lon="-0.127807295803039"><ele>75.0</ele><time>2026-03-22T17:17:33.999Z</time></trkpt><trkpt lat="47.25369906103792" lon="-0.12771704309734397"><ele>75.0</ele><time>2026-03-22T17:17:34.999Z</time></trkpt><trkpt lat="47.25364280095545" lon="-0.12760011852292308"><ele>75.0</ele><time>2026-03-22T17:17:35.999Z</time></trkpt><trkpt lat="47.25358371414011" lon="-0.1274627166451823"><ele>75.0</ele><time>2026-03-22T17:17:36.999Z</time></trkpt><trkpt lat="47.253510353314205" lon="-0.12733543075914414"><ele>75.0</ele><time>2026-03-22T17:17:37.999Z</time></trkpt><trkpt lat="47.25343224375399" lon="-0.1272339791417371"><ele>74.8</ele><time>2026-03-22T17:17:38.999Z</time></trkpt><trkpt lat="47.253368216587624" lon="-0.12715973013424414"><ele>74.6</ele><time>2026-03-22T17:17:39.999Z</time></trkpt><trkpt lat="47.2532940025946" lon="-0.12708637426017896"><ele>74.4</ele><time>2026-03-22T17:17:40.999Z</time></trkpt><trkpt lat="47.253224549307845" lon="-0.1269890460974824"><ele>74.2</ele><time>2026-03-22T17:17:41.999Z</time></trkpt><trkpt lat="47.25315476829664" lon="-0.12685768760130456"><ele>74.0</ele><time>2026-03-22T17:17:42.999Z</time></trkpt><trkpt lat="47.25309636264022" lon="-0.12671817076141934"><ele>74.33333333333334</ele><time>2026-03-22T17:17:43.999Z</time></trkpt><trkpt lat="47.253043341970354" lon="-0.12661352194823552"><ele>74.66666666666667</ele><time>2026-03-22T17:17:44.999Z</time></trkpt><trkpt lat="47.25298492511468" lon="-0.1265133428545203"><ele>75.0</ele><time>2026-03-22T17:17:45.999Z</time></trkpt><trkpt lat="47.252930817471615" lon="-0.1264156532215337"><ele>75.33333333333333</ele><time>2026-03-22T17:17:46.999Z</time></trkpt><trkpt lat="47.25288276067574" lon="-0.12628778809041705"><ele>75.66666666666666</ele><time>2026-03-22T17:17:47.999Z</time></trkpt><trkpt lat="47.25285095838637" lon="-0.126189978542186"><ele>76.0</ele><time>2026-03-22T17:17:48.999Z</time></trkpt><trkpt lat="47.25282449799978" lon="-0.12608816715250867"><ele>76.0</ele><time>2026-03-22T17:17:49.999Z</time></trkpt><trkpt lat="47.25280196214576" lon="-0.12597911049230118"><ele>76.0</ele><time>2026-03-22T17:17:51.999Z</time></trkpt><trkpt lat="47.25285981398362" lon="-0.1259273139498548"><ele>76.0</ele><time>2026-03-22T17:17:53.999Z</time></trkpt><trkpt lat="47.25292636702363" lon="-0.1259119339778555"><ele>76.0</ele><time>2026-03-22T17:17:54.999Z</time></trkpt><trkpt lat="47.25300006950288" lon="-0.12590174180816663"><ele>76.0</ele><time>2026-03-22T17:17:55.999Z</time></trkpt><trkpt lat="47.25307337193825" lon="-0.12580868027892314"><ele>76.0</ele><time>2026-03-22T17:17:57.999Z</time></trkpt><trkpt lat="47.25312427810082" lon="-0.12570832528821266"><ele>75.33333333333333</ele><time>2026-03-22T17:18:00.998Z</time></trkpt><trkpt lat="47.25318286740936" lon="-0.12567276516290943"><ele>74.66666666666666</ele><time>2026-03-22T17:18:01.998Z</time></trkpt><trkpt lat="47.25325271198776" lon="-0.12562936931568922"><ele>74.0</ele><time>2026-03-22T17:18:02.998Z</time></trkpt><trkpt lat="47.25332687919941" lon="-0.1255626643890801"><ele>73.33333333333333</ele><time>2026-03-22T17:18:03.998Z</time></trkpt><trkpt lat="47.25340066657461" lon="-0.1254630225580844"><ele>72.66666666666667</ele><time>2026-03-22T17:18:04.998Z</time></trkpt><trkpt lat="47.25347469877567" lon="-0.1253527143809425"><ele>72.0</ele><time>2026-03-22T17:18:05.998Z</time></trkpt><trkpt lat="47.25355030935377" lon="-0.12522971166438146"><ele>72.0</ele><time>2026-03-22T17:18:06.998Z</time></trkpt><trkpt lat="47.25363469497617" lon="-0.12510407648190044"><ele>72.0</ele><time>2026-03-22T17:18:07.998Z</time></trkpt><trkpt lat="47.25372414932123" lon="-0.12496946873611618"><ele>72.0</ele><time>2026-03-22T17:18:08.998Z</time></trkpt><trkpt lat="47.25381148606778" lon="-0.12485413097733626"><ele>72.0</ele><time>2026-03-22T17:18:10Z</time></trkpt><trkpt lat="47.253876550399774" lon="-0.1247188907437617"><ele>72.0</ele><time>2026-03-22T17:18:11Z</time></trkpt><trkpt lat="47.25395929403074" lon="-0.12462944549751825"><ele>72.0</ele><time>2026-03-22T17:18:12Z</time></trkpt><trkpt lat="47.25405077764619" lon="-0.12454103366645054"><ele>72.0</ele><time>2026-03-22T17:18:13Z</time></trkpt><trkpt lat="47.25415175741389" lon="-0.12446913808345637"><ele>72.0</ele><time>2026-03-22T17:18:14Z</time></trkpt><trkpt lat="47.25425932990087" lon="-0.12439949225882233"><ele>72.0</ele><time>2026-03-22T17:18:15Z</time></trkpt><trkpt lat="47.254351918942014" lon="-0.1243126326008277"><ele>72.0</ele><time>2026-03-22T17:18:16Z</time></trkpt><trkpt lat="47.254431231956026" lon="-0.12425652959192965"><ele>72.0</ele><time>2026-03-22T17:18:17Z</time></trkpt><trkpt lat="47.25450718744248" lon="-0.12422233574986057"><ele>72.0</ele><time>2026-03-22T17:18:18Z</time></trkpt><trkpt lat="47.25456113347575" lon="-0.12416899217517761"><ele>72.0</ele><time>2026-03-22T17:18:19Z</time></trkpt><trkpt lat="47.25465850136472" lon="-0.12413302280219997"><ele>72.0</ele><time>2026-03-22T17:18:21Z</time></trkpt><trkpt lat="47.25472642660058" lon="-0.12408809419538279"><ele>72.0</ele><time>2026-03-22T17:18:23Z</time></trkpt><trkpt lat="47.25478664277484" lon="-0.12387884666002287"><ele>74.0</ele><time>2026-03-22T17:18:27Z</time></trkpt><trkpt lat="47.2549620453321" lon="-0.1240289100098037"><ele>73.0</ele><time>2026-03-22T17:19:06.999Z</time></trkpt></trkseg></trk></gpx>